[[{"header":{"parameterUnit":"m.s-1","parameterCategory":1,"la1":30.6,"la2":29.2853,"lo1":-89.7004,"lo2":-87.6739,"dy":0.0162,"dx":0.0183,"nx":112,"ny":82,"refTime":"2025-05-24T18:00:00:Z","depth":0,"parameterNumber":2,"parameterNumberName":"U-component_of_WINDS"},"data":[0.0,0.0,0.0,0.0,0.0,0.0,0.0,0.0,0.0,0.0,0.0,0.0,0.0,0.0,0.0,0.0,0.0,0.0,0.0,0.0,0.0,0.0,0.0,0.0,0.0,0.0,0.0,0.0,0.0,0.0,0.0,0.0,0.0,0.0,0.0,0.0,0.0,0.0,0.0,0.0,0.0,0.0,0.0,0.0,0.0,0.0,0.0,0.0,0.0,0.0,0.0,0.0,0.0,0.0,0.0,0.0,0.0,0.0,0.0,0.0,0.0,0.0,0.0,0.0,0.0,0.0,0.0,0.0,0.0,0.0,0.0,0.0,0.0,0.0,0.0,0.0,0.0,0.0,0.0,0.0,0.0,0.0,0.0,0.0,0.0,0.0,0.0,0.0,0.0,0.0,0.0,-2.9434,-3.3102,-3.4898,-3.3731,-3.3139,-3.0853,-2.6171,0.0,0.0,0.0,0.0,0.0,0.0,0.0,0.0,0.0,0.0,0.0,0.0,0.0,0.0,0.0,0.0,0.0,0.0,0.0,0.0,0.0,0.0,0.0,0.0,0.0,0.0,0.0,0.0,0.0,0.0,0.0,0.0,0.0,0.0,0.0,0.0,0.0,0.0,0.0,0.0,0.0,0.0,0.0,0.0,0.0,0.0,0.0,0.0,0.0,0.0,0.0,0.0,0.0,0.0,0.0,0.0,0.0,0.0,0.0,0.0,0.0,0.0,0.0,0.0,0.0,0.0,0.0,0.0,0.0,0.0,0.0,0.0,0.0,0.0,0.0,0.0,0.0,0.0,0.0,0.0,0.0,0.0,0.0,0.0,0.0,0.0,0.0,0.0,0.0,0.0,0.0,0.0,0.0,0.0,0.0,0.0,0.0,0.0,0.0,0.0,0.0,0.0,0.0,0.0,-2.6734,-3.2325,-3.4884,-3.5774,-3.4672,-3.3336,-3.1001,-2.7367,0.0,0.0,0.0,0.0,0.0,0.0,0.0,0.0,0.0,0.0,0.0,0.0,0.0,0.0,0.0,0.0,0.0,0.0,0.0,0.0,0.0,0.0,0.0,0.0,0.0,0.0,0.0,0.0,0.0,0.0,0.0,0.0,0.0,0.0,0.0,0.0,0.0,0.0,0.0,0.0,0.0,0.0,0.0,0.0,0.0,0.0,0.0,0.0,0.0,0.0,0.0,0.0,0.0,0.0,0.0,0.0,0.0,0.0,0.0,0.0,0.0,0.0,0.0,0.0,0.0,0.0,0.0,0.0,0.0,0.0,0.0,0.0,0.0,0.0,0.0,0.0,0.0,0.0,0.0,0.0,0.0,0.0,0.0,0.0,0.0,0.0,0.0,0.0,0.0,0.0,0.0,0.0,0.0,0.0,0.0,0.0,0.0,0.0,0.0,0.0,0.0,0.0,0.0,-2.5938,-2.9051,-3.3068,-3.5229,-3.5751,-3.4174,-3.3019,-3.0931,-2.7509,-2.3919,0.0,0.0,0.0,0.0,0.0,0.0,0.0,0.0,0.0,0.0,0.0,0.0,0.0,0.0,0.0,0.0,0.0,0.0,0.0,0.0,0.0,0.0,0.0,0.0,0.0,0.0,0.0,0.0,0.0,0.0,0.0,0.0,0.0,0.0,0.0,0.0,0.0,0.0,0.0,0.0,0.0,0.0,0.0,0.0,0.0,0.0,0.0,0.0,0.0,0.0,0.0,0.0,0.0,0.0,0.0,0.0,0.0,0.0,0.0,0.0,0.0,0.0,0.0,0.0,0.0,0.0,0.0,0.0,0.0,0.0,0.0,0.0,0.0,0.0,0.0,0.0,0.0,0.0,0.0,0.0,0.0,0.0,0.0,0.0,0.0,0.0,0.0,0.0,0.0,0.0,0.0,0.0,0.0,0.0,0.0,0.0,0.0,0.0,0.0,0.0,0.0,0.0,-2.9117,-3.1376,-3.3499,-3.5437,-3.5812,-3.3887,-3.2844,-3.0852,-2.7461,-2.3193,0.0,0.0,0.0,0.0,0.0,0.0,0.0,0.0,0.0,0.0,0.0,0.0,0.0,0.0,0.0,0.0,0.0,0.0,0.0,0.0,0.0,0.0,0.0,0.0,0.0,0.0,0.0,0.0,0.0,0.0,0.0,0.0,0.0,0.0,0.0,0.0,0.0,0.0,0.0,0.0,0.0,0.0,0.0,0.0,0.0,0.0,0.0,0.0,0.0,0.0,0.0,0.0,0.0,0.0,0.0,0.0,0.0,0.0,0.0,0.0,0.0,0.0,0.0,0.0,0.0,0.0,0.0,0.0,0.0,0.0,0.0,0.0,0.0,0.0,0.0,0.0,0.0,0.0,0.0,0.0,0.0,0.0,0.0,0.0,0.0,0.0,0.0,0.0,0.0,0.0,0.0,0.0,0.0,0.0,0.0,0.0,0.0,0.0,0.0,0.0,0.0,0.0,-2.9486,-3.2473,-3.4481,-3.6179,-3.6479,-3.4835,-3.3169,-3.0822,-2.7596,-2.2506,0.0,0.0,0.0,0.0,0.0,0.0,0.0,0.0,0.0,0.0,0.0,0.0,0.0,0.0,0.0,0.0,0.0,0.0,0.0,0.0,0.0,0.0,0.0,0.0,0.0,0.0,0.0,0.0,0.0,0.0,0.0,0.0,0.0,0.0,0.0,0.0,0.0,0.0,0.0,0.0,0.0,0.0,0.0,0.0,0.0,0.0,0.0,0.0,0.0,0.0,0.0,0.0,0.0,0.0,0.0,0.0,0.0,0.0,0.0,0.0,0.0,0.0,0.0,0.0,0.0,0.0,0.0,0.0,0.0,0.0,0.0,0.0,0.0,0.0,0.0,0.0,0.0,0.0,0.0,0.0,0.0,0.0,0.0,0.0,0.0,0.0,0.0,0.0,0.0,0.0,0.0,0.0,0.0,0.0,0.0,0.0,0.0,0.0,0.0,0.0,0.0,0.0,-2.9568,-3.2505,0.0,-3.6066,-3.6441,-3.452,-3.3387,-3.1043,-2.6966,0.0,0.0,0.0,0.0,0.0,0.0,0.0,0.0,0.0,0.0,0.0,0.0,0.0,0.0,0.0,0.0,0.0,0.0,0.0,0.0,0.0,0.0,0.0,0.0,0.0,0.0,0.0,0.0,0.0,0.0,0.0,0.0,0.0,0.0,0.0,0.0,0.0,0.0,0.0,0.0,0.0,0.0,0.0,0.0,0.0,0.0,0.0,0.0,0.0,0.0,0.0,0.0,0.0,0.0,0.0,0.0,0.0,0.0,0.0,0.0,0.0,0.0,0.0,0.0,0.0,0.0,0.0,0.0,0.0,0.0,0.0,0.0,0.0,0.0,0.0,0.0,0.0,0.0,0.0,0.0,0.0,0.0,0.0,0.0,0.0,0.0,0.0,0.0,0.0,0.0,0.0,0.0,0.0,0.0,0.0,0.0,0.0,0.0,0.0,0.0,0.0,0.0,-2.6441,-3.0076,-3.2858,0.0,-3.6271,-3.6573,-3.45,-3.339,-3.0987,-2.6696,0.0,0.0,0.0,0.0,0.0,0.0,0.0,0.0,0.0,0.0,0.0,0.0,0.0,0.0,0.0,0.0,0.0,0.0,0.0,0.0,0.0,0.0,0.0,0.0,0.0,0.0,0.0,0.0,0.0,0.0,0.0,0.0,0.0,0.0,0.0,0.0,0.0,0.0,0.0,0.0,0.0,0.0,0.0,0.0,0.0,0.0,0.0,0.0,0.0,0.0,0.0,0.0,0.0,0.0,0.0,0.0,0.0,0.0,0.0,0.0,0.0,0.0,0.0,0.0,0.0,0.0,0.0,0.0,0.0,0.0,0.0,0.0,0.0,0.0,0.0,0.0,0.0,0.0,0.0,0.0,0.0,0.0,0.0,0.0,0.0,0.0,0.0,0.0,0.0,0.0,0.0,0.0,0.0,0.0,0.0,0.0,0.0,0.0,0.0,0.0,0.0,0.0,-2.7924,-3.1185,-3.3718,-3.5335,-3.692,-3.7055,-3.4978,-3.3209,-3.0634,0.0,0.0,0.0,0.0,0.0,0.0,0.0,0.0,0.0,0.0,0.0,0.0,0.0,0.0,0.0,0.0,0.0,0.0,0.0,0.0,0.0,0.0,0.0,0.0,0.0,0.0,0.0,0.0,0.0,0.0,0.0,0.0,0.0,0.0,0.0,0.0,0.0,0.0,0.0,0.0,0.0,0.0,0.0,0.0,0.0,0.0,0.0,0.0,0.0,0.0,0.0,0.0,0.0,0.0,0.0,0.0,0.0,0.0,0.0,0.0,0.0,0.0,0.0,0.0,0.0,0.0,0.0,0.0,0.0,0.0,0.0,0.0,0.0,0.0,0.0,0.0,0.0,0.0,0.0,0.0,0.0,0.0,0.0,0.0,0.0,0.0,0.0,0.0,0.0,0.0,0.0,0.0,0.0,0.0,0.0,0.0,0.0,0.0,0.0,0.0,0.0,0.0,0.0,-2.7912,-3.1185,-3.3718,-3.5335,-3.6417,-3.6582,-3.5388,-3.3575,-3.0735,-2.6603,0.0,0.0,0.0,0.0,0.0,0.0,0.0,0.0,0.0,0.0,0.0,0.0,0.0,0.0,0.0,0.0,0.0,0.0,0.0,0.0,0.0,0.0,0.0,0.0,0.0,0.0,0.0,0.0,0.0,0.0,0.0,0.0,0.0,0.0,0.0,0.0,0.0,0.0,0.0,0.0,0.0,0.0,0.0,0.0,0.0,0.0,0.0,0.0,0.0,0.0,0.0,0.0,0.0,0.0,0.0,0.0,0.0,0.0,0.0,0.0,0.0,0.0,0.0,0.0,0.0,0.0,0.0,0.0,0.0,0.0,0.0,0.0,0.0,0.0,0.0,0.0,0.0,0.0,0.0,0.0,0.0,0.0,0.0,0.0,0.0,0.0,0.0,0.0,0.0,0.0,0.0,0.0,0.0,0.0,0.0,0.0,0.0,0.0,0.0,0.0,0.0,0.0,-2.8524,-3.1638,-3.4134,-3.6093,-3.6728,-3.6692,-3.5893,-3.3839,-3.0955,-2.7077,0.0,0.0,0.0,0.0,0.0,0.0,0.0,0.0,0.0,0.0,0.0,0.0,0.0,0.0,0.0,0.0,0.0,0.0,0.0,0.0,0.0,0.0,0.0,0.0,0.0,0.0,0.0,0.0,0.0,0.0,0.0,0.0,0.0,0.0,0.0,0.0,0.0,0.0,0.0,0.0,0.0,0.0,0.0,0.0,0.0,0.0,0.0,0.0,0.0,0.0,0.0,0.0,0.0,0.0,0.0,0.0,0.0,0.0,0.0,0.0,0.0,0.0,0.0,0.0,0.0,0.0,0.0,0.0,0.0,0.0,0.0,0.0,0.0,0.0,0.0,0.0,0.0,0.0,0.0,0.0,0.0,0.0,0.0,0.0,0.0,0.0,0.0,0.0,0.0,0.0,0.0,0.0,0.0,0.0,0.0,0.0,0.0,0.0,0.0,0.0,0.0,0.0,-2.9494,-3.2375,-3.4835,-3.7235,-3.7437,-3.7088,-3.6358,-3.4027,-3.1262,-2.8099,0.0,0.0,0.0,0.0,0.0,0.0,0.0,0.0,0.0,0.0,0.0,0.0,0.0,0.0,0.0,0.0,0.0,0.0,0.0,0.0,0.0,0.0,0.0,0.0,0.0,0.0,0.0,0.0,0.0,0.0,0.0,0.0,0.0,0.0,0.0,0.0,0.0,0.0,0.0,0.0,0.0,0.0,0.0,0.0,0.0,0.0,0.0,0.0,0.0,0.0,0.0,0.0,0.0,0.0,0.0,0.0,0.0,0.0,0.0,0.0,-3.253,0.0,0.0,0.0,0.0,0.0,0.0,0.0,0.0,0.0,0.0,0.0,0.0,0.0,0.0,0.0,0.0,0.0,0.0,0.0,0.0,0.0,0.0,0.0,0.0,0.0,0.0,0.0,0.0,0.0,0.0,0.0,0.0,0.0,0.0,0.0,0.0,0.0,0.0,0.0,0.0,0.0,-2.9641,-3.2858,-3.5445,-3.7309,-3.6942,-3.6486,-3.6303,-3.4027,-3.15,-2.8913,-2.6319,0.0,0.0,0.0,0.0,0.0,0.0,0.0,0.0,0.0,0.0,0.0,0.0,0.0,0.0,0.0,0.0,0.0,0.0,0.0,0.0,0.0,0.0,0.0,0.0,0.0,0.0,0.0,0.0,0.0,0.0,0.0,0.0,0.0,0.0,0.0,0.0,0.0,0.0,0.0,0.0,0.0,0.0,0.0,0.0,0.0,0.0,0.0,0.0,0.0,0.0,0.0,0.0,0.0,0.0,0.0,0.0,0.0,0.0,0.0,0.0,-3.4795,0.0,0.0,0.0,0.0,0.0,0.0,0.0,0.0,0.0,0.0,0.0,0.0,0.0,0.0,0.0,0.0,0.0,0.0,0.0,0.0,0.0,0.0,0.0,0.0,0.0,0.0,0.0,0.0,0.0,0.0,0.0,0.0,0.0,0.0,0.0,0.0,0.0,0.0,0.0,0.0,-3.0265,-3.3243,-3.5793,-3.7863,-3.7,-3.6303,-3.6303,-3.4027,-3.1739,-2.9702,-2.7658,0.0,0.0,0.0,0.0,0.0,0.0,0.0,0.0,0.0,0.0,0.0,0.0,0.0,0.0,0.0,0.0,0.0,0.0,0.0,0.0,0.0,0.0,0.0,0.0,0.0,0.0,0.0,0.0,0.0,0.0,0.0,0.0,0.0,0.0,0.0,0.0,0.0,0.0,0.0,0.0,0.0,0.0,0.0,0.0,0.0,0.0,0.0,0.0,0.0,0.0,0.0,0.0,0.0,-4.1593,-4.2901,-4.4412,-4.4412,-4.4701,-4.4951,-4.0739,-3.9681,-4.0669,-3.686,0.0,0.0,0.0,0.0,0.0,0.0,0.0,0.0,0.0,0.0,0.0,0.0,0.0,0.0,0.0,0.0,0.0,0.0,0.0,0.0,0.0,0.0,0.0,0.0,-3.3981,-3.3765,0.0,0.0,0.0,0.0,0.0,0.0,0.0,0.0,0.0,0.0,0.0,0.0,-3.1121,-3.372,-3.6123,-3.845,-3.7257,-3.6303,-3.6303,-3.4156,-3.2179,-3.0705,-2.9108,-2.6961,0.0,0.0,0.0,0.0,0.0,0.0,0.0,0.0,0.0,0.0,0.0,0.0,0.0,0.0,0.0,0.0,0.0,0.0,0.0,0.0,0.0,0.0,0.0,0.0,0.0,0.0,0.0,0.0,0.0,0.0,0.0,0.0,-2.9361,-3.1116,0.0,0.0,0.0,0.0,0.0,0.0,0.0,0.0,0.0,0.0,0.0,0.0,0.0,-3.9381,-4.0974,-4.3267,-4.4913,-4.5932,-4.7471,-4.874,-4.9711,-4.9711,-4.9336,-4.8682,-4.8009,0.0,-4.2604,-4.0516,0.0,0.0,0.0,0.0,0.0,0.0,0.0,0.0,0.0,0.0,0.0,0.0,0.0,0.0,0.0,0.0,0.0,0.0,0.0,0.0,0.0,0.0,-3.8162,-3.7845,-3.7959,-3.7537,0.0,-3.177,-2.8675,-2.8143,-2.597,0.0,0.0,0.0,0.0,0.0,0.0,0.0,-3.2008,-3.4596,-3.6798,-3.8524,-3.7257,-3.6303,-3.6303,-3.4669,-3.3256,-3.2344,-3.0766,-2.9384,-2.8271,-2.4859,0.0,0.0,0.0,0.0,0.0,0.0,0.0,0.0,0.0,0.0,0.0,0.0,0.0,0.0,0.0,0.0,0.0,0.0,0.0,0.0,0.0,0.0,0.0,0.0,0.0,0.0,0.0,0.0,0.0,-2.9076,-3.1439,-3.3154,-3.343,-3.331,0.0,0.0,0.0,0.0,0.0,0.0,0.0,0.0,0.0,-4.2954,-4.3822,-4.5066,-4.6797,-4.7922,-4.8875,-4.9712,-5.0442,-5.126,-5.2106,-5.2106,-5.1895,-5.1548,-5.1548,-4.9952,-4.7124,-4.3932,-4.17,-4.0085,0.0,0.0,0.0,0.0,-3.7457,-3.7399,-3.9662,-3.9892,0.0,-3.8507,0.0,0.0,0.0,0.0,0.0,0.0,0.0,0.0,0.0,0.0,-3.9455,-3.993,-4.0049,-3.9863,-3.9148,-3.6964,-3.4321,0.0,-3.062,-2.9152,-2.5629,0.0,0.0,0.0,0.0,0.0,-3.3036,-3.544,-3.7422,-3.8579,-3.7257,-3.6303,-3.6303,-3.4761,-3.3458,-3.2656,-3.1513,-3.032,-2.906,-2.6859,-2.4685,0.0,0.0,0.0,0.0,0.0,0.0,0.0,0.0,0.0,0.0,0.0,0.0,0.0,0.0,0.0,0.0,0.0,0.0,0.0,0.0,0.0,0.0,0.0,0.0,0.0,0.0,0.0,0.0,-3.1731,-3.3581,-3.5497,-3.6457,-3.6605,0.0,0.0,0.0,0.0,0.0,0.0,-4.1226,-4.2864,-4.5105,-4.8077,-4.875,-4.9798,-5.1318,-5.1337,-5.1741,-5.2558,-5.2558,-5.301,-5.3837,-5.3837,-5.3741,-5.353,-5.353,-5.2702,-5.1048,-4.7432,-4.5201,-4.3874,-4.197,-4.07,-4.0123,-4.1604,-4.1758,-4.1623,-4.4335,-4.4605,-4.3566,-4.2489,0.0,-4.0373,-3.7865,0.0,0.0,0.0,0.0,-3.8287,-4.0031,-4.0415,-4.0574,-4.1512,-4.1717,-4.1645,-4.1444,-4.0946,-3.9313,0.0,-3.4931,-3.3922,-2.95,0.0,0.0,0.0,0.0,-3.3293,-3.4302,-3.6244,-3.7823,-3.8615,-3.7257,-3.6303,-3.6303,-3.4761,-3.3485,-3.2753,-3.1893,-3.0797,-2.9469,-2.8382,-2.6576,-2.396,0.0,0.0,0.0,0.0,0.0,0.0,0.0,0.0,0.0,0.0,0.0,0.0,0.0,0.0,0.0,0.0,0.0,0.0,0.0,0.0,0.0,0.0,0.0,0.0,0.0,0.0,0.0,0.0,0.0,-3.9031,-3.994,0.0,0.0,0.0,0.0,-4.0236,-4.2601,-4.4758,-4.6422,-4.8105,-4.9837,-5.1596,-5.1692,-5.2154,-5.3068,-5.3068,-5.351,-5.4376,-5.4376,-5.478,-5.5568,-5.5568,-5.5164,-5.4434,-5.4434,-5.3914,-5.2933,-5.1125,-4.8933,-4.6692,-4.6558,-4.599,-4.5325,-4.624,-4.6538,-4.6654,-4.7586,-4.6836,-4.5594,-4.6336,-4.4385,-4.1692,-4.1519,-4.0373,0.0,0.0,-4.0686,-4.1376,-4.2755,-4.2878,-4.2765,-4.3249,-4.3386,-4.3167,-4.2396,-4.2213,-4.1644,0.0,-3.7753,-3.5881,-3.4766,0.0,-3.2417,-3.2252,-3.3091,-3.4321,-3.5954,-3.696,-3.7823,-3.8615,-3.7257,-3.6303,-3.6303,-3.4761,-3.3558,-3.3008,-3.1986,-3.1132,-3.0544,-2.8769,-2.7365,-2.6437,-2.4088,0.0,0.0,0.0,0.0,0.0,0.0,0.0,0.0,0.0,0.0,0.0,0.0,0.0,0.0,0.0,0.0,0.0,0.0,0.0,0.0,0.0,0.0,0.0,0.0,0.0,0.0,0.0,0.0,-4.3211,-4.4744,0.0,-4.5024,-4.5604,-4.6078,-4.6257,-4.7608,-4.893,-5.0067,-5.176,-5.3183,-5.4318,-5.5434,-5.6184,-5.6492,-5.6492,-5.6646,-5.6953,-5.6953,-5.6799,-5.6541,-5.6541,-5.6069,-5.5261,-5.5261,-5.4799,-5.3991,-5.3395,-5.1645,-4.9279,-4.8721,-4.7971,-4.7259,-4.7567,-4.7682,-4.7721,-4.8009,-4.7721,-4.7163,-4.6971,-4.5701,-4.4239,-4.4239,-4.3825,-4.3421,-4.3709,-4.3918,-4.4126,-4.4391,-4.4203,-4.3933,-4.3838,-4.3662,-4.3423,-4.313,-4.3057,-4.2892,-4.234,-4.0689,-3.8634,-3.6248,-3.6229,-3.5807,-3.3697,-3.4981,-3.6409,-3.6997,-3.7771,-3.8377,-3.867,-3.7716,-3.6868,-3.634,-3.4761,-3.3498,-3.2803,-3.157,-3.055,-2.9779,-2.8744,-2.7494,-2.606,-2.4662,-2.2726,0.0,0.0,0.0,0.0,0.0,0.0,0.0,0.0,0.0,0.0,0.0,0.0,0.0,0.0,0.0,0.0,0.0,0.0,0.0,0.0,0.0,0.0,0.0,0.0,0.0,0.0,-4.3044,-4.5931,-4.7998,-4.9011,-4.8586,-4.9648,-5.0456,-5.0673,-5.1741,-5.2741,-5.3587,-5.4991,-5.603,-5.6549,-5.7703,-5.83,-5.83,-5.83,-5.83,-5.83,-5.83,-5.7992,-5.7434,-5.7434,-5.6953,-5.6137,-5.6137,-5.5665,-5.4895,-5.4895,-5.3741,-5.1895,-5.101,-5.0144,-4.9385,-4.9385,-4.9221,-4.8933,-4.8644,-4.8548,-4.8394,-4.7567,-4.674,-4.6028,-4.6028,-4.5825,-4.5594,-4.5594,-4.5594,-4.5513,-4.5191,-4.4849,-4.4501,-4.4106,-4.374,-4.3515,-4.3515,-4.3515,-4.3515,-4.3515,-4.2415,-4.0836,-3.8689,-3.8762,-3.8377,-3.6193,-3.7019,-3.7915,-3.7915,-3.8377,-3.8707,-3.8707,-3.7988,-3.718,-3.6358,-3.4761,-3.3532,-3.2913,-3.144,-3.0383,-2.9886,-2.8858,-2.7577,-2.6023,-2.4949,-2.356,-2.1863,0.0,0.0,0.0,0.0,0.0,0.0,0.0,0.0,0.0,0.0,0.0,0.0,0.0,0.0,0.0,0.0,0.0,0.0,0.0,0.0,0.0,0.0,0.0,-3.9848,-4.2737,-4.5496,-4.7198,-4.9568,-5.0681,-4.974,-5.1125,-5.2442,-5.3299,-5.4857,-5.6145,-5.7003,-5.7877,-5.8338,-5.8338,-5.8357,-5.8377,-5.8377,-5.8377,-5.8377,-5.8377,-5.8377,-5.8357,-5.8338,-5.8338,-5.7857,-5.7003,-5.7003,-5.6522,-5.5703,-5.5703,-5.5241,-5.4453,-5.3587,-5.2712,-5.1942,-5.1904,-5.1395,-5.0577,-4.9721,-4.9413,-4.926,-4.8413,-4.7586,-4.6923,-4.6904,-4.6317,-4.5633,-4.5614,-4.5594,-4.5513,-4.5191,-4.4849,-4.4501,-4.4106,-4.374,-4.3515,-4.3515,-4.3515,-4.3515,-4.3515,-4.2873,-4.2323,-4.2304,-4.1001,-3.9955,-3.9916,-3.9239,0.0,-3.8707,-3.8707,-3.8707,-3.8707,-3.7991,-3.7217,-3.6413,-3.4798,-3.371,-3.3387,-3.1626,-3.0699,-3.094,-2.9111,-2.7639,-2.6623,-2.5052,-2.4245,-2.4245,0.0,0.0,0.0,0.0,0.0,0.0,0.0,0.0,0.0,0.0,0.0,0.0,0.0,0.0,0.0,0.0,0.0,0.0,0.0,0.0,0.0,0.0,-4.3283,-4.3319,-4.6168,-4.914,-5.1541,-5.343,-5.466,-5.5028,-5.5952,-5.6646,-5.6876,-5.7319,-5.7684,-5.7934,-5.8723,-5.9165,-5.9165,-5.9781,-6.0108,-6.0108,-6.0108,-6.0108,-6.0108,-6.0108,-5.9781,-5.9165,-5.9165,-5.8377,-5.7003,-5.7003,-5.6522,-5.5703,-5.5703,-5.5568,-5.528,-5.4453,-5.3606,-5.2779,-5.2135,-5.1395,-5.0673,-5.0442,-4.9933,-4.9356,-4.9125,-4.8471,-4.7663,-4.7077,-4.674,-4.6413,-4.5787,-4.5594,-4.5513,-4.5191,-4.4849,-4.4501,-4.4106,-4.374,-4.3515,-4.3515,-4.3515,-4.3515,-4.3515,-4.3331,-4.2983,-4.2396,-4.1937,-4.124,-4.0065,-3.9698,0.0,-3.8781,-3.8707,-3.8707,-3.8707,-3.8505,-3.8028,-3.7235,-3.5642,-3.4149,-3.289,-3.1418,-3.0354,-2.98,-2.8839,-2.7838,-2.6849,-2.5666,-2.5062,0.0,0.0,0.0,0.0,0.0,0.0,0.0,0.0,0.0,0.0,0.0,0.0,0.0,0.0,0.0,0.0,0.0,0.0,0.0,0.0,0.0,0.0,-4.4624,-4.7294,-4.8353,-5.0157,-5.2207,-5.45,-5.5802,-5.6849,-5.7675,-5.8074,-5.8434,-5.8781,-5.88,-5.8954,-5.9338,-5.9781,-6.0031,-6.0031,-6.0531,-6.08,-6.08,-6.08,-6.08,-6.08,-6.08,-6.0531,-6.0031,-6.0031,-5.93,0.0,-5.7684,-5.7049,-5.6233,-5.5838,-5.5703,0.0,0.0,0.0,0.0,0.0,-5.1395,-5.0712,-5.0712,-5.0366,-4.9933,-4.9933,-4.9356,-4.8567,-4.8086,-4.7471,-4.6797,-4.6297,-4.5874,-4.5513,-4.5191,-4.4849,-4.4501,-4.4106,-4.374,-4.3515,-4.3515,-4.3515,-4.3515,-4.3515,-4.3515,0.0,-4.2873,-4.2525,-4.1974,-4.1038,-4.0322,-3.9717,-3.9258,-3.8909,-3.8707,-3.8707,-3.8707,-3.8377,-3.7566,-3.5973,0.0,0.0,0.0,-3.0573,-2.938,-2.8901,0.0,0.0,0.0,0.0,0.0,0.0,0.0,0.0,-2.5236,-2.5126,0.0,0.0,0.0,0.0,0.0,0.0,0.0,0.0,0.0,0.0,0.0,0.0,0.0,0.0,0.0,0.0,-4.8175,-5.1284,-5.375,-5.4186,-5.4832,-5.6385,-5.726,-5.7961,-5.8603,-5.8636,-5.8891,-5.9588,-5.9646,-5.9973,-6.0762,0.0,0.0,0.0,0.0,-6.08,-6.08,-6.08,-6.08,-6.08,-6.08,-6.08,-6.08,-6.08,-6.0319,-5.9454,-5.8742,-5.7896,-5.6945,-5.6175,-5.578,-5.5703,-5.5703,-5.5203,-5.4318,-5.275,-5.1625,-5.0846,-5.0846,0.0,0.0,-5.0712,-5.0183,-4.9529,-4.9433,-4.8355,-4.7135,-4.6942,-4.6336,-4.5647,-4.5167,-4.4806,-4.4487,-4.4046,-4.371,-4.3515,-4.3515,-4.3515,-4.3515,-4.3515,-4.3515,-4.3515,-4.3515,-4.291,-4.2396,-4.2304,-4.1075,-4.0102,-3.9918,-3.9276,-3.8799,-3.8707,0.0,0.0,-3.7694,-3.6193,-3.539,-3.5609,-3.3406,-3.1347,-2.9696,-2.9473,-2.9354,-2.9262,-2.9262,-2.9971,-3.1397,-3.1397,-3.1072,-3.043,-2.8191,-2.8223,0.0,0.0,0.0,0.0,0.0,0.0,0.0,0.0,0.0,0.0,0.0,0.0,0.0,0.0,0.0,-4.8499,-5.1279,-5.373,-5.5623,-5.661,-5.7225,-5.7576,-5.8812,-5.9681,-5.971,-6.0192,-6.05,-6.0554,-6.055,-6.0608,-6.0781,-6.08,-6.08,-6.08,-6.08,-6.08,-6.08,-6.08,-6.08,-6.08,0.0,0.0,-6.08,-6.08,-6.0319,-5.9492,-5.9338,-5.8415,-5.6983,-5.683,-5.6329,-5.5703,-5.5703,-5.5203,-5.4453,-5.4126,-5.301,-5.1673,-5.1673,-5.1241,-5.0712,-5.0712,-5.0596,-5.0327,-4.9606,-4.9163,0.0,-4.7278,-4.6778,-4.635,-4.5031,-4.4663,-4.4433,-4.3758,-4.3548,-4.3515,-4.3515,-4.3515,-4.3515,-4.3515,-4.3515,-4.3515,-4.3515,-4.3369,-4.3039,-4.2396,-4.2047,-4.1368,-4.0065,-3.9753,-3.9423,-3.8781,-3.8707,-3.8634,-3.8487,-3.7569,-3.686,-3.6478,-3.4794,-3.2976,-3.109,-3.1593,-3.1604,-3.0944,-3.0944,-3.1091,-3.1397,-3.1397,-3.1641,-3.2106,-3.0999,-3.0203,0.0,0.0,0.0,0.0,0.0,0.0,0.0,0.0,0.0,0.0,0.0,-4.1881,-4.3755,0.0,-4.9255,-5.153,-5.3769,-5.5654,-5.6962,-5.8318,-5.914,-5.914,-5.9763,-6.0313,-6.0614,-6.0849,-6.0935,-6.0804,-6.08,-6.08,-6.08,-6.08,-6.08,-6.08,-6.08,-6.08,-6.08,-6.08,-6.08,-6.08,-6.08,-6.08,-6.08,-6.08,-6.055,-6.0108,-5.9261,-5.8415,-5.7569,-5.6703,-5.6088,-5.5703,-5.5703,-5.5203,-5.4491,-5.4491,-5.3395,-5.1904,-5.1904,-5.1375,-5.0712,-5.0712,-5.0712,-5.0616,-5.0183,-4.974,-4.9125,-4.7855,-4.7212,-4.6551,-4.4996,-4.4593,-4.4406,-4.3681,-4.3515,-4.3515,-4.3515,-4.3629,-4.3758,-4.3758,-4.3915,-4.405,-4.405,-4.3884,-4.3564,-4.2981,-4.2561,-4.2011,-4.1203,-4.0396,-3.9753,-3.9331,-3.8946,-3.8707,-3.8707,-3.8091,-3.748,-3.6981,-3.6028,-3.4883,-3.3506,-3.3692,-3.3408,-3.2614,-3.2596,-3.2596,-3.2596,-3.3018,-3.3408,-3.3793,-3.3844,-3.3085,0.0,0.0,0.0,0.0,0.0,0.0,0.0,0.0,-4.0596,-4.2359,-4.4418,-4.6364,-4.7908,-5.0211,-5.2414,-5.409,-5.5757,-5.7207,-5.8242,-5.9551,-6.039,-6.039,-6.0428,-6.0687,-6.1242,-6.1128,-6.0935,-6.0804,-6.08,-6.08,-6.08,-6.08,-6.08,-6.08,-6.08,-6.08,-6.08,-6.08,-6.08,-6.08,-6.08,-6.08,-6.08,-6.08,-6.08,-6.0704,-5.9031,-5.83,-5.8165,-5.6415,-5.5703,-5.5703,-5.5703,-5.5299,-5.4722,-5.4722,-5.3645,-5.2154,-5.2154,-5.151,-5.0712,-5.0712,-5.0712,-5.0712,-5.0712,-5.0212,-4.9471,-4.8606,-4.7759,-4.6791,-4.5297,-4.4776,-4.4433,-4.3758,-4.3548,-4.3513,-4.358,-4.382,-4.4013,-4.4102,-4.4392,-4.4567,-4.4501,-4.4204,-4.3912,-4.3629,-4.2996,-4.2488,-4.2323,-4.1167,-4.0249,-3.9918,-3.9313,-3.8885,-3.8777,-3.85,-3.8068,-3.7473,-3.7181,-3.6646,-3.5776,-3.5425,-3.4949,-3.4302,-3.4284,-3.4284,-3.4284,-3.4931,-3.5261,-3.5261,-3.5973,-3.5569,-3.5107,-3.5985,-3.7383,-3.8926,-3.9961,-4.1621,0.0,0.0,-4.6702,-4.8467,-5.0104,-5.134,-5.1677,-5.3334,-5.5005,-5.6111,-5.7109,-5.8301,-5.9902,-6.0273,-6.039,-6.039,-6.0956,-6.1331,-6.1301,-6.1128,-6.0935,-6.0804,-6.08,-6.08,-6.08,-6.08,-6.08,-6.08,-6.08,-6.08,-6.08,-6.08,-6.08,-6.08,-6.08,-6.08,-6.08,-6.08,-6.08,-6.0704,-5.9031,-5.83,-5.8165,-5.6415,-5.5703,-5.5703,-5.5703,-5.5645,-5.5568,-5.5568,-5.4491,-5.3049,-5.3049,-5.201,-5.0712,-5.0712,-5.0712,-5.0712,-5.0712,-5.0635,-5.0366,-4.949,-4.8625,-4.7674,-4.6418,-4.5349,-4.4487,-4.4046,-4.371,-4.358,-4.3881,-4.3971,-4.4121,-4.4474,-4.4567,-4.4487,-4.4117,-4.4028,-4.3986,-4.3955,-4.3603,-4.3112,-4.2396,-4.2139,-4.1479,-4.0047,-3.9808,-3.9577,-3.9091,-3.9547,-3.9397,-3.8342,-3.823,-3.7716,-3.6603,-3.6311,-3.6101,-3.6009,-3.6009,-3.6009,-3.6009,-3.6101,-3.6156,-3.6156,-3.6248,-3.6193,-4.0688,-4.1069,0.0,0.0,-4.543,-4.6914,-4.8691,-4.9719,-5.0488,-5.1209,-5.2626,-5.3766,-5.3892,-5.4992,-5.6181,0.0,-5.8086,-5.9062,-6.0234,-6.039,-6.039,-6.039,-6.0088,-6.0049,-6.0511,-6.0475,-6.0517,-6.0777,-6.08,-6.08,-6.08,-6.08,-6.08,-6.08,-6.08,-6.08,-6.08,-6.08,-6.08,-6.08,-6.08,-6.08,-6.08,-6.08,-6.0512,-5.9973,-5.8819,-5.8011,-5.7453,-5.6203,-5.5703,-5.5703,-5.5703,-5.5703,-5.5703,-5.5703,-5.4953,-5.3953,-5.3953,-5.2837,-5.1395,-5.1395,-5.1087,-5.0712,-5.0712,-5.0712,-5.0519,-4.9644,-4.8779,-4.7818,-4.6615,-4.5609,-4.4793,-4.4447,-4.4237,-4.4165,-4.4323,-4.4508,-4.4688,-4.4861,-4.5044,-4.5066,-4.4701,-4.4482,-4.4261,-4.4046,-4.371,-4.3386,-4.3039,-4.2598,-4.1726,-4.0296,-4.0126,-3.9998,-3.9709,-3.9932,-3.9948,-3.9642,-3.9298,-3.8874,-3.8406,-3.7938,-3.7477,-3.7015,-3.6997,-3.6776,-3.6303,-3.6776,-3.6997,-3.7015,-3.7477,-3.7698,-4.3785,0.0,0.0,-4.7422,-4.9433,-5.0898,-5.0898,-5.2096,-5.3213,-5.3213,-5.4141,-5.4972,-5.5079,-5.5647,-5.6486,-5.7695,-5.8633,-5.9551,-6.0605,-6.0547,-6.0312,-6.0098,-5.9104,-5.8647,-5.9221,-5.9639,-6.0126,-6.0758,-6.08,-6.08,-6.08,-6.08,-6.08,-6.08,-6.08,-6.08,-6.08,-6.08,-6.08,-6.08,-6.08,-6.08,-6.08,-6.08,-6.0454,-5.98,-5.8742,-5.7934,-5.7261,-5.6165,-5.5703,-5.5703,-5.5703,-5.5703,-5.5703,-5.5703,-5.5184,-5.4491,-5.4491,-5.3356,-5.1904,-5.1904,-5.1356,-5.0712,-5.0712,-5.0712,-5.0577,-4.9933,-4.9125,-4.8203,-4.7093,-4.6116,-4.5308,-4.4838,-4.4657,-4.4637,-4.4726,-4.4931,-4.5137,-4.5222,-4.5352,-4.5352,-4.503,-4.467,-4.429,-4.3927,-4.3662,-4.3515,-4.3515,-4.2881,-4.2063,-4.1086,-4.0734,-4.0544,-4.0433,-4.0301,-4.025,-4.0381,-3.9884,-3.9564,-3.9481,-3.897,-3.8432,-3.7841,-3.7841,-3.7547,-3.6964,-3.7547,-3.7841,-3.786,-3.8432,-3.8707,0.0,0.0,-4.7695,-4.8633,-5.0762,-5.2617,-5.2617,-5.3871,-5.5023,-5.5023,-5.5059,-5.5098,-5.5098,-5.5222,-5.5898,-5.7617,-5.8633,-5.9785,-6.1426,-6.0937,-6.0117,-5.9336,-5.8359,-5.7661,0.0,-5.8711,-5.9881,-6.0742,-6.08,-6.08,-6.08,-6.08,-6.08,-6.08,-6.08,-6.08,-6.08,-6.08,-6.08,-6.08,-6.08,-6.08,-6.08,-6.08,-6.0781,-6.0666,-5.9011,-5.828,-5.8127,-5.6415,-5.5703,-5.5703,-5.5703,-5.5703,-5.5703,-5.5703,-5.5184,-5.4491,-5.4491,-5.3356,-5.1904,-5.1904,-5.1356,-5.0712,-5.0712,-5.0712,-5.0693,-5.0673,-5.0029,-4.9163,-4.8269,-4.7162,-4.6061,-4.5276,-4.4837,-4.4682,-4.5,-4.5085,-4.5201,-4.5513,-4.5332,-4.5019,-4.467,-4.4276,-4.3893,-4.3582,-4.3515,-4.3515,-4.3515,-4.3082,-4.2764,-4.2742,-4.1853,-4.1273,-4.1255,-4.0788,-4.0381,-4.0129,-3.9786,-3.945,-3.9139,-3.8859,-3.8689,-3.867,-3.867,-3.8652,-3.8634,-3.8652,-3.867,-3.867,-3.8689,-3.8707,0.0,0.0,-4.9805,-5.1797,-5.3359,-5.457,-5.5156,-5.5701,-5.5931,-5.5345,-5.4779,-5.4193,-5.3607,-5.3533,-5.4336,-5.666,-5.7773,-5.9121,-6.1387,-6.0957,-6.0057,-5.9101,-5.8623,0.0,0.0,0.0,0.0,-5.9831,-5.9935,-6.0185,-6.0762,-6.08,-6.08,-6.08,-6.08,-6.08,-6.08,-6.08,-6.08,-6.08,-6.08,-6.08,-6.08,-6.08,-6.08,-6.0742,-5.9588,-5.88,-5.8204,-5.703,-5.6233,-5.5703,-5.5703,-5.5703,-5.5703,-5.5703,-5.553,-5.5299,-5.5299,-5.4568,-5.353,-5.2953,-5.2202,-5.1395,-5.0856,-5.0712,-5.0712,-5.0712,-5.0067,-4.9336,-4.9048,-4.7838,-4.6637,-4.6359,-4.5763,-4.5283,-4.541,-4.5429,-4.5476,-4.5577,-4.5332,-4.4988,-4.4644,-4.4261,-4.3955,-4.3849,-4.3818,-4.3818,-4.3818,-4.3936,-4.386,-4.3509,-4.3156,-4.2602,-4.1709,-4.1467,-4.0995,-4.0158,-3.9786,-3.9438,-3.9107,-3.8844,-3.8707,-3.8707,-3.8707,-3.8707,-3.8707,-3.8707,-3.8707,-3.8707,-3.8707,-3.8707,0.0,-5.0215,-5.1641,-5.3906,-5.5117,-5.5918,-5.6465,-5.6367,-5.5898,-5.5019,-5.3887,-5.2812,-5.1953,-5.1816,-5.2656,-5.5254,-5.666,-5.832,-6.0879,-6.0701,-6.0082,-5.9441,-5.8939,0.0,0.0,0.0,0.0,-5.9831,-5.9954,-6.0204,-6.0762,-6.08,-6.08,-6.08,-6.08,-6.08,-6.08,-6.08,-6.08,-6.08,-6.08,-6.08,-6.08,-6.08,-6.08,-6.0742,-5.9877,-5.905,-5.8223,-5.7368,-5.6503,-5.5703,-5.5703,-5.5703,-5.5703,-5.5703,-5.5703,-5.5703,-5.5703,-5.5164,-5.4414,-5.3857,-5.2856,-5.1788,-5.1298,-5.0933,-5.0712,-5.0712,-5.0308,-4.9779,-4.9471,-4.8375,-4.7259,-4.6962,-4.622,-4.5594,-4.5594,-4.5594,-4.5594,-4.5594,-4.5332,-4.4988,-4.4644,-4.4165,-4.3865,-4.3986,-4.4117,-4.4204,-4.4204,-4.4535,-4.4652,-4.4301,-4.4083,-4.3637,-4.2761,-4.2431,-4.1897,-4.1045,-4.0786,-4.0335,-3.9605,-3.941,-3.9131,-3.8707,-3.8707,-3.8707,-3.8707,-3.8707,-3.8707,-3.8707,-3.8707,-3.8707,-4.9882,-5.1582,-5.3242,-5.4941,-5.5996,-5.6582,-5.6543,-5.5859,-5.4961,-5.4004,-5.2422,-5.0937,0.0,0.0,-5.0898,-5.3398,-5.5371,-5.748,-6.0039,-6.0311,-6.0249,0.0,0.0,0.0,0.0,0.0,0.0,-6.0685,0.0,-6.0742,-6.08,-6.08,-6.08,-6.08,-6.08,-6.08,-6.08,-6.08,-6.08,-6.08,-6.08,-6.08,-6.08,-6.08,-6.08,-6.0742,-5.9935,-5.9108,-5.83,-5.7415,-5.656,-5.5761,-5.5722,-5.5703,-5.5703,-5.5703,-5.5703,-5.5703,-5.5703,-5.5203,-5.4549,-5.4511,-5.3356,-5.1962,-5.1904,-5.1337,-5.0712,-5.0712,-5.0712,-5.0519,-4.9683,-4.8817,-4.7971,-4.7154,-4.6297,-4.5652,-4.5614,-4.5594,-4.5594,-4.5594,-4.5322,-4.4966,-4.4618,-4.3992,-4.3629,-4.3986,-4.4359,-4.4637,-4.4637,-4.4919,-4.5137,-4.5137,-4.4681,-4.4355,-4.4297,-4.3605,-4.2991,-4.263,-4.2591,-4.1965,-4.0555,-4.0476,-3.9946,-3.8866,-3.8817,-3.8836,-3.8836,-3.8836,-3.8836,-3.8836,-3.8836,-3.8836,-5.2383,-5.3828,-5.4902,-5.5996,-5.6445,-5.6426,-5.5781,-5.4961,-5.373,-5.1601,-4.9785,-4.791,0.0,0.0,0.0,-5.0859,-5.4219,0.0,-6.0039,-6.084,0.0,0.0,0.0,-6.0074,-5.9316,-5.9807,0.0,0.0,-6.0204,-6.0108,-6.0762,-6.08,-6.08,-6.08,-6.08,-6.08,-6.08,-6.08,-6.08,-6.08,-6.08,-6.08,-6.08,-6.08,-6.08,-6.0781,-6.0569,-5.9973,-5.9127,-5.8319,-5.7453,-5.6599,-5.5953,-5.5703,-5.5703,-5.5703,-5.5703,-5.5703,-5.5703,-5.5568,-5.5299,-5.4684,-5.376,-5.276,-5.2096,-5.1337,-5.0712,-5.0712,-5.0712,-5.0654,-5.0442,-4.9721,-4.8856,-4.8009,-4.7182,-4.6394,-4.5748,-4.5594,-4.5594,-4.5594,-4.5129,-4.4606,-4.4219,-4.4001,-4.4001,-4.4392,-4.4745,-4.4966,-4.4966,-4.5282,-4.5457,-4.5457,-4.5348,-4.5017,-4.4355,-4.4105,-4.3595,-4.2668,-4.2591,-4.2319,-4.1688,-4.1434,-4.1152,-4.0866,-4.0609,-4.049,-4.049,-4.049,-4.049,-4.049,-4.049,-4.049,-5.3965,-5.5215,-5.5996,-5.6484,-5.6308,-5.5703,-5.4433,-5.3203,-5.1484,-4.8535,-4.6836,0.0,0.0,0.0,0.0,0.0,0.0,0.0,-5.8945,-6.0525,-6.1203,0.0,-6.0757,0.0,-6.0131,-6.0512,-6.08,0.0,-6.0339,-6.0281,-6.0762,-6.08,-6.08,-6.08,-6.08,-6.08,-6.08,-6.08,-6.08,-6.08,-6.08,-6.08,-6.08,-6.08,-6.08,-6.08,0.0,-6.03,-5.9454,-5.9011,-5.8088,-5.6945,-5.6464,-5.603,-5.5703,-5.5703,-5.5703,-5.5703,-5.5703,-5.5703,-5.5626,-5.5164,-5.4203,-5.3106,-5.2615,-5.1645,-5.0712,-5.0712,-5.0712,-5.0712,-5.0712,-5.0048,-4.9279,-4.8798,-4.7759,-4.6778,-4.6278,-4.5883,-4.5594,-4.5594,-4.5191,-4.4745,-4.4521,-4.4359,-4.4387,-4.4757,-4.4977,-4.514,-4.5302,-4.5485,-4.5594,-4.5594,-4.5594,-4.5402,-4.4913,-4.4874,-4.46,-4.3953,-4.3925,-4.3606,-4.291,-4.2536,-4.2108,-4.1619,-4.128,-4.1095,-4.1095,-4.1095,-4.1095,-4.1095,-4.1095,-4.1095,-5.5137,-5.6113,-5.6621,-5.6738,-5.5937,-5.4668,-5.293,-5.1035,-4.8711,-4.5351,0.0,0.0,-4.1133,0.0,-4.4551,-4.7168,0.0,-5.4941,-5.7655,-5.9813,-6.1161,-6.1259,-6.0983,-6.08,-6.08,-6.08,-6.08,-6.08,-6.08,-6.08,-6.08,-6.08,-6.08,-6.08,-6.08,-6.08,-6.08,-6.08,-6.08,-6.08,-6.08,-6.08,-6.08,-6.08,-6.08,-6.08,-6.08,0.0,-5.9665,-5.9435,-5.8473,-5.7157,-5.6926,-5.6368,-5.5703,-5.5703,-5.5703,-5.5703,-5.5703,-5.5703,-5.5703,-5.5703,-5.4568,-5.3203,-5.3203,-5.2029,-5.0712,-5.0712,-5.0712,-5.0712,-5.0712,-5.0144,-4.9529,-4.9433,-4.8298,-4.7182,-4.6942,-4.622,-4.5594,-4.5594,-4.5332,-4.5096,-4.5096,-4.4861,-4.4776,-4.5063,-4.5148,-4.5263,-4.5568,-4.5594,-4.5594,-4.5594,-4.5594,-4.5594,-4.5594,-4.5594,-4.5594,-4.5594,-4.5594,-4.515,-4.41,-4.3675,-4.2966,-4.194,-4.1594,-4.1407,-4.1407,-4.1407,-4.1407,-4.1407,-4.1407,-4.1407,-5.6777,-5.7031,-5.6777,-5.748,-5.5937,-5.3769,-5.2012,-4.9175,0.0,0.0,0.0,-4.0123,-3.9218,-4.1601,0.0,-4.7168,0.0,0.0,0.0,0.0,-6.043,0.0,0.0,0.0,0.0,0.0,0.0,0.0,0.0,-6.08,-6.08,-6.08,-6.08,-6.08,-6.08,-6.08,-6.08,-6.08,-6.08,-6.08,-6.08,-6.08,-6.08,-6.08,-6.08,-6.08,-6.08,0.0,-6.0473,-5.9088,-5.8338,-5.7934,-5.6492,-5.5818,-5.5703,-5.5703,-5.5703,-5.5703,-5.5703,-5.5703,-5.5703,-5.5703,-5.4568,-5.3203,-5.3203,-5.2029,-5.0712,-5.0712,-5.0712,-5.0712,-5.0712,-5.0596,-5.0289,-4.9567,-4.9183,-4.8586,-4.7201,-4.622,-4.5594,-4.5594,-4.5332,-4.5096,-4.5096,-4.5052,-4.5041,-4.5085,-4.5332,-4.5522,-4.5586,-4.5594,-4.5594,-4.5594,-4.5594,-4.5594,-4.5594,-4.5594,-4.5594,-4.5594,-4.5594,-4.539,-4.4908,-4.4561,-4.4119,-4.3588,-4.3254,-4.3075,-4.3075,-4.3075,-4.3075,-4.3075,-4.3075,-4.3075,-5.6528,-5.6871,-5.6699,-5.7129,-5.5254,-5.2734,-5.0502,0.0,0.0,0.0,0.0,-3.8068,-3.733,0.0,0.0,0.0,0.0,0.0,0.0,0.0,0.0,0.0,0.0,0.0,0.0,0.0,0.0,0.0,0.0,-6.08,-6.08,-6.08,-6.08,-6.08,-6.08,-6.08,-6.08,-6.08,-6.08,-6.08,-6.08,-6.08,-6.08,-6.08,-6.08,-6.08,-6.08,0.0,-6.0704,-5.9435,-5.8684,-5.8165,-5.6876,-5.6088,-5.5703,-5.5703,-5.5703,-5.5703,-5.5703,-5.5703,-5.5703,-5.5703,-5.4568,-5.3203,-5.3203,-5.2029,-5.0712,-5.0712,-5.0712,-5.0712,-5.0712,-5.0712,-5.0596,-5.0192,-4.9721,-4.8933,-4.7259,-4.6567,-4.6144,-4.5691,-4.5476,-4.5352,-4.5352,-4.5352,-4.5352,-4.5352,-4.5495,-4.5594,-4.5594,-4.5594,-4.5594,-4.5594,-4.5594,-4.5594,-4.5594,-4.5594,-4.5594,-4.5594,-4.5594,-4.5448,-4.5107,-4.4788,-4.4419,-4.4016,-4.3679,-4.3515,-4.3515,-4.3515,-4.3515,-4.3515,-4.3515,-4.3515,-5.5822,-5.6456,-5.6598,-5.6749,-5.4566,-5.1733,-4.9235,-4.5701,0.0,0.0,0.0,-3.6589,-3.6243,0.0,0.0,0.0,0.0,0.0,0.0,0.0,0.0,0.0,0.0,0.0,0.0,0.0,0.0,0.0,0.0,0.0,-6.08,-6.08,-6.08,-6.08,-6.08,-6.08,-6.08,-6.08,-6.08,-6.08,-6.08,-6.08,-6.08,-6.08,-6.08,-6.08,-6.08,0.0,0.0,-5.9608,-5.8761,-5.7934,-5.7049,-5.631,-5.5703,-5.5703,-5.5703,-5.5703,-5.5703,-5.5703,-5.5703,-5.5703,-5.4684,-5.3491,-5.3491,-5.2299,-5.0952,-5.0952,-5.0827,-5.0712,-5.0712,-5.0712,-5.0712,-5.0712,-5.0029,-4.9048,-4.7721,-4.7154,-4.6701,-4.6009,-4.5729,-4.5594,-4.5594,-4.5594,-4.5594,-4.5594,-4.5594,-4.5594,-4.5594,-4.5594,-4.5594,-4.5594,-4.5594,-4.5594,-4.5594,-4.5594,-4.5594,-4.5594,-4.5594,-4.5419,-4.5019,-4.4751,-4.4378,-4.3912,-4.3629,-4.3515,-4.3515,-4.3515,-4.3515,-4.3515,-4.3515,-4.3515,-5.5526,-5.6324,-5.6562,-5.718,-5.4343,-5.0928,-4.8966,0.0,0.0,0.0,-3.6936,-3.6015,-3.69,0.0,0.0,0.0,0.0,0.0,0.0,0.0,0.0,0.0,0.0,0.0,0.0,0.0,0.0,0.0,0.0,0.0,-6.08,-6.08,-6.08,-6.08,-6.08,-6.08,-6.08,-6.08,-6.08,-6.08,-6.08,-6.08,-6.08,-6.08,-6.08,-6.08,-6.08,0.0,0.0,-5.8742,-5.7896,-5.7041,-5.6145,-5.5761,-5.5703,-5.5703,-5.5703,-5.5703,-5.5703,-5.5703,-5.5703,-5.5703,-5.5107,-5.4376,-5.4376,-5.3164,-5.1788,-5.1788,-5.126,-5.0712,-5.0712,-5.0712,-5.0712,-5.0712,-5.0029,-4.9356,-4.9202,-4.7971,-4.6885,-4.6797,-4.6144,-4.5594,-4.5594,-4.5594,-4.5594,-4.5594,-4.5594,-4.5594,-4.5594,-4.5594,-4.5594,-4.5594,-4.5594,-4.5594,-4.5594,-4.5594,-4.5594,-4.5594,-4.5594,-4.5303,-4.467,-4.4624,-4.4266,-4.3565,-4.3513,-4.3515,-4.3515,-4.3515,-4.3515,-4.3515,-4.3515,-4.3515,-5.3968,-5.5378,-5.6221,-5.5959,-5.3511,-5.0559,-4.8208,0.0,0.0,-3.8481,-3.6734,-3.5676,-3.6157,-3.6953,0.0,0.0,0.0,0.0,0.0,0.0,0.0,0.0,0.0,0.0,0.0,0.0,0.0,0.0,0.0,0.0,-6.08,-6.08,-6.08,-6.08,-6.08,-6.08,-6.08,-6.08,-6.08,-6.08,-6.08,-6.08,-6.08,-6.08,-6.08,-6.08,-6.08,0.0,0.0,-5.8627,-5.778,-5.6907,-5.603,-5.5749,-5.5825,-5.5825,-5.5894,-5.6005,-5.6005,-5.6005,-5.599,-5.5851,-5.5593,-5.5238,-5.4678,-5.328,-5.1904,-5.1904,-5.1318,-5.0712,-5.0712,-5.0712,-5.0712,-5.0712,-5.0442,-5.0029,-4.951,-4.8471,-4.749,-4.6981,-4.6201,-4.5594,-4.5594,-4.5594,-4.5594,-4.5594,-4.5594,-4.5594,-4.5594,-4.5594,-4.5594,-4.5594,-4.5594,-4.5594,-4.5594,-4.5594,-4.5594,-4.5594,-4.541,-4.5191,-4.4908,-4.4468,-4.4106,-4.3804,-4.3614,-4.3515,-4.3515,-4.3515,-4.3515,-4.3515,-4.3515,-4.3515,-5.202,-5.3771,-5.4898,-5.4498,-5.2517,-5.0012,0.0,0.0,-4.014,-3.8371,-3.6673,-3.5515,-3.5585,-3.6138,-3.727,0.0,0.0,0.0,0.0,0.0,0.0,0.0,0.0,0.0,0.0,0.0,0.0,0.0,0.0,0.0,0.0,-6.0819,-6.08,-6.08,-6.08,-6.08,-6.08,-6.08,-6.08,-6.08,-6.08,-6.08,-6.08,-6.08,-6.08,-6.08,-6.08,0.0,0.0,-5.8531,-5.7627,-5.656,-5.5989,-5.5816,-5.5904,-5.5966,-5.6078,-5.6191,-5.6191,-5.6191,-5.6175,-5.6038,-5.5951,-5.5775,-5.5113,-5.3686,-5.2269,-5.2269,-5.1529,-5.0712,-5.0712,-5.0712,-5.0712,-5.0712,-5.0712,-5.0539,-4.9913,-4.9106,-4.824,-4.7413,-4.6567,-4.5893,-4.5633,-4.5594,-4.5594,-4.5594,-4.5594,-4.5594,-4.5594,-4.5594,-4.5594,-4.5594,-4.5594,-4.5594,-4.5594,-4.5594,-4.5594,-4.5594,-4.539,-4.5201,-4.5096,-4.46,-4.4214,-4.3998,-4.3756,-4.3597,-4.3515,-4.3515,-4.3515,-4.3515,-4.3515,-4.3515,-4.9808,-5.1423,-5.2311,-5.3051,-5.1404,-4.9144,0.0,-4.3574,-4.0035,-3.8354,-3.6673,-3.5515,-3.5585,-3.5611,-3.652,-3.9249,0.0,0.0,0.0,0.0,0.0,0.0,0.0,0.0,0.0,0.0,0.0,0.0,0.0,0.0,0.0,-6.0871,-6.08,-6.08,-6.08,-6.08,-6.08,-6.08,-6.08,-6.08,-6.08,-6.08,-6.08,-6.08,-6.08,0.0,0.0,0.0,0.0,-5.83,-5.728,-5.5735,-5.5851,-5.5896,-5.5928,-5.6115,-5.6191,-5.6191,-5.6191,-5.6191,-5.6191,-5.6191,-5.6058,-5.5896,-5.5896,-5.462,-5.3203,-5.3203,-5.1991,-5.0712,-5.0712,-5.0712,-5.0712,-5.0712,-5.0712,-5.0712,-5.0693,-4.999,-4.9125,-4.8259,-4.7451,-4.6605,-4.5748,-4.5594,-4.5594,-4.5594,-4.5594,-4.5594,-4.5594,-4.5594,-4.5594,-4.5594,-4.5594,-4.5594,-4.5594,-4.5594,-4.5594,-4.5594,-4.5594,-4.5438,-4.5107,-4.5085,-4.4757,-4.3998,-4.4001,-4.3818,-4.3515,-4.3515,-4.3515,-4.3515,-4.3515,-4.3515,-4.6028,-4.8246,-4.9889,-4.8383,-4.7426,-4.6254,-4.3948,-4.1489,-3.9188,-3.7469,-3.625,-3.552,-3.5534,-3.556,-3.6648,-3.9854,-4.0493,0.0,0.0,0.0,0.0,0.0,0.0,0.0,0.0,0.0,0.0,0.0,0.0,0.0,0.0,-6.0819,-6.08,-6.08,-6.08,-6.08,-6.08,-6.08,-6.08,-6.08,-6.08,-6.08,-6.08,-6.08,-6.08,0.0,0.0,0.0,0.0,-5.7665,-5.6742,-5.5716,-5.5851,-5.5988,-5.6121,-5.6273,-5.6389,-5.6463,-5.6463,-5.6463,-5.6458,-5.6371,-5.6237,-5.6078,-5.5944,-5.5045,-5.3837,-5.2654,-5.1529,-5.0712,-5.0712,-5.0712,-5.0712,-5.0712,-5.0712,-5.0712,-5.0712,-5.001,-4.9144,-4.8279,-4.7451,-4.6624,-4.5748,-4.5594,-4.5594,-4.5594,-4.5594,-4.5594,-4.5594,-4.5594,-4.5594,-4.5594,-4.5594,-4.5594,-4.5594,-4.5594,-4.5594,-4.5594,-4.5371,-4.5312,-4.5429,-4.5,-4.4644,-4.4401,-4.4132,-4.3852,-4.3515,-4.3515,-4.3515,-4.3515,-4.3515,-4.3515,0.0,-4.5393,-4.6797,-4.5845,-4.5114,-4.4162,-4.2239,-4.0258,-3.8414,-3.7051,-3.6119,-3.554,-3.5566,-3.5611,-3.655,-3.9391,-4.0207,0.0,0.0,0.0,0.0,0.0,0.0,0.0,0.0,0.0,0.0,0.0,0.0,0.0,0.0,-6.08,-6.08,-6.08,-6.08,-6.08,-6.08,-6.08,-6.08,-6.08,-6.08,-6.08,-6.08,-6.08,-6.0608,0.0,0.0,0.0,0.0,-5.7282,-5.6551,-5.5798,-5.6017,-5.6172,-5.6297,-5.6424,-5.6535,-5.6601,-5.6601,-5.6601,-5.6582,-5.649,-5.6342,-5.6094,-5.5543,-5.4718,-5.3645,-5.1933,-5.1087,-5.0712,-5.0712,-5.0712,-5.0712,-5.0712,-5.0712,-5.0712,-5.0712,-5.0269,-4.9625,-4.8759,-4.7932,-4.7086,-4.624,-4.5825,-4.5594,-4.5594,-4.5594,-4.5594,-4.5594,-4.5594,-4.5594,-4.5594,-4.5594,-4.5594,-4.5594,-4.5594,-4.5594,-4.5594,-4.541,-4.5371,-4.5586,-4.5192,-4.4919,-4.4781,-4.4414,-4.4046,-4.3677,-4.3546,-4.3515,-4.3515,-4.3515,-4.3515,0.0,-4.2604,-4.3104,-4.4594,-4.3835,-4.2508,-4.1635,-3.9604,0.0,-3.6955,-3.6156,-3.5655,-3.5834,-3.5833,-3.6466,-3.8506,-3.9476,0.0,0.0,0.0,0.0,0.0,0.0,0.0,0.0,0.0,0.0,0.0,0.0,0.0,0.0,-6.0812,-6.08,-6.08,-6.08,-6.08,-6.08,-6.08,-6.08,-6.08,-6.08,-6.08,-6.08,-6.0742,-6.0262,0.0,0.0,0.0,0.0,-5.7106,-5.6656,-5.5939,-5.6262,-5.6408,-5.6419,-5.6559,-5.6601,-5.6601,-5.6601,-5.6601,-5.6601,-5.6582,-5.6416,-5.5985,-5.4775,-5.3858,-5.2856,-5.1241,-5.075,-5.0712,-5.0712,-5.0712,-5.0712,-5.0712,-5.0712,-5.0712,-5.0712,-5.0712,-5.0442,-4.9567,-4.8759,-4.7932,-4.7038,-4.622,-4.5671,-4.5614,-4.5594,-4.5594,-4.5594,-4.5594,-4.5594,-4.5594,-4.5594,-4.5594,-4.5594,-4.5594,-4.5594,-4.5594,-4.5594,-4.5594,-4.5594,-4.5594,-4.5438,-4.5107,-4.4732,-4.4359,-4.4001,-4.3662,-4.3515,-4.3515,-4.3515,-4.3515,-3.5795,0.0,-3.9123,-3.8854,-3.9008,-3.8969,0.0,-3.7442,-3.6783,-3.5997,0.0,0.0,-3.7347,-3.7075,-3.8063,0.0,0.0,0.0,0.0,0.0,0.0,0.0,0.0,0.0,0.0,0.0,0.0,0.0,0.0,0.0,0.0,-6.0847,-6.08,-6.08,-6.08,-6.08,-6.08,-6.08,-6.08,-6.08,-6.08,-6.08,-6.0781,-6.0108,-5.9685,0.0,0.0,0.0,-5.7114,-5.6627,-5.6309,-5.6158,-5.6331,-5.6408,-5.6419,-5.6559,-5.6601,-5.6601,-5.6601,-5.6601,-5.6582,-5.6484,-5.6331,-5.5886,-5.4177,-5.3445,-5.2991,-5.1933,-5.1164,-5.0712,-5.0712,-5.0712,-5.0712,-5.0712,-5.0712,-5.0712,-5.0712,-5.0712,-5.0442,-4.9567,-4.9221,-4.8625,-4.7154,-4.674,-4.6374,-4.571,-4.5594,-4.5594,-4.5594,-4.5594,-4.5594,-4.5594,-4.5594,-4.5594,-4.5594,-4.5594,-4.5594,-4.5594,-4.5594,-4.5594,-4.5594,-4.5594,-4.5438,-4.5107,-4.4468,-4.4087,-4.4001,-4.3662,-4.3515,-4.3515,-4.3515,-4.3515,-3.2814,-3.5468,-3.7988,-3.7911,-3.8257,-3.8469,-3.8007,0.0,0.0,0.0,0.0,0.0,0.0,0.0,0.0,0.0,0.0,0.0,0.0,0.0,0.0,0.0,0.0,0.0,0.0,0.0,0.0,0.0,0.0,0.0,0.0,-6.0871,-6.08,-6.08,-6.08,-6.08,-6.08,-6.08,-6.0589,-6.0204,-6.0204,-6.0012,-5.9646,-5.9165,-5.8751,0.0,0.0,0.0,-5.6731,-5.6422,-5.6297,-5.6309,-5.645,-5.6488,-5.651,-5.6562,-5.6601,-5.6601,-5.6601,-5.6601,-5.6581,-5.643,-5.6342,-5.5935,-5.3992,-5.3354,-5.302,-5.1722,-5.1029,-5.0712,-5.0712,-5.0712,-5.0712,-5.0712,-5.0712,-5.0712,-5.0712,-5.0712,-5.0558,-5.0087,-4.9663,-4.9106,-4.8202,-4.7721,-4.7182,-4.6317,-4.6201,-4.6047,-4.5652,-4.5594,-4.5594,-4.5594,-4.5594,-4.5594,-4.5594,-4.5594,-4.5594,-4.5594,-4.5594,-4.5594,-4.5594,-4.5594,-4.5362,-4.4884,-4.4468,-4.4106,-4.3772,-4.3597,-4.3515,-4.3515,-4.3515,-4.3515,-3.1775,-3.4988,-3.8111,-3.8609,-3.904,-3.9271,-3.9155,0.0,0.0,0.0,0.0,0.0,0.0,0.0,0.0,0.0,0.0,0.0,0.0,0.0,0.0,0.0,0.0,0.0,0.0,0.0,0.0,0.0,0.0,0.0,0.0,-6.0915,-6.0831,-6.0831,-6.067,-6.0589,-6.0589,-6.0589,-6.0223,-5.9492,-5.9377,-5.8954,-5.83,-5.819,-5.7796,-5.7193,0.0,0.0,-5.6232,-5.6377,-5.6426,-5.645,-5.656,-5.6601,-5.6601,-5.6601,-5.6601,-5.6601,-5.6601,-5.6601,-5.6581,-5.6479,-5.6419,-5.6033,-5.4032,-5.3432,-5.3015,-5.1211,-5.0712,-5.0712,-5.0712,-5.0712,-5.0712,-5.0712,-5.0712,-5.0712,-5.0712,-5.0712,-5.0712,-5.0712,-5.0087,-4.9548,-4.9413,-4.8798,-4.8029,-4.7212,-4.7077,-4.6817,-4.6075,-4.5883,-4.5806,-4.5806,-4.5691,-4.5594,-4.5594,-4.5594,-4.5594,-4.5594,-4.5594,-4.5594,-4.5594,-4.5594,-4.5342,-4.4757,-4.4695,-4.4337,-4.3681,-4.3614,-4.3548,-4.3515,-4.3515,-4.3515,-3.3179,-3.5853,-3.7704,-3.6472,-3.7796,-3.9209,-3.8512,0.0,0.0,0.0,0.0,0.0,0.0,0.0,0.0,0.0,0.0,0.0,0.0,0.0,0.0,0.0,0.0,0.0,0.0,0.0,0.0,0.0,0.0,0.0,0.0,-6.1126,-6.0962,-6.0962,-6.0145,-5.9704,-5.9704,-5.9704,-5.9627,-5.9492,-5.8819,-5.8415,-5.828,-5.7641,-5.7314,-5.7171,0.0,-5.6455,-5.6377,-5.6514,-5.6561,-5.6561,-5.6582,-5.6601,-5.6601,-5.6601,-5.6601,-5.6601,-5.6601,-5.6601,-5.6601,-5.6581,-5.6488,-5.6043,-5.4139,-5.3495,-5.3015,-5.1211,-5.0712,-5.0712,-5.0712,-5.0712,-5.0712,-5.0712,-5.0712,-5.0712,-5.0712,-5.0712,-5.0712,-5.0712,-5.0596,-5.0269,-4.9529,-4.9298,-4.8913,-4.8048,-4.7932,-4.7875,-4.774,-4.7124,-4.6701,-4.6701,-4.6028,-4.5594,-4.5594,-4.5594,-4.5594,-4.5594,-4.5594,-4.5594,-4.5594,-4.5594,-4.5559,-4.5448,-4.518,-4.4837,-4.4433,-4.4091,-4.3772,-4.3515,-4.3515,-4.3515,-3.1833,-3.4353,-3.6594,-3.6369,-3.89,-4.1377,-4.1077,0.0,0.0,0.0,0.0,0.0,0.0,0.0,0.0,0.0,0.0,0.0,0.0,0.0,0.0,0.0,0.0,0.0,0.0,0.0,0.0,0.0,0.0,0.0,0.0,0.0,-6.0145,-5.9652,-5.9125,-5.8858,-5.8858,-5.8377,-5.8146,-5.8127,-5.7761,-5.7394,-5.6995,-5.6639,-5.6599,-5.6752,0.0,-5.645,-5.6512,-5.6562,-5.656,-5.651,-5.6561,-5.656,-5.649,-5.6562,-5.6601,-5.6601,-5.6601,-5.6559,-5.6488,-5.6488,-5.6082,-5.5329,-5.3913,-5.3125,-5.2415,-5.1076,-5.0712,-5.0712,-5.0712,-5.0712,-5.0712,-5.0712,-5.0712,-5.0712,-5.0712,-5.0712,-5.0712,-5.0712,-5.0712,-5.0577,-5.0164,-5.0087,-4.9798,-4.8933,-4.8798,-4.8625,-4.8163,-4.7778,-4.7394,-4.6942,-4.6547,-4.6105,-4.5633,-4.5594,-4.5594,-4.5594,-4.5594,-4.5594,-4.5594,-4.5594,-4.5513,-4.5332,-4.518,-4.4931,-4.4593,-4.4209,-4.3909,-4.3775,-4.358,-4.3515,-3.1423,-3.3519,-3.5823,-3.7144,0.0,-4.2546,-4.3452,0.0,0.0,0.0,0.0,0.0,0.0,0.0,0.0,0.0,0.0,0.0,0.0,0.0,0.0,0.0,0.0,0.0,0.0,0.0,0.0,0.0,0.0,0.0,0.0,0.0,-5.9254,-5.8612,-5.8239,-5.8063,-5.8085,-5.7246,-5.6878,-5.7003,-5.6816,-5.6445,-5.5904,-5.5976,-5.6158,-5.6391,-5.6426,-5.6511,-5.6601,-5.6601,-5.6538,-5.6454,-5.6535,-5.6488,-5.6416,-5.6514,-5.6562,-5.6601,-5.6561,-5.6486,-5.6386,-5.6368,-5.5825,-5.4989,-5.3771,-5.2918,-5.2164,-5.1019,-5.0712,-5.0712,-5.0712,-5.0712,-5.0712,-5.0712,-5.0712,-5.0712,-5.0712,-5.0712,-5.0712,-5.0712,-5.0712,-5.0712,-5.0712,-5.0712,-5.0481,-4.9798,-4.9702,-4.9452,-4.8798,-4.8529,-4.8163,-4.7548,-4.7135,-4.6547,-4.5671,-4.5594,-4.5594,-4.5594,-4.5594,-4.5594,-4.5594,-4.5594,-4.5485,-4.5222,-4.5222,-4.5052,-4.4726,-4.4414,-4.4219,-4.4132,-4.3884,-4.3712,-3.4481,-3.5308,-3.6093,-3.8606,-3.9448,0.0,-4.3711,-4.318,0.0,0.0,0.0,0.0,0.0,0.0,0.0,0.0,0.0,0.0,0.0,0.0,0.0,0.0,0.0,0.0,0.0,0.0,0.0,0.0,0.0,0.0,0.0,0.0,0.0,-5.8864,-5.7839,-5.7343,-5.7455,-5.6664,-5.6517,-5.6983,-5.6317,-5.5946,-5.5912,-5.6227,-5.638,-5.6414,-5.6536,-5.6582,-5.6601,-5.6601,-5.6582,-5.6562,-5.6456,-5.6414,-5.6391,-5.6416,-5.6488,-5.6581,-5.6456,-5.6414,-5.6377,-5.6246,-5.6163,-5.5781,-5.3945,-5.3363,-5.2938,-5.1192,-5.0712,-5.0712,-5.0712,-5.0712,-5.0712,-5.0712,-5.0712,-5.0712,-5.0712,-5.0712,-5.0712,-5.0712,-5.0712,-5.0712,-5.0712,-5.0712,-5.0673,-5.0616,-5.0616,-5.0577,-5.0519,-4.9798,-4.9279,-4.9221,-4.7836,-4.6547,-4.5671,-4.5594,-4.5594,-4.5594,-4.5594,-4.5594,-4.5594,-4.5594,-4.5586,-4.5568,-4.5568,-4.54,-4.5063,-4.5022,-4.4872,-4.4553,-4.4527,-4.4323,-3.2686,-3.391,-3.5315,-3.788,-3.9302,0.0,0.0,0.0,0.0,0.0,0.0,0.0,0.0,0.0,0.0,0.0,0.0,0.0,0.0,0.0,0.0,0.0,0.0,0.0,0.0,0.0,0.0,0.0,0.0,0.0,0.0,0.0,0.0,-5.7364,-5.6855,-5.6595,-5.6658,-5.6347,-5.6309,-5.6505,-5.6226,-5.6133,-5.6222,-5.6342,-5.6452,-5.6535,-5.6581,-5.6601,-5.6601,-5.6601,-5.649,-5.6335,-5.6153,-5.6172,-5.6284,-5.6284,-5.6368,-5.6456,-5.632,-5.6284,-5.6246,-5.6078,-5.5626,-5.4903,-5.3656,-5.2895,-5.2221,-5.1029,-5.0712,-5.0712,-5.0712,-5.0712,-5.0712,-5.0712,-5.0712,-5.0712,-5.0712,-5.0712,-5.0712,-5.0712,-5.0712,-5.0712,-5.0712,-5.0712,-5.0712,-5.0712,-5.0712,-5.0712,-5.0712,-5.0423,-4.999,-4.9452,-4.7894,-4.6778,-4.6432,-4.5913,-4.5594,-4.5594,-4.5594,-4.5594,-4.5594,-4.5594,-4.5594,-4.5594,-4.5594,-4.555,-4.541,-4.5201,-4.5041,-4.4908,-4.4714,-4.4514,-3.193,-3.3314,-3.5161,0.0,0.0,0.0,0.0,0.0,0.0,0.0,0.0,0.0,0.0,0.0,0.0,0.0,0.0,0.0,0.0,0.0,0.0,0.0,0.0,0.0,0.0,0.0,0.0,0.0,0.0,0.0,0.0,0.0,0.0,0.0,-5.6328,-5.6273,-5.6324,-5.6324,-5.6324,-5.6324,-5.6324,-5.6342,-5.6391,-5.643,-5.6512,-5.6601,-5.6601,-5.6601,-5.6601,-5.6601,-5.6432,-5.6181,-5.5981,-5.5988,-5.6116,-5.6116,-5.6237,-5.638,-5.6257,-5.6191,-5.6169,-5.5966,-5.5266,-5.4337,-5.3472,-5.2577,-5.1731,-5.0933,-5.0712,-5.0712,-5.0712,-5.0712,-5.0712,-5.0712,-5.0712,-5.0712,-5.0712,-5.0712,-5.0712,-5.0712,-5.0712,-5.0712,-5.0712,-5.0712,-5.0712,-5.0712,-5.0712,-5.0712,-5.0712,-5.0712,-5.0366,-4.949,-4.8375,-4.749,-4.6942,-4.6355,-4.5893,-4.5614,-4.5594,-4.5594,-4.5594,-4.5594,-4.5594,-4.5594,-4.5594,-4.5594,-4.5594,-4.5362,-4.5253,-4.5243,-4.5022,-4.4861,-3.3122,-3.418,0.0,0.0,0.0,0.0,0.0,0.0,0.0,0.0,0.0,0.0,0.0,0.0,0.0,0.0,0.0,0.0,0.0,0.0,0.0,0.0,0.0,0.0,0.0,0.0,0.0,0.0,0.0,0.0,0.0,0.0,0.0,0.0,-5.6462,-5.6479,-5.6601,-5.6601,-5.6601,-5.6601,-5.6601,-5.6536,-5.6414,-5.6538,-5.6601,-5.6601,-5.6601,-5.6601,-5.6601,-5.6601,-5.643,-5.6181,-5.5981,-5.5896,-5.5896,-5.5896,-5.6113,-5.6377,-5.6257,-5.6191,-5.6169,-5.5966,-5.5266,-5.4337,-5.3472,-5.2577,-5.1731,-5.0933,-5.0712,-5.0712,-5.0712,-5.0712,-5.0712,-5.0712,-5.0712,-5.0712,-5.0712,-5.0712,-5.0712,-5.0712,-5.0712,-5.0712,-5.0712,-5.0712,-5.0712,-5.0712,-5.0712,-5.0712,-5.0712,-5.0712,-5.0366,-4.949,-4.9394,-4.8721,-4.7067,-4.6904,-4.6528,-4.5671,-4.5594,-4.5594,-4.5594,-4.5594,-4.5594,-4.5594,-4.5594,-4.5594,-4.5594,-4.5594,-4.5594,-4.5594,-4.5594,-4.5419,-3.2065,-3.3731,0.0,0.0,0.0,0.0,0.0,0.0,0.0,0.0,0.0,0.0,0.0,0.0,0.0,0.0,0.0,0.0,0.0,0.0,0.0,0.0,0.0,0.0,0.0,0.0,0.0,0.0,0.0,0.0,0.0,0.0,0.0,0.0,-5.656,-5.656,-5.6601,-5.6601,-5.6601,-5.6601,-5.6601,-5.6581,-5.6538,-5.6581,-5.6601,-5.6601,-5.6601,-5.6601,-5.6582,-5.6408,-5.6264,-5.6169,-5.5879,-5.5769,-5.5769,-5.5866,-5.6045,-5.6246,-5.6207,-5.6191,-5.6169,-5.5966,-5.5266,-5.4337,-5.3472,-5.2577,-5.1731,-5.0933,-5.0712,-5.0712,-5.0712,-5.0712,-5.0712,-5.0712,-5.0712,-5.0712,-5.0712,-5.0712,-5.0712,-5.0712,-5.0712,-5.0712,-5.0712,-5.0712,-5.0712,-5.0712,-5.0712,-5.0712,-5.0712,-5.0712,-5.0596,-5.0346,-4.976,-4.9202,-4.8702,-4.7586,-4.6797,-4.6528,-4.5932,-4.5594,-4.5594,-4.5594,-4.5594,-4.5594,-4.5594,-4.5594,-4.5594,-4.5594,-4.5594,-4.5594,-4.5594,-4.555,-3.3209,0.0,0.0,0.0,0.0,0.0,0.0,0.0,0.0,0.0,0.0,0.0,0.0,0.0,0.0,0.0,0.0,0.0,0.0,0.0,0.0,0.0,0.0,0.0,0.0,0.0,0.0,0.0,0.0,0.0,0.0,0.0,0.0,0.0,-5.5742,-5.5566,-5.5566,-5.5566,-5.5566,-5.5566,-5.5566,-5.5566,-5.5586,-5.6289,-5.6601,-5.6601,-5.6601,-5.6601,-5.6581,-5.6313,-5.6191,-5.6164,-5.5836,-5.5703,-5.5726,-5.5859,-5.6031,-5.6191,-5.6191,-5.5963,-5.5644,-5.547,-5.4532,-5.3376,-5.2837,-5.2087,-5.1318,-5.0846,-5.0712,-5.0712,-5.0712,-5.0712,-5.0712,-5.0712,-5.0712,-5.0712,-5.0712,-5.0712,-5.0712,-5.0712,-5.0712,-5.0712,-5.0712,-5.0712,-5.0712,-5.0712,-5.0712,-5.0712,-5.0712,-5.0712,-5.0712,-5.0712,-5.0231,-4.9644,-4.8933,-4.7971,-4.7086,-4.6432,-4.5893,-4.5594,-4.5594,-4.5594,-4.5594,-4.5594,-4.5594,-4.5594,-4.5594,-4.5594,-4.5594,-4.5594,-4.5594,-4.5594,0.0,0.0,0.0,0.0,0.0,0.0,0.0,0.0,0.0,0.0,0.0,0.0,0.0,0.0,0.0,0.0,0.0,0.0,0.0,0.0,0.0,0.0,0.0,0.0,0.0,0.0,0.0,0.0,0.0,0.0,0.0,0.0,0.0,-5.5176,-5.4414,-5.4004,-5.4004,-5.4004,-5.4004,-5.4004,-5.4004,-5.4004,-5.4043,-5.5644,-5.6367,-5.6367,-5.6367,-5.6367,-5.6347,-5.6059,-5.5958,-5.595,-5.5682,-5.5588,-5.563,-5.5838,-5.5986,-5.6075,-5.609,-5.5526,-5.4755,-5.4624,-5.3363,-5.1904,-5.1904,-5.1337,-5.0712,-5.0712,-5.0712,-5.0712,-5.0712,-5.0712,-5.0712,-5.0712,-5.0712,-5.0712,-5.0712,-5.0712,-5.0712,-5.0712,-5.0712,-5.0712,-5.0712,-5.0712,-5.0712,-5.0712,-5.0712,-5.0712,-5.0712,-5.0712,-5.0712,-5.0712,-5.0712,-5.0029,-4.8355,-4.8144,-4.7413,-4.5825,-4.5633,-4.5594,-4.5594,-4.5594,-4.5594,-4.5594,-4.5594,-4.5594,-4.5594,-4.5594,-4.5594,-4.5594,-4.5594,-4.5594,0.0,0.0,0.0,0.0,0.0,0.0,0.0,0.0,0.0,0.0,0.0,0.0,0.0,0.0,0.0,0.0,0.0,0.0,0.0,0.0,0.0,0.0,0.0,0.0,0.0,0.0,0.0,0.0,0.0,0.0,0.0,0.0,0.0,-5.4277,-5.4101,-5.4004,-5.4004,-5.4004,-5.4004,0.0,-5.4004,-5.4004,-5.4004,-5.4394,-5.4551,-5.4551,-5.4551,-5.4551,-5.4531,-5.4266,-5.4168,-5.42,-5.4601,-5.4761,-5.4861,-5.5797,-5.5736,-5.519,-5.5294,-5.4703,-5.3855,-5.3712,-5.288,-5.1904,-5.1904,-5.1337,-5.0712,-5.0712,-5.0712,-5.0712,-5.0712,-5.0712,-5.0712,-5.0712,-5.0712,-5.0712,-5.0712,-5.0712,-5.0712,-5.0712,-5.0712,-5.0712,-5.0712,-5.0712,-5.0712,-5.0712,-5.0712,-5.0712,-5.0712,-5.0712,-5.0712,-5.0712,-5.0712,-5.0269,-4.9202,-4.849,-4.7682,-4.6682,-4.597,-4.5594,-4.5594,-4.5594,-4.5594,-4.5594,-4.5594,-4.5594,-4.5594,-4.5594,-4.5594,-4.5594,-4.5594,-4.5594,0.0,0.0,0.0,0.0,0.0,0.0,0.0,0.0,0.0,0.0,0.0,0.0,0.0,0.0,0.0,0.0,0.0,0.0,0.0,0.0,0.0,0.0,0.0,0.0,0.0,0.0,0.0,0.0,0.0,0.0,0.0,-5.3594,-5.3379,-5.3379,-5.2969,-5.2754,-5.2754,-5.2754,-5.2754,-5.2754,-5.2754,-5.2754,-5.2773,-5.3613,-5.4004,-5.4004,-5.4004,-5.4004,-5.3984,-5.3701,-5.3604,-5.3611,-5.3809,-5.3876,-5.3966,-5.4692,-5.4674,-5.429,-5.4363,-5.3762,-5.293,-5.2748,-5.2068,-5.1337,-5.1337,-5.1029,-5.0712,-5.0712,-5.0712,-5.0712,-5.0712,-5.0712,-5.0712,-5.0712,-5.0712,-5.0712,-5.0712,-5.0712,-5.0712,-5.0712,-5.0712,-5.0712,-5.0712,-5.0712,-5.0712,-5.0712,-5.0712,-5.0712,-5.0712,-5.0712,-5.0712,-5.0712,-5.0712,-5.0183,-4.8894,-4.8355,-4.7586,-4.6355,-4.5845,-4.5594,-4.5594,-4.5594,-4.5594,-4.5594,-4.5594,-4.5594,-4.5594,-4.5594,-4.5594,-4.5594,-4.5594,-4.5594,0.0,0.0,0.0,0.0,0.0,0.0,0.0,0.0,0.0,0.0,0.0,0.0,0.0,0.0,0.0,0.0,0.0,0.0,0.0,0.0,0.0,0.0,0.0,0.0,0.0,0.0,0.0,0.0,0.0,0.0,-5.3555,-5.2871,-5.248,-5.248,-5.1777,-5.1406,-5.1406,-5.1406,-5.1406,-5.1406,-5.1406,-5.1406,-5.1445,-5.2891,-5.3555,-5.3555,-5.3555,-5.3535,-5.3493,-5.3264,-5.3141,-5.311,-5.3019,-5.2991,-5.3032,-5.3417,-5.3469,-5.3333,-5.3333,-5.2775,-5.201,-5.1776,-5.1241,-5.0712,-5.0712,-5.0712,-5.0712,-5.0712,-5.0712,-5.0712,-5.0712,-5.0712,-5.0712,-5.0712,-5.0712,-5.0712,-5.0712,-5.0712,-5.0712,-5.0712,-5.0712,-5.0712,-5.0712,-5.0712,-5.0712,-5.0712,-5.0712,-5.0712,-5.0712,-5.0712,-5.0712,-5.0712,-5.0712,-4.999,-4.8259,-4.8105,-4.7375,-4.571,-4.5594,-4.5594,-4.5594,-4.5594,-4.5594,-4.5594,-4.5594,-4.5594,-4.5594,-4.5594,-4.5594,-4.5594,-4.5594,-4.5594,0.0,0.0,0.0,0.0,0.0,0.0,0.0,0.0,0.0,0.0,0.0,0.0,0.0,0.0,0.0,0.0,0.0,0.0,0.0,0.0,0.0,0.0,0.0,0.0,0.0,0.0,0.0,0.0,0.0,0.0,-5.1758,-5.1641,-5.1562,-5.1562,-5.1465,-5.1406,-5.1406,-5.1406,-5.1406,-5.1406,-5.1406,-5.1406,-5.1406,-5.1641,-5.1758,-5.1758,-5.1758,-5.1674,-5.1562,-5.146,-5.1369,-5.131,-5.1866,-5.2077,-5.2174,-5.3085,-5.2947,-5.23,-5.2295,-5.1772,-5.107,-5.0912,-5.0789,-5.0712,-5.0712,-5.0712,-5.0712,-5.0712,-5.0712,-5.0712,-5.0712,-5.0712,-5.0712,-5.0712,-5.0712,-5.0712,-5.0712,-5.0712,-5.0712,-5.0712,-5.0712,-5.0712,-5.0712,-5.0712,-5.0712,-5.0712,-5.0712,-5.0712,-5.0712,-5.0712,-5.0712,-5.0712,-5.0712,-4.999,-4.8259,-4.8105,-4.7375,-4.571,-4.5594,-4.5594,-4.5594,-4.5594,-4.5594,-4.5594,-4.5594,-4.5594,-4.5594,-4.5594,-4.5594,-4.5594,-4.5594,-4.5594,0.0,0.0,0.0,0.0,0.0,0.0,0.0,0.0,0.0,0.0,0.0,0.0,0.0,0.0,0.0,0.0,0.0,0.0,0.0,0.0,0.0,0.0,0.0,0.0,0.0,0.0,0.0,0.0,0.0,-5.1406,-5.1406,-5.1406,-5.1406,-5.1406,-5.1406,-5.1406,-5.1406,-5.1406,-5.1406,-5.1406,-5.1406,-5.1406,-5.1406,-5.1406,-5.1406,-5.1406,-5.1406,-5.1321,-5.1196,-5.1124,-5.1027,-5.0925,-5.1143,-5.1221,-5.1289,-5.1807,-5.176,-5.1431,-5.1438,-5.1206,-5.0879,-5.073,-5.0712,-5.0712,-5.0712,-5.0712,-5.0712,-5.0712,-5.0712,-5.0721,-5.0799,-5.0814,-5.0819,-5.0916,-5.0875,-5.0814,-5.0814,-5.0748,-5.0712,-5.0712,-5.0712,-5.0712,-5.0712,-5.0712,-5.0712,-5.0712,-5.0712,-5.0712,-5.0712,-5.0712,-5.0712,-5.0712,-5.0712,-4.999,-4.8259,-4.8105,-4.7375,-4.571,-4.5594,-4.5594,-4.5594,-4.5594,-4.5594,-4.5594,-4.5594,-4.5594,-4.5594,-4.5594,-4.5594,-4.5594,-4.5594,-4.5594,0.0,0.0,0.0,0.0,0.0,0.0,0.0,0.0,0.0,0.0,0.0,0.0,0.0,0.0,0.0,0.0,0.0,0.0,0.0,0.0,0.0,0.0,0.0,0.0,0.0,0.0,0.0,0.0,0.0,-5.0762,-5.0762,-5.0762,-5.0762,-5.0762,-5.0762,-5.0879,-5.1094,-5.1308,-5.1406,-5.1406,-5.1406,-5.1406,-5.1406,-5.1406,-5.1406,-5.1406,-5.1406,-5.1317,-5.1171,-5.1111,-5.1004,-5.0835,-5.074,-5.0712,-5.0712,-5.0814,-5.0851,-5.0851,-5.0851,-5.0851,-5.0827,-5.073,-5.0712,-5.0712,-5.0712,-5.0712,-5.0748,-5.0748,-5.0793,-5.0811,-5.0925,-5.0959,-5.0972,-5.1088,-5.1008,-5.0932,-5.0856,-5.0764,-5.0712,-5.0712,-5.0712,-5.0712,-5.0712,-5.0712,-5.0712,-5.0712,-5.0712,-5.0712,-5.0712,-5.0712,-5.0712,-5.0712,-5.0712,-5.0067,-4.8567,-4.824,-4.749,-4.6009,-4.5729,-4.5594,-4.5594,-4.5594,-4.5594,-4.5594,-4.5594,-4.5594,-4.5594,-4.5594,-4.5594,-4.5594,-4.5594,-4.5594,0.0,0.0,0.0,0.0,0.0,0.0,0.0,0.0,0.0,0.0,0.0,0.0,0.0,0.0,0.0,0.0,0.0,0.0,0.0,0.0,0.0,0.0,0.0,0.0,0.0,0.0,0.0,0.0,0.0,-4.9023,-4.9023,-4.9023,-4.9023,-4.9023,-4.9023,-4.9433,-5.0254,-5.1016,-5.1406,-5.1406,-5.1406,-5.1406,-5.1406,-5.1406,-5.1406,-5.1406,-5.1406,-5.1281,-5.1099,-5.1094,-5.0952,-5.0712,-5.0693,-5.0712,-5.0693,-5.0702,-5.0712,-5.0712,-5.0712,-5.0712,-5.0712,-5.0693,-5.0712,-5.0712,-5.0712,-5.0791,-5.0894,-5.0894,-5.0979,-5.1074,-5.1098,-5.1079,-5.1084,-5.1108,-5.1084,-5.1027,-5.0775,-5.0702,-5.0712,-5.0712,-5.0712,-5.0712,-5.0712,-5.0712,-5.0712,-5.0712,-5.0712,-5.0712,-5.0712,-5.0712,-5.0712,-5.0712,-5.0712,-5.0327,-4.9413,-4.8586,-4.774,-4.6894,-4.6067,-4.5594,-4.5594,-4.5594,-4.5594,-4.5594,-4.5594,-4.5594,-4.5594,-4.5594,-4.5594,-4.5594,-4.5594,-4.5594,0.0,0.0,0.0,0.0,0.0,0.0,0.0,0.0,0.0,0.0,0.0,0.0,0.0,0.0,0.0,0.0,0.0,0.0,0.0,0.0,0.0,0.0,0.0,0.0,0.0,0.0,0.0,0.0,0.0,0.0,-4.8906,-4.8906,-4.8906,-4.8906,-4.8906,-4.9043,-4.9355,-5.0215,-5.0625,-5.0644,-5.1152,-5.1406,-5.1406,-5.1406,-5.1406,-5.1406,-5.1406,-5.1315,-5.1161,-5.1161,-5.1074,-5.0966,-5.0966,-5.0896,-5.0839,-5.0839,-5.0764,-5.0712,-5.0712,-5.0712,-5.0712,-5.0712,-5.0757,-5.0839,-5.0839,-5.0918,-5.1033,-5.1033,-5.1053,-5.1113,-5.1144,-5.1161,-5.1161,-5.1161,-5.1161,-5.1125,-5.0997,-5.083,-5.0712,-5.0712,-5.0712,-5.0712,-5.0712,-5.0712,-5.0712,-5.0712,-5.0712,-5.0712,-5.0712,-5.0712,-5.0712,-5.0712,-5.0712,-5.0106,-4.8682,-4.8279,-4.7528,-4.6144,-4.5768,-4.5594,-4.5594,-4.5594,-4.5594,-4.5594,-4.5594,-4.5594,-4.5594,-4.5594,-4.5594,-4.5594,-4.5594,-4.5594,-2.6581,0.0,0.0,0.0,0.0,0.0,0.0,0.0,0.0,0.0,0.0,0.0,0.0,0.0,0.0,0.0,0.0,0.0,0.0,0.0,0.0,0.0,0.0,0.0,0.0,0.0,0.0,0.0,0.0,0.0,-4.8027,-4.8027,-4.8027,-4.8027,-4.8301,-4.8457,-4.8457,-4.9336,-4.9766,-4.9766,-5.0312,-5.0566,-5.0566,-5.0566,-5.0723,-5.0996,-5.0996,-5.1067,-5.1204,-5.1204,-5.1154,-5.1089,-5.1089,-5.1056,-5.0959,-5.0959,-5.0886,-5.0775,-5.0775,-5.074,-5.0702,-5.0748,-5.0839,-5.0903,-5.0946,-5.1053,-5.1133,-5.1133,-5.1179,-5.1216,-5.126,-5.1268,-5.1268,-5.1268,-5.1236,-5.1191,-5.1148,-5.0972,-5.0827,-5.0827,-5.0808,-5.0775,-5.0775,-5.073,-5.0712,-5.0712,-5.0712,-5.0712,-5.0712,-5.0712,-5.0712,-5.0712,-5.0712,-5.0106,-4.8663,-4.8279,-4.7509,-4.6124,-4.5768,-4.5594,-4.5594,-4.5594,-4.5594,-4.5594,-4.5594,-4.5594,-4.5594,-4.5594,-4.5594,-4.5594,-4.5594,-4.5594,0.0,0.0,0.0,0.0,0.0,0.0,0.0,0.0,0.0,0.0,0.0,0.0,0.0,0.0,0.0,0.0,0.0,0.0,0.0,0.0,0.0,0.0,0.0,0.0,0.0,0.0,0.0,0.0,0.0,-4.6308,-4.6308,-4.6308,-4.6308,-4.6308,-4.7129,-4.7558,-4.7558,-4.8437,-4.8867,-4.8867,-4.8887,-4.8906,-4.8906,-4.8906,-4.9355,-5.0156,-5.0195,-5.0579,-5.1167,-5.1206,-5.1161,-5.1103,-5.1103,-5.1099,-5.1099,-5.1099,-5.1027,-5.0916,-5.0916,-5.0822,-5.073,-5.0856,-5.0903,-5.0919,-5.1058,-5.116,-5.1206,-5.1206,-5.1296,-5.1406,-5.1406,-5.1406,-5.1406,-5.1406,-5.1296,-5.1206,-5.1206,-5.1144,-5.1099,-5.1094,-5.0991,-5.0908,-5.0908,-5.0791,-5.0712,-5.0712,-5.0712,-5.0712,-5.0712,-5.0712,-5.0712,-5.0712,-5.0673,-5.0308,-4.9433,-4.8567,-4.7721,-4.6904,-4.6067,-4.5594,-4.5594,-4.5594,-4.5594,-4.5594,-4.5594,-4.5594,-4.5594,-4.5594,-4.5594,-4.5594,-4.5594,-4.5594,-2.4786,0.0,0.0,0.0,0.0,0.0,0.0,0.0,0.0,0.0,0.0,0.0,0.0,0.0,0.0,0.0,0.0,0.0,0.0,0.0,0.0,0.0,0.0,0.0,0.0,0.0,0.0,0.0,-4.6308,-4.6308,-4.6308,-4.6308,-4.6308,-4.6308,-4.6523,-4.666,-4.666,-4.7519,-4.7969,-4.7969,-4.8594,-4.8906,-4.8906,-4.8906,-4.9023,-4.9297,-4.9922,-5.0312,-5.0524,-5.1109,-5.1321,-5.1313,-5.1313,-5.1254,-5.1171,-5.1171,-5.1128,-5.1036,-5.1036,-5.1027,-5.0997,-5.102,-5.1084,-5.1121,-5.1164,-5.1258,-5.1344,-5.1344,-5.1366,-5.1406,-5.1406,-5.1406,-5.1406,-5.1406,-5.1366,-5.1344,-5.1344,-5.1339,-5.1273,-5.1126,-5.0991,-5.0908,-5.0908,-5.0791,-5.0712,-5.0712,-5.0712,-5.0712,-5.0712,-5.0712,-5.0712,-5.0712,-5.0144,-4.9413,-4.8529,-4.7721,-4.6874,-4.6009,-4.5729,-4.5594,-4.5594,-4.5594,-4.5594,-4.5594,-4.5594,-4.5594,-4.5594,-4.5594,-4.5594,-4.5594,-4.5594,-4.5594,0.0,0.0,0.0,0.0,0.0,0.0,0.0,0.0,0.0,0.0,0.0,0.0,0.0,0.0,0.0,0.0,0.0,0.0,0.0,0.0,0.0,0.0,0.0,0.0,0.0,0.0,0.0,-4.6308,-4.6308,-4.6308,-4.6308,-4.6308,-4.6308,-4.6308,-4.6308,-4.6308,-4.6308,-4.6797,-4.7051,-4.7051,-4.7578,-4.7812,-4.7812,-4.7812,-4.8008,-4.8398,-4.8887,-4.9531,-5.0234,-5.0703,-5.1094,-5.1406,-5.1406,-5.1345,-5.1273,-5.1273,-5.1221,-5.1148,-5.1148,-5.1116,-5.1099,-5.1133,-5.1167,-5.1208,-5.1268,-5.1343,-5.1406,-5.1406,-5.1406,-5.1406,-5.1406,-5.1406,-5.1406,-5.1406,-5.1406,-5.1406,-5.1406,-5.1406,-5.1365,-5.1257,-5.1084,-5.0979,-5.0979,-5.083,-5.0712,-5.0712,-5.0712,-5.0712,-5.0712,-5.0712,-5.0558,-5.0212,-4.9702,-4.8913,-4.7702,-4.7173,-4.6528,-4.5671,-4.5594,-4.5594,-4.5594,-4.5594,-4.5594,-4.5594,-4.5594,-4.5594,-4.5594,-4.5594,-4.5594,-4.5594,-4.5594,-4.5594,0.0,0.0,0.0,0.0,0.0,0.0,-3.0944,-3.0591,0.0,0.0,0.0,0.0,0.0,0.0,0.0,0.0,0.0,0.0,0.0,0.0,0.0,0.0,0.0,0.0,0.0,-4.6087,-4.6147,-4.6268,-4.6289,-4.6308,-4.6308,-4.6308,-4.6308,-4.6308,-4.6308,-4.6308,-4.6308,-4.6308,-4.6308,-4.6308,-4.6308,-4.6308,-4.6308,-4.6308,-4.6719,-4.7461,-4.7558,-4.8476,-4.9922,-5.0019,-5.0586,-5.1406,-5.1406,-5.1406,-5.1406,-5.1406,-5.1321,-5.1213,-5.1213,-5.1171,-5.1128,-5.1194,-5.1213,-5.124,-5.1366,-5.1406,-5.1406,-5.1406,-5.1406,-5.1406,-5.1406,-5.1406,-5.1406,-5.1406,-5.1406,-5.1406,-5.1406,-5.1406,-5.1406,-5.1406,-5.123,-5.1108,-5.1074,-5.0879,-5.0721,-5.0693,-5.074,-5.074,-5.0712,-5.0653,-5.0306,-4.9535,-4.9258,-4.8527,-4.7045,-4.6826,-4.6432,-4.5652,-4.5594,-4.5594,-4.5594,-4.5594,-4.5594,-4.5594,-4.5594,-4.5594,-4.5594,-4.5594,-4.5594,-4.5594,-4.5594,-4.5594,0.0,0.0,0.0,0.0,0.0,0.0,0.0,-2.8112,0.0,0.0,0.0,0.0,0.0,0.0,0.0,0.0,0.0,0.0,0.0,0.0,0.0,0.0,0.0,0.0,0.0,-4.6039,-4.6113,-4.6144,-4.6246,-4.6308,-4.6308,-4.6308,-4.6308,-4.6308,-4.6308,-4.6308,-4.6308,-4.6308,-4.6308,-4.6308,-4.6308,-4.6308,-4.6308,-4.6308,-4.6387,-4.6582,-4.7305,-4.7793,-4.8164,-4.8867,-5.0039,-5.1406,-5.1406,-5.1406,-5.1406,-5.1406,-5.1386,-5.1365,-5.1365,-5.1344,-5.1341,-5.1365,-5.1365,-5.1366,-5.1386,-5.1406,-5.1406,-5.1406,-5.1406,-5.1406,-5.1406,-5.1406,-5.1406,-5.1406,-5.1406,-5.1406,-5.1406,-5.1406,-5.1406,-5.1406,-5.123,-5.1078,-5.0966,-5.0901,-5.0811,-5.0721,-5.0886,-5.0979,-5.0871,-5.0338,-4.9909,-4.9734,-4.8373,-4.7332,-4.7004,-4.6285,-4.5787,-4.5614,-4.5594,-4.5594,-4.5594,-4.5594,-4.5594,-4.5594,-4.5594,-4.5594,-4.5594,-4.5594,-4.5594,-4.5594,-4.5594,-4.5594,0.0,0.0,0.0,-3.3496,0.0,0.0,0.0,0.0,0.0,0.0,0.0,0.0,0.0,0.0,0.0,0.0,0.0,0.0,0.0,0.0,0.0,0.0,0.0,0.0,0.0,-4.5068,-4.5621,-4.6158,-4.6268,-4.6308,-4.6308,-4.6308,-4.6308,-4.6308,-4.6308,-4.6308,-4.6308,-4.6308,-4.6308,-4.6308,-4.6308,-4.6308,-4.6308,-4.6308,-4.6308,-4.6328,-4.6758,-4.7207,-4.7637,-4.8066,-4.9258,-5.0801,-5.0801,-5.1055,-5.1406,-5.1406,-5.1406,-5.1406,-5.1406,-5.1406,-5.1406,-5.1406,-5.1406,-5.1406,-5.1406,-5.1406,-5.1406,-5.1406,-5.1406,-5.1406,-5.1406,-5.1406,-5.1406,-5.1406,-5.1406,-5.1406,-5.1406,-5.1406,-5.1386,-5.1319,-5.1218,-5.1125,-5.1064,-5.1017,-5.0972,-5.0903,-5.1016,-5.0927,-5.0421,-5.0026,-4.9469,-4.8594,-4.7658,-4.6905,-4.6435,-4.5965,-4.5673,-4.5603,-4.5594,-4.5594,-4.5594,-4.5665,-4.5725,-4.5757,-4.5738,-4.5738,-4.5738,-4.5738,-4.5706,-4.5594,-4.5594,-4.5594,0.0,0.0,0.0,0.0,0.0,-3.235,0.0,0.0,0.0,0.0,0.0,0.0,0.0,0.0,0.0,0.0,0.0,0.0,0.0,0.0,0.0,0.0,0.0,0.0,0.0,-4.3296,-4.4254,-4.5661,-4.5487,-4.5507,-4.5995,-4.6191,-4.6308,-4.6308,-4.6308,-4.6308,-4.6308,-4.6308,-4.6308,-4.6308,-4.6308,-4.6308,-4.6308,-4.6308,-4.6308,-4.6308,-4.6308,-4.6699,-4.7344,-4.7344,-4.8281,-4.9726,-5.0078,-5.0683,-5.1406,-5.1406,-5.1406,-5.1406,-5.1406,-5.1406,-5.1406,-5.1406,-5.1406,-5.1406,-5.1406,-5.1406,-5.1406,-5.1406,-5.1406,-5.1406,-5.1406,-5.1406,-5.1406,-5.1406,-5.1406,-5.1406,-5.1406,-5.1406,-5.1366,-5.1265,-5.1238,-5.1232,-5.1185,-5.1156,-5.1102,-5.1094,-5.0995,-5.0665,-4.9934,-4.9562,-4.8834,-4.7435,-4.7108,-4.6687,-4.5925,-4.5826,-4.577,-4.565,-4.5661,-4.5661,-4.5661,-4.5757,-4.5847,-4.5899,-4.5899,-4.5899,-4.5899,-4.5899,-4.5828,-4.5661,-4.5661,-4.5657,0.0,0.0,0.0,0.0,-3.7555,0.0,0.0,0.0,0.0,0.0,0.0,0.0,0.0,0.0,0.0,0.0,0.0,0.0,0.0,0.0,0.0,0.0,0.0,0.0,0.0,0.0,-4.1084,-4.3714,-4.2522,-4.2679,-4.4933,-4.5855,-4.6308,-4.6308,-4.6308,-4.6308,-4.6308,-4.6308,-4.6308,-4.6308,-4.6308,-4.6308,-4.6308,-4.6308,-4.6308,-4.6308,-4.6308,-4.6367,-4.6445,-4.6445,-4.7012,-4.8047,-4.9609,-5.0683,-5.1406,-5.1406,-5.1406,-5.1406,-5.1406,-5.1406,-5.1406,-5.1406,-5.1406,-5.1406,-5.1406,-5.1406,-5.1406,-5.1406,-5.1406,-5.1406,-5.1406,-5.1406,-5.1406,-5.1406,-5.1406,-5.1406,-5.1406,-5.1406,-5.1406,-5.1386,-5.1386,-5.1316,-5.1148,-5.1147,-5.1167,-5.1108,-5.0635,-5.0225,-5.0006,-4.8732,-4.777,-4.7576,-4.6752,-4.6172,-4.6067,-4.5955,-4.5872,-4.5877,-4.5877,-4.5877,-4.5877,-4.5872,-4.5885,-4.5899,-4.5899,-4.5899,-4.5899,-4.5899,-4.5885,-4.5877,-4.5877,-4.5834,0.0,0.0,0.0,0.0,0.0,0.0,0.0,0.0,-3.078,0.0,0.0,0.0,0.0,0.0,0.0,0.0,0.0,0.0,0.0,0.0,0.0,0.0,0.0,0.0,0.0,0.0,0.0,0.0,0.0,-4.1465,-4.4011,-4.5035,-4.5781,-4.6289,-4.6308,-4.6308,-4.6308,-4.6308,-4.6308,-4.6308,-4.6308,-4.6308,-4.6308,-4.6308,-4.6308,-4.6308,-4.6308,-4.6308,-4.6308,-4.6308,-4.6816,-4.7676,-4.8418,-4.9512,-5.0703,-5.0703,-5.0996,-5.1406,-5.1406,-5.1406,-5.1406,-5.1406,-5.1406,-5.1406,-5.1406,-5.1406,-5.1406,-5.1406,-5.1406,-5.1406,-5.1406,-5.1406,-5.1406,-5.1406,-5.1406,-5.1406,-5.1406,-5.1406,-5.1406,-5.1406,-5.1406,-5.1366,-5.1281,-5.1291,-5.1316,-5.1277,-5.0657,-4.9999,-4.9426,-4.8338,-4.7402,-4.6894,-4.6462,-4.6177,-4.6113,-4.6045,-4.5985,-4.5903,-4.5899,-4.5928,-4.6005,-4.6027,-4.6047,-4.612,-4.6122,-4.6122,-4.6122,-4.6122,-4.6122,-4.612,-4.5978,-4.5872,-4.3915,0.0,0.0,0.0,0.0,0.0,0.0,0.0,0.0,0.0,0.0,0.0,0.0,0.0,0.0,0.0,0.0,0.0,0.0,0.0,0.0,0.0,0.0,0.0,0.0,0.0,0.0,0.0,0.0,0.0,-4.2683,-4.3972,-4.5018,-4.5918,-4.6172,-4.6308,-4.6308,-4.6308,-4.6308,-4.6308,-4.6308,-4.6308,-4.6308,-4.6308,-4.6308,-4.6308,-4.6308,-4.6308,-4.6308,-4.6308,-4.668,-4.7246,-4.7246,-4.8164,-4.9551,-5.0019,-5.0703,-5.1406,-5.1406,-5.1406,-5.1406,-5.1406,-5.1406,-5.1406,-5.1406,-5.1406,-5.1406,-5.1406,-5.1406,-5.1406,-5.1406,-5.1406,-5.1406,-5.1406,-5.1406,-5.1406,-5.1406,-5.1406,-5.1406,-5.1406,-5.1406,-5.1406,-5.1406,-5.1406,-5.1406,-5.1406,-5.0508,-4.9629,-4.8984,-4.793,-4.6992,-4.6367,-4.6308,-4.6268,-4.6152,-4.6149,-4.6115,-4.6024,-4.6001,-4.6047,-4.6147,-4.6149,-4.62,-4.6308,-4.6308,-4.6308,-4.6308,-4.6308,-4.6308,-4.6308,-4.6108,-4.5988,0.0,0.0,0.0,-3.8833,0.0,0.0,0.0,0.0,-3.3615,0.0,0.0,0.0,0.0,0.0,0.0,0.0,0.0,0.0,0.0,0.0,0.0,0.0,0.0,0.0,0.0,0.0,0.0,0.0,0.0,0.0,-4.0703,-4.2678,-4.4069,-4.5019,-4.5859,-4.6308,-4.6308,-4.6308,-4.6308,-4.6308,-4.6308,-4.6308,-4.6308,-4.6308,-4.6308,-4.6308,-4.6308,-4.6308,-4.6308,-4.6308,-4.6328,-4.6348,-4.6348,-4.6894,-4.7891,-4.957,-5.0703,-5.1406,-5.1406,-5.1406,-5.1406,-5.1406,-5.1406,-5.1406,-5.1406,-5.1406,-5.1406,-5.1406,-5.1406,-5.1406,-5.1406,-5.1406,-5.1406,-5.1406,-5.1406,-5.1406,-5.1406,-5.1406,-5.1406,-5.1406,-5.1406,-5.1406,-5.1406,-5.1406,-5.1406,-5.1406,-5.0,-4.8926,-4.8906,-4.7402,-4.6328,-4.6308,-4.6308,-4.6308,-4.6289,-4.6289,-4.6289,-4.6289,-4.6289,-4.6289,-4.6289,-4.6289,-4.6308,-4.6308,-4.6308,-4.6308,-4.6308,-4.6308,-4.6308,-4.6308,-4.6289,-4.6223,0.0,0.0,-4.3488,-4.0464,0.0,0.0,0.0,0.0,0.0,0.0,0.0,0.0,0.0,0.0,0.0,0.0,0.0,0.0,0.0,0.0,0.0,0.0,0.0,0.0,0.0,0.0,0.0,0.0,0.0,0.0,0.0,-4.1424,-4.3141,-4.405,-4.5526,-4.6308,-4.6308,-4.6308,-4.6308,-4.6308,-4.6308,-4.6308,-4.6308,-4.6308,-4.6308,-4.6308,-4.6308,-4.6308,-4.6308,-4.6308,-4.6308,-4.6308,-4.6308,-4.6836,-4.7734,-4.8906,-4.9883,-5.0683,-5.1211,-5.1406,-5.1406,-5.1406,-5.1406,-5.1406,-5.1406,-5.1406,-5.1406,-5.1406,-5.1406,-5.1406,-5.1406,-5.1406,-5.1406,-5.1406,-5.1406,-5.1406,-5.1406,-5.1406,-5.1406,-5.1406,-5.1406,-5.1406,-5.1406,-5.1406,-5.1406,-5.1406,-4.9961,-4.8906,-4.8906,-4.7383,-4.6308,-4.6308,-4.6308,-4.6308,-4.6308,-4.6308,-4.6308,-4.6308,-4.6308,-4.6308,-4.6308,-4.6308,-4.6308,-4.6308,-4.6308,-4.6308,-4.6308,-4.6308,-4.6308,-4.6308,-4.6308,-4.6288,-4.5243,-4.4644,0.0,-4.1474,-3.9414,0.0,-3.4582,0.0,0.0,0.0,0.0,0.0,0.0,0.0,0.0,0.0,0.0,0.0,0.0,0.0,0.0,0.0,0.0,0.0,0.0,0.0,-3.0,-3.2295,0.0,0.0,0.0,0.0,-4.1887,-4.3095,-4.4899,-4.5996,-4.6308,-4.6308,-4.6308,-4.6308,-4.6308,-4.6308,-4.6308,-4.6308,-4.6269,-4.6225,-4.6225,-4.6225,-4.6225,-4.6225,-4.6267,-4.6308,-4.6308,-4.6641,-4.7246,-4.8125,-4.8984,-4.9902,-5.1016,-5.1211,-5.1016,-5.1308,-5.1406,-5.1406,-5.1406,-5.1406,-5.1406,-5.1406,-5.1406,-5.1406,-5.1406,-5.1406,-5.1406,-5.1406,-5.1406,-5.1406,-5.1406,-5.1406,-5.1406,-5.1406,-5.1406,-5.1406,-5.1406,-5.1406,-5.1406,-5.1406,-4.9961,-4.8906,-4.8906,-4.7383,-4.6308,-4.6308,-4.6308,-4.6308,-4.6308,-4.6308,-4.6308,-4.6308,-4.6308,-4.6308,-4.6308,-4.6308,-4.6308,-4.6308,-4.6308,-4.6308,-4.6308,-4.6308,-4.6308,-4.6308,-4.6308,-4.6308]},{"header":{"parameterUnit":"m.s-1","parameterCategory":1,"la1":30.6,"la2":29.2853,"lo1":-89.7004,"lo2":-87.6739,"dy":0.0162,"dx":0.0183,"nx":112,"ny":82,"refTime":"2025-05-24T18:00:00:Z","depth":0,"parameterNumber":3,"parameterNumberName":"V-component_of_WINDS"},"data":[0.0,0.0,0.0,0.0,0.0,0.0,0.0,0.0,0.0,0.0,0.0,0.0,0.0,0.0,0.0,0.0,0.0,0.0,0.0,0.0,0.0,0.0,0.0,0.0,0.0,0.0,0.0,0.0,0.0,0.0,0.0,0.0,0.0,0.0,0.0,0.0,0.0,0.0,0.0,0.0,0.0,0.0,0.0,0.0,0.0,0.0,0.0,0.0,0.0,0.0,0.0,0.0,0.0,0.0,0.0,0.0,0.0,0.0,0.0,0.0,0.0,0.0,0.0,0.0,0.0,0.0,0.0,0.0,0.0,0.0,0.0,0.0,0.0,0.0,0.0,0.0,0.0,0.0,0.0,0.0,0.0,0.0,0.0,0.0,0.0,0.0,0.0,0.0,0.0,0.0,0.0,-1.3686,-1.673,-1.8653,-1.8794,-1.776,-1.6318,-1.4544,0.0,0.0,0.0,0.0,0.0,0.0,0.0,0.0,0.0,0.0,0.0,0.0,0.0,0.0,0.0,0.0,0.0,0.0,0.0,0.0,0.0,0.0,0.0,0.0,0.0,0.0,0.0,0.0,0.0,0.0,0.0,0.0,0.0,0.0,0.0,0.0,0.0,0.0,0.0,0.0,0.0,0.0,0.0,0.0,0.0,0.0,0.0,0.0,0.0,0.0,0.0,0.0,0.0,0.0,0.0,0.0,0.0,0.0,0.0,0.0,0.0,0.0,0.0,0.0,0.0,0.0,0.0,0.0,0.0,0.0,0.0,0.0,0.0,0.0,0.0,0.0,0.0,0.0,0.0,0.0,0.0,0.0,0.0,0.0,0.0,0.0,0.0,0.0,0.0,0.0,0.0,0.0,0.0,0.0,0.0,0.0,0.0,0.0,0.0,0.0,0.0,0.0,0.0,0.0,-1.236,-1.5159,-1.7535,-1.8326,-1.6817,-1.599,-1.512,-1.4133,0.0,0.0,0.0,0.0,0.0,0.0,0.0,0.0,0.0,0.0,0.0,0.0,0.0,0.0,0.0,0.0,0.0,0.0,0.0,0.0,0.0,0.0,0.0,0.0,0.0,0.0,0.0,0.0,0.0,0.0,0.0,0.0,0.0,0.0,0.0,0.0,0.0,0.0,0.0,0.0,0.0,0.0,0.0,0.0,0.0,0.0,0.0,0.0,0.0,0.0,0.0,0.0,0.0,0.0,0.0,0.0,0.0,0.0,0.0,0.0,0.0,0.0,0.0,0.0,0.0,0.0,0.0,0.0,0.0,0.0,0.0,0.0,0.0,0.0,0.0,0.0,0.0,0.0,0.0,0.0,0.0,0.0,0.0,0.0,0.0,0.0,0.0,0.0,0.0,0.0,0.0,0.0,0.0,0.0,0.0,0.0,0.0,0.0,0.0,0.0,0.0,0.0,0.0,-1.2581,-1.413,-1.7352,-1.8486,-1.871,-1.7933,-1.6373,-1.5086,-1.4282,-1.1731,0.0,0.0,0.0,0.0,0.0,0.0,0.0,0.0,0.0,0.0,0.0,0.0,0.0,0.0,0.0,0.0,0.0,0.0,0.0,0.0,0.0,0.0,0.0,0.0,0.0,0.0,0.0,0.0,0.0,0.0,0.0,0.0,0.0,0.0,0.0,0.0,0.0,0.0,0.0,0.0,0.0,0.0,0.0,0.0,0.0,0.0,0.0,0.0,0.0,0.0,0.0,0.0,0.0,0.0,0.0,0.0,0.0,0.0,0.0,0.0,0.0,0.0,0.0,0.0,0.0,0.0,0.0,0.0,0.0,0.0,0.0,0.0,0.0,0.0,0.0,0.0,0.0,0.0,0.0,0.0,0.0,0.0,0.0,0.0,0.0,0.0,0.0,0.0,0.0,0.0,0.0,0.0,0.0,0.0,0.0,0.0,0.0,0.0,0.0,0.0,0.0,0.0,-1.4438,-1.5729,-1.8283,-1.8595,-1.8593,-1.8591,-1.6331,-1.4757,-1.4333,-1.1124,0.0,0.0,0.0,0.0,0.0,0.0,0.0,0.0,0.0,0.0,0.0,0.0,0.0,0.0,0.0,0.0,0.0,0.0,0.0,0.0,0.0,0.0,0.0,0.0,0.0,0.0,0.0,0.0,0.0,0.0,0.0,0.0,0.0,0.0,0.0,0.0,0.0,0.0,0.0,0.0,0.0,0.0,0.0,0.0,0.0,0.0,0.0,0.0,0.0,0.0,0.0,0.0,0.0,0.0,0.0,0.0,0.0,0.0,0.0,0.0,0.0,0.0,0.0,0.0,0.0,0.0,0.0,0.0,0.0,0.0,0.0,0.0,0.0,0.0,0.0,0.0,0.0,0.0,0.0,0.0,0.0,0.0,0.0,0.0,0.0,0.0,0.0,0.0,0.0,0.0,0.0,0.0,0.0,0.0,0.0,0.0,0.0,0.0,0.0,0.0,0.0,0.0,-1.5308,-1.6546,-1.6447,-1.7015,-1.7156,-1.6476,-1.438,-1.3362,-1.3985,-1.1282,0.0,0.0,0.0,0.0,0.0,0.0,0.0,0.0,0.0,0.0,0.0,0.0,0.0,0.0,0.0,0.0,0.0,0.0,0.0,0.0,0.0,0.0,0.0,0.0,0.0,0.0,0.0,0.0,0.0,0.0,0.0,0.0,0.0,0.0,0.0,0.0,0.0,0.0,0.0,0.0,0.0,0.0,0.0,0.0,0.0,0.0,0.0,0.0,0.0,0.0,0.0,0.0,0.0,0.0,0.0,0.0,0.0,0.0,0.0,0.0,0.0,0.0,0.0,0.0,0.0,0.0,0.0,0.0,0.0,0.0,0.0,0.0,0.0,0.0,0.0,0.0,0.0,0.0,0.0,0.0,0.0,0.0,0.0,0.0,0.0,0.0,0.0,0.0,0.0,0.0,0.0,0.0,0.0,0.0,0.0,0.0,0.0,0.0,0.0,0.0,0.0,0.0,-1.4182,-1.5374,0.0,-1.7299,-1.7284,-1.7258,-1.4952,-1.3538,-1.3629,0.0,0.0,0.0,0.0,0.0,0.0,0.0,0.0,0.0,0.0,0.0,0.0,0.0,0.0,0.0,0.0,0.0,0.0,0.0,0.0,0.0,0.0,0.0,0.0,0.0,0.0,0.0,0.0,0.0,0.0,0.0,0.0,0.0,0.0,0.0,0.0,0.0,0.0,0.0,0.0,0.0,0.0,0.0,0.0,0.0,0.0,0.0,0.0,0.0,0.0,0.0,0.0,0.0,0.0,0.0,0.0,0.0,0.0,0.0,0.0,0.0,0.0,0.0,0.0,0.0,0.0,0.0,0.0,0.0,0.0,0.0,0.0,0.0,0.0,0.0,0.0,0.0,0.0,0.0,0.0,0.0,0.0,0.0,0.0,0.0,0.0,0.0,0.0,0.0,0.0,0.0,0.0,0.0,0.0,0.0,0.0,0.0,0.0,0.0,0.0,0.0,0.0,-1.2435,-1.3312,-1.4458,0.0,-1.6817,-1.6957,-1.7342,-1.5041,-1.3473,-1.3165,0.0,0.0,0.0,0.0,0.0,0.0,0.0,0.0,0.0,0.0,0.0,0.0,0.0,0.0,0.0,0.0,0.0,0.0,0.0,0.0,0.0,0.0,0.0,0.0,0.0,0.0,0.0,0.0,0.0,0.0,0.0,0.0,0.0,0.0,0.0,0.0,0.0,0.0,0.0,0.0,0.0,0.0,0.0,0.0,0.0,0.0,0.0,0.0,0.0,0.0,0.0,0.0,0.0,0.0,0.0,0.0,0.0,0.0,0.0,0.0,0.0,0.0,0.0,0.0,0.0,0.0,0.0,0.0,0.0,0.0,0.0,0.0,0.0,0.0,0.0,0.0,0.0,0.0,0.0,0.0,0.0,0.0,0.0,0.0,0.0,0.0,0.0,0.0,0.0,0.0,0.0,0.0,0.0,0.0,0.0,0.0,0.0,0.0,0.0,0.0,0.0,0.0,-1.1282,-1.2957,-1.4139,-1.4727,-1.534,-1.5825,-1.6171,-1.4139,-1.2807,0.0,0.0,0.0,0.0,0.0,0.0,0.0,0.0,0.0,0.0,0.0,0.0,0.0,0.0,0.0,0.0,0.0,0.0,0.0,0.0,0.0,0.0,0.0,0.0,0.0,0.0,0.0,0.0,0.0,0.0,0.0,0.0,0.0,0.0,0.0,0.0,0.0,0.0,0.0,0.0,0.0,0.0,0.0,0.0,0.0,0.0,0.0,0.0,0.0,0.0,0.0,0.0,0.0,0.0,0.0,0.0,0.0,0.0,0.0,0.0,0.0,0.0,0.0,0.0,0.0,0.0,0.0,0.0,0.0,0.0,0.0,0.0,0.0,0.0,0.0,0.0,0.0,0.0,0.0,0.0,0.0,0.0,0.0,0.0,0.0,0.0,0.0,0.0,0.0,0.0,0.0,0.0,0.0,0.0,0.0,0.0,0.0,0.0,0.0,0.0,0.0,0.0,0.0,-1.1313,-1.2957,-1.4139,-1.4727,-1.5178,-1.534,-1.5204,-1.3353,-1.1875,-1.1156,0.0,0.0,0.0,0.0,0.0,0.0,0.0,0.0,0.0,0.0,0.0,0.0,0.0,0.0,0.0,0.0,0.0,0.0,0.0,0.0,0.0,0.0,0.0,0.0,0.0,0.0,0.0,0.0,0.0,0.0,0.0,0.0,0.0,0.0,0.0,0.0,0.0,0.0,0.0,0.0,0.0,0.0,0.0,0.0,0.0,0.0,0.0,0.0,0.0,0.0,0.0,0.0,0.0,0.0,0.0,0.0,0.0,0.0,0.0,0.0,0.0,0.0,0.0,0.0,0.0,0.0,0.0,0.0,0.0,0.0,0.0,0.0,0.0,0.0,0.0,0.0,0.0,0.0,0.0,0.0,0.0,0.0,0.0,0.0,0.0,0.0,0.0,0.0,0.0,0.0,0.0,0.0,0.0,0.0,0.0,0.0,0.0,0.0,0.0,0.0,0.0,0.0,-1.1093,-1.2462,-1.3532,-1.4263,-1.4514,-1.45,-1.4184,-1.2778,-1.1458,-1.0394,0.0,0.0,0.0,0.0,0.0,0.0,0.0,0.0,0.0,0.0,0.0,0.0,0.0,0.0,0.0,0.0,0.0,0.0,0.0,0.0,0.0,0.0,0.0,0.0,0.0,0.0,0.0,0.0,0.0,0.0,0.0,0.0,0.0,0.0,0.0,0.0,0.0,0.0,0.0,0.0,0.0,0.0,0.0,0.0,0.0,0.0,0.0,0.0,0.0,0.0,0.0,0.0,0.0,0.0,0.0,0.0,0.0,0.0,0.0,0.0,0.0,0.0,0.0,0.0,0.0,0.0,0.0,0.0,0.0,0.0,0.0,0.0,0.0,0.0,0.0,0.0,0.0,0.0,0.0,0.0,0.0,0.0,0.0,0.0,0.0,0.0,0.0,0.0,0.0,0.0,0.0,0.0,0.0,0.0,0.0,0.0,0.0,0.0,0.0,0.0,0.0,0.0,-1.0735,-1.1784,-1.2679,-1.3507,-1.358,-1.3453,-1.3233,-1.2385,-1.1417,-1.0227,0.0,0.0,0.0,0.0,0.0,0.0,0.0,0.0,0.0,0.0,0.0,0.0,0.0,0.0,0.0,0.0,0.0,0.0,0.0,0.0,0.0,0.0,0.0,0.0,0.0,0.0,0.0,0.0,0.0,0.0,0.0,0.0,0.0,0.0,0.0,0.0,0.0,0.0,0.0,0.0,0.0,0.0,0.0,0.0,0.0,0.0,0.0,0.0,0.0,0.0,0.0,0.0,0.0,0.0,0.0,0.0,0.0,0.0,0.0,0.0,-0.548,0.0,0.0,0.0,0.0,0.0,0.0,0.0,0.0,0.0,0.0,0.0,0.0,0.0,0.0,0.0,0.0,0.0,0.0,0.0,0.0,0.0,0.0,0.0,0.0,0.0,0.0,0.0,0.0,0.0,0.0,0.0,0.0,0.0,0.0,0.0,0.0,0.0,0.0,0.0,0.0,0.0,-1.0788,-1.2,-1.2945,-1.3533,-1.34,-1.328,-1.3213,-1.2385,-1.1504,-1.0559,-0.9579,0.0,0.0,0.0,0.0,0.0,0.0,0.0,0.0,0.0,0.0,0.0,0.0,0.0,0.0,0.0,0.0,0.0,0.0,0.0,0.0,0.0,0.0,0.0,0.0,0.0,0.0,0.0,0.0,0.0,0.0,0.0,0.0,0.0,0.0,0.0,0.0,0.0,0.0,0.0,0.0,0.0,0.0,0.0,0.0,0.0,0.0,0.0,0.0,0.0,0.0,0.0,0.0,0.0,0.0,0.0,0.0,0.0,0.0,0.0,0.0,-0.6135,0.0,0.0,0.0,0.0,0.0,0.0,0.0,0.0,0.0,0.0,0.0,0.0,0.0,0.0,0.0,0.0,0.0,0.0,0.0,0.0,0.0,0.0,0.0,0.0,0.0,0.0,0.0,0.0,0.0,0.0,0.0,0.0,0.0,0.0,0.0,0.0,0.0,0.0,0.0,0.0,-1.1015,-1.2141,-1.3072,-1.3781,-1.3467,-1.3213,-1.3213,-1.2385,-1.1591,-1.0847,-1.0067,0.0,0.0,0.0,0.0,0.0,0.0,0.0,0.0,0.0,0.0,0.0,0.0,0.0,0.0,0.0,0.0,0.0,0.0,0.0,0.0,0.0,0.0,0.0,0.0,0.0,0.0,0.0,0.0,0.0,0.0,0.0,0.0,0.0,0.0,0.0,0.0,0.0,0.0,0.0,0.0,0.0,0.0,0.0,0.0,0.0,0.0,0.0,0.0,0.0,0.0,0.0,0.0,0.0,-0.7287,-0.7516,-0.7831,-0.7831,-0.7882,-0.7926,-0.7183,-0.6997,-0.7125,-0.6458,0.0,0.0,0.0,0.0,0.0,0.0,0.0,0.0,0.0,0.0,0.0,0.0,0.0,0.0,0.0,0.0,0.0,0.0,0.0,0.0,0.0,0.0,0.0,0.0,-1.1205,-1.1175,0.0,0.0,0.0,0.0,0.0,0.0,0.0,0.0,0.0,0.0,0.0,0.0,-1.1289,-1.2315,-1.3192,-1.3995,-1.3561,-1.3213,-1.3213,-1.2432,-1.1752,-1.1176,-1.0595,-0.9813,0.0,0.0,0.0,0.0,0.0,0.0,0.0,0.0,0.0,0.0,0.0,0.0,0.0,0.0,0.0,0.0,0.0,0.0,0.0,0.0,0.0,0.0,0.0,0.0,0.0,0.0,0.0,0.0,0.0,0.0,0.0,0.0,-0.1764,-0.1869,0.0,0.0,0.0,0.0,0.0,0.0,0.0,0.0,0.0,0.0,0.0,0.0,0.0,-0.69,-0.7087,-0.758,-0.7919,-0.8099,-0.837,-0.8594,-0.871,-0.871,-0.8699,-0.8584,-0.8465,0.0,-0.7512,-0.7098,0.0,0.0,0.0,0.0,0.0,0.0,0.0,0.0,0.0,0.0,0.0,0.0,0.0,0.0,0.0,0.0,0.0,0.0,0.0,0.0,0.0,0.0,-1.1987,-1.3309,-1.3629,-1.3477,0.0,-1.1563,-1.0472,-1.0278,-0.9452,0.0,0.0,0.0,0.0,0.0,0.0,0.0,-1.165,-1.2592,-1.3394,-1.4021,-1.3561,-1.3213,-1.3213,-1.2619,-1.2104,-1.1812,-1.1236,-1.0695,-1.0325,-0.9079,0.0,0.0,0.0,0.0,0.0,0.0,0.0,0.0,0.0,0.0,0.0,0.0,0.0,0.0,0.0,0.0,0.0,0.0,0.0,0.0,0.0,0.0,0.0,0.0,0.0,0.0,0.0,0.0,0.0,-0.1619,-0.2785,-0.3119,-0.2888,-0.2914,0.0,0.0,0.0,0.0,0.0,0.0,0.0,0.0,0.0,-0.7092,-0.7579,-0.7946,-0.8252,-0.8396,-0.8618,-0.8821,-0.8951,-0.9039,-0.9188,-0.9188,-0.915,-0.9089,-0.9089,-0.8808,-0.8309,-0.7746,-0.7353,-0.7068,0.0,0.0,0.0,0.0,-0.6563,-0.6552,-0.6993,-0.7034,0.0,-0.679,0.0,0.0,0.0,0.0,0.0,0.0,0.0,0.0,0.0,0.0,-1.1969,-1.4091,-1.4626,-1.4509,-1.4249,-1.3454,-1.2492,0.0,-1.1182,-1.0646,-0.936,0.0,0.0,0.0,0.0,0.0,-1.2024,-1.2899,-1.3621,-1.4041,-1.3561,-1.3213,-1.3213,-1.2652,-1.2178,-1.1926,-1.147,-1.1035,-1.0613,-0.9809,-0.8985,0.0,0.0,0.0,0.0,0.0,0.0,0.0,0.0,0.0,0.0,0.0,0.0,0.0,0.0,0.0,0.0,0.0,0.0,0.0,0.0,0.0,0.0,0.0,0.0,0.0,0.0,0.0,0.0,-0.2323,-0.3567,-0.4005,-0.4033,-0.4292,0.0,0.0,0.0,0.0,0.0,0.0,-0.6391,-0.7269,-0.7953,-0.8531,-0.8651,-0.8781,-0.9049,-0.9052,-0.9123,-0.9326,-0.9326,-0.9347,-0.9493,-0.9493,-0.9476,-0.9439,-0.9439,-0.9293,-0.9001,-0.8364,-0.797,-0.7736,-0.74,-0.7177,-0.7075,-0.7336,-0.7363,-0.7339,-0.7818,-0.7865,-0.7682,-0.7492,0.0,-0.7119,-0.6719,0.0,0.0,0.0,0.0,-0.7746,-1.0353,-1.1256,-1.2115,-1.4598,-1.5184,-1.5209,-1.5135,-1.4903,-1.4309,0.0,-1.2757,-1.2388,-1.0774,0.0,0.0,0.0,0.0,-1.2118,-1.2485,-1.3147,-1.372,-1.4055,-1.3561,-1.3213,-1.3213,-1.2652,-1.2105,-1.1598,-1.1451,-1.1095,-1.0399,-1.019,-0.9673,-0.875,0.0,0.0,0.0,0.0,0.0,0.0,0.0,0.0,0.0,0.0,0.0,0.0,0.0,0.0,0.0,0.0,0.0,0.0,0.0,0.0,0.0,0.0,0.0,0.0,0.0,0.0,0.0,0.0,0.0,-0.3629,-0.486,0.0,0.0,0.0,0.0,-0.561,-0.6177,-0.6939,-0.8133,-0.8482,-0.8788,-0.9156,-0.9173,-0.9255,-0.9357,-0.9357,-0.9435,-0.9588,-0.9588,-0.9659,-0.9798,-0.9798,-0.9727,-0.9598,-0.9598,-0.9507,-0.9334,-0.9015,-0.8628,-0.8286,-0.8262,-0.8109,-0.7941,-0.8153,-0.8258,-0.8279,-0.8391,-0.8258,-0.7988,-0.817,-0.7876,-0.7398,-0.7368,-0.7119,0.0,0.0,-0.8001,-0.9362,-1.1207,-1.2447,-1.3689,-1.5368,-1.5738,-1.5712,-1.5431,-1.5364,-1.5157,0.0,-1.3741,-1.306,-1.2697,0.0,-1.1839,-1.1779,-1.2044,-1.2492,-1.3086,-1.3407,-1.372,-1.4055,-1.3561,-1.3213,-1.3213,-1.2652,-1.1842,-1.0725,-1.1131,-1.091,-0.9777,-0.9976,-0.996,-0.9655,-0.8797,0.0,0.0,0.0,0.0,0.0,0.0,0.0,0.0,0.0,0.0,0.0,0.0,0.0,0.0,0.0,0.0,0.0,0.0,0.0,0.0,0.0,0.0,0.0,0.0,0.0,0.0,0.0,0.0,-0.5306,-0.594,0.0,-0.7383,-0.6562,-0.6425,-0.7585,-0.7914,-0.8298,-0.8828,-0.9127,-0.9378,-0.9578,-0.9774,-0.9907,-0.9961,-0.9961,-0.9988,-1.0042,-1.0042,-1.0015,-0.9906,-0.9906,-0.9886,-0.9744,-0.9744,-0.9663,-0.952,-0.9415,-0.9106,-0.8689,-0.8591,-0.8459,-0.8333,-0.8387,-0.8408,-0.8414,-0.8465,-0.8414,-0.8316,-0.8282,-0.8058,-0.7801,-0.7801,-0.7678,-0.7607,-0.7658,-0.8041,-0.8727,-1.0197,-1.1535,-1.2805,-1.4244,-1.5194,-1.5751,-1.5698,-1.5671,-1.5611,-1.5358,-1.481,-1.4062,-1.3193,-1.3186,-1.3033,-1.2265,-1.2732,-1.3207,-1.342,-1.3748,-1.3968,-1.4075,-1.3728,-1.3373,-1.3227,-1.2652,-1.2068,-1.1455,-1.0717,-1.0074,-0.9604,-0.8925,-0.8603,-0.872,-0.8222,-0.7604,0.0,0.0,0.0,0.0,0.0,0.0,0.0,0.0,0.0,0.0,0.0,0.0,0.0,0.0,0.0,0.0,0.0,0.0,0.0,0.0,0.0,0.0,0.0,0.0,0.0,0.0,-0.538,-0.5589,-0.6213,-0.7161,-0.8458,-0.803,-0.8048,-0.8878,-0.9123,-0.93,-0.9449,-0.9696,-0.988,-0.9971,-1.0175,-1.028,-1.028,-1.028,-1.028,-1.028,-1.028,-1.0226,-1.0127,-1.0127,-1.0042,-0.9835,-0.9835,-0.9815,-0.968,-0.968,-0.9476,-0.915,-0.8994,-0.8842,-0.8763,-0.8763,-0.8679,-0.8628,-0.8577,-0.856,-0.8533,-0.8387,-0.8241,-0.8116,-0.8116,-0.8029,-0.7988,-0.7988,-0.7988,-0.8333,-0.9657,-1.0974,-1.2237,-1.359,-1.4848,-1.5784,-1.5784,-1.5784,-1.5784,-1.5784,-1.5438,-1.4863,-1.4082,-1.4108,-1.3968,-1.3173,-1.3474,-1.3753,-1.3753,-1.3968,-1.4088,-1.4088,-1.378,-1.3487,-1.3233,-1.2652,-1.1915,-1.1013,-1.0178,-0.9507,-0.9066,-0.8411,-0.8267,-0.8707,-0.8287,-0.7883,-0.7475,0.0,0.0,0.0,0.0,0.0,0.0,0.0,0.0,0.0,0.0,0.0,0.0,0.0,0.0,0.0,0.0,0.0,0.0,0.0,0.0,0.0,0.0,0.0,-0.2088,-0.3129,-0.413,-0.4181,-0.5593,-0.7066,-0.8547,-0.9015,-0.9306,-0.9398,-0.9673,-0.99,-0.9987,-1.0205,-1.0287,-1.0287,-1.029,-1.0293,-1.0293,-1.0293,-1.0293,-1.0293,-1.0293,-1.029,-1.0287,-1.0287,-1.0202,-0.9987,-0.9987,-0.9903,-0.9822,-0.9822,-0.9741,-0.9602,-0.9449,-0.9354,-0.9217,-0.921,-0.9062,-0.8861,-0.8767,-0.8713,-0.8686,-0.8537,-0.8391,-0.8327,-0.8323,-0.8167,-0.7995,-0.7992,-0.7988,-0.8333,-0.9657,-1.0974,-1.2237,-1.359,-1.4848,-1.5784,-1.5784,-1.5784,-1.5784,-1.5784,-1.5605,-1.5404,-1.5398,-1.4923,-1.4543,-1.4479,-1.4282,0.0,-1.4088,-1.4088,-1.4088,-1.4088,-1.3828,-1.35,-1.3253,-1.2665,-1.1402,-0.9337,-0.9518,-0.9276,-0.829,-0.8589,-0.9047,-0.9657,-0.9118,-0.8824,-0.8824,0.0,0.0,0.0,0.0,0.0,0.0,0.0,0.0,0.0,0.0,0.0,0.0,0.0,0.0,0.0,0.0,0.0,0.0,0.0,0.0,0.0,0.0,-0.3882,-0.3457,-0.47,-0.5382,-0.4509,-0.6029,-0.7378,-0.7856,-0.9175,-0.9988,-1.0029,-1.0107,-1.0171,-1.0215,-1.0354,-1.0432,-1.0432,-1.0541,-1.0599,-1.0599,-1.0599,-1.0599,-1.0599,-1.0599,-1.0541,-1.0432,-1.0432,-1.0293,-0.9987,-0.9987,-0.9903,-0.9822,-0.9822,-0.9798,-0.9747,-0.9602,-0.9452,-0.9306,-0.9251,-0.9062,-0.8878,-0.8838,-0.8804,-0.8703,-0.8662,-0.8547,-0.8404,-0.8354,-0.8241,-0.8184,-0.8022,-0.7988,-0.8333,-0.9657,-1.0974,-1.2237,-1.359,-1.4848,-1.5784,-1.5784,-1.5784,-1.5784,-1.5784,-1.5718,-1.5645,-1.5431,-1.5264,-1.501,-1.4583,-1.4449,0.0,-1.4115,-1.4088,-1.4088,-1.4088,-1.4015,-1.3841,-1.3507,-1.2973,-1.2219,-1.1205,-1.0246,-0.9534,-0.9146,-0.8406,-0.8279,-0.8886,-0.9026,-0.9091,0.0,0.0,0.0,0.0,0.0,0.0,0.0,0.0,0.0,0.0,0.0,0.0,0.0,0.0,0.0,0.0,0.0,0.0,0.0,0.0,0.0,0.0,-0.3561,-0.3203,-0.3169,-0.3947,-0.4281,-0.3751,-0.5312,-0.6729,-0.7529,-0.9263,-1.0304,-1.0365,-1.0368,-1.0395,-1.0463,-1.0541,-1.0585,-1.0585,-1.0673,-1.0721,-1.0721,-1.0721,-1.0721,-1.0721,-1.0721,-1.0673,-1.0585,-1.0585,-1.0456,0.0,-1.0171,-1.0059,-0.9852,-0.9846,-0.9822,0.0,0.0,0.0,0.0,0.0,-0.9062,-0.8885,-0.8885,-0.8824,-0.8804,-0.8804,-0.8703,-0.8564,-0.8479,-0.837,-0.8252,-0.8163,-0.8089,-0.8333,-0.9657,-1.0974,-1.2237,-1.359,-1.4848,-1.5784,-1.5784,-1.5784,-1.5784,-1.5784,-1.5784,0.0,-1.5605,-1.5478,-1.5277,-1.4937,-1.4676,-1.4456,-1.4289,-1.4162,-1.4088,-1.4088,-1.4088,-1.3968,-1.3626,-1.3093,0.0,0.0,0.0,-0.975,-0.944,-0.9078,0.0,0.0,0.0,0.0,0.0,0.0,0.0,0.0,-0.9185,-0.9426,0.0,0.0,0.0,0.0,0.0,0.0,0.0,0.0,0.0,0.0,0.0,0.0,0.0,0.0,0.0,0.0,-0.2894,-0.2127,-0.2053,-0.1892,-0.1855,-0.2154,-0.3753,-0.5517,-0.7196,-0.8959,-1.0186,-1.0507,-1.0517,-1.0575,-1.0714,0.0,0.0,0.0,0.0,-1.0721,-1.0721,-1.0721,-1.0721,-1.0721,-1.0721,-1.0721,-1.0721,-1.0721,-1.0636,-1.0483,-1.0358,-1.0209,-0.9977,-0.9842,-0.9836,-0.9822,-0.9822,-0.9734,-0.9578,-0.9361,-0.9103,-0.8908,-0.8908,0.0,0.0,-0.8885,-0.8849,-0.8733,-0.8716,-0.8526,-0.8364,-0.833,-0.817,-0.8357,-0.9858,-1.1068,-1.2285,-1.3782,-1.4997,-1.5784,-1.5784,-1.5784,-1.5784,-1.5784,-1.5784,-1.5784,-1.5784,-1.5618,-1.5431,-1.5398,-1.495,-1.4596,-1.4529,-1.4295,-1.4122,-1.4088,0.0,0.0,-1.3673,-1.3173,-1.2402,-1.1313,-1.0573,-0.9959,-0.9542,-1.0329,-1.072,-1.0687,-1.0687,-1.0909,-1.1389,-1.1389,-1.1309,-1.1076,-1.0261,-1.0342,0.0,0.0,0.0,0.0,0.0,0.0,0.0,0.0,0.0,0.0,0.0,0.0,0.0,0.0,0.0,-0.2701,-0.2239,-0.2052,-0.2125,-0.1112,-0.0437,-0.0502,-0.2054,-0.3846,-0.5684,-0.7391,-0.9042,-1.0541,-1.0677,-1.0687,-1.0717,-1.0721,-1.0721,-1.0721,-1.0721,-1.0721,-1.0721,-1.0721,-1.0721,-1.0721,0.0,0.0,-1.0721,-1.0721,-1.0636,-1.049,-1.0463,-1.03,-0.9984,-0.9957,-0.9869,-0.9822,-0.9822,-0.9734,-0.9602,-0.9544,-0.9347,-0.9169,-0.9169,-0.9035,-0.8885,-0.8885,-0.8865,-0.8817,-0.8747,-0.8669,0.0,-0.8336,-0.8248,-0.8747,-1.0967,-1.1707,-1.2479,-1.4854,-1.5635,-1.5784,-1.5784,-1.5784,-1.5784,-1.5784,-1.5784,-1.5784,-1.5784,-1.5785,-1.5665,-1.5431,-1.5304,-1.5057,-1.4583,-1.4469,-1.4349,-1.4115,-1.4088,-1.4062,-1.4008,-1.3674,-1.2872,-1.1545,-1.0845,-1.0635,-1.0971,-1.1421,-1.1503,-1.1263,-1.1263,-1.1316,-1.1389,-1.1389,-1.1516,-1.1725,-1.1283,-1.1405,0.0,0.0,0.0,0.0,0.0,0.0,0.0,0.0,0.0,0.0,0.0,-0.4911,-0.3396,0.0,-0.3714,-0.2306,-0.1467,-0.1032,-0.1119,-0.0445,0.0,0.0,-0.163,-0.3425,-0.5236,-0.7,-0.8767,-1.0585,-1.0721,-1.0721,-1.0721,-1.0721,-1.0721,-1.0721,-1.0721,-1.0721,-1.0721,-1.0721,-1.0721,-1.0721,-1.0721,-1.0721,-1.0721,-1.0721,-1.0677,-1.0599,-1.0449,-1.03,-1.0151,-0.9998,-0.989,-0.9822,-0.9822,-0.9734,-0.9608,-0.9608,-0.9415,-0.921,-0.921,-0.9059,-0.8885,-0.8885,-0.8885,-0.8868,-0.8849,-0.8771,-0.8662,-0.8438,-0.8378,-0.8838,-1.1271,-1.1896,-1.2576,-1.5201,-1.5784,-1.5784,-1.5784,-1.5289,-1.4854,-1.4854,-1.4322,-1.3836,-1.3836,-1.4418,-1.5,-1.5538,-1.5491,-1.5291,-1.4997,-1.4703,-1.4469,-1.4315,-1.4175,-1.4088,-1.4088,-1.3256,-1.2133,-1.0692,-1.0886,-1.1082,-1.1211,-1.1931,-1.2201,-1.187,-1.1864,-1.1864,-1.1864,-1.2017,-1.2201,-1.2342,-1.2318,-1.2288,0.0,0.0,0.0,0.0,0.0,0.0,0.0,0.0,-0.2661,-0.2637,-0.4718,-0.6053,-0.456,-0.4007,-0.3321,-0.183,-0.073,0.0,0.0,0.0,0.0,0.0,-0.1582,-0.338,-0.5223,-0.6965,-0.8767,-1.0585,-1.0721,-1.0721,-1.0721,-1.0721,-1.0721,-1.0721,-1.0721,-1.0721,-1.0721,-1.0721,-1.0721,-1.0721,-1.0721,-1.0721,-1.0721,-1.0721,-1.0721,-1.0704,-1.0409,-1.028,-1.0256,-0.9947,-0.9822,-0.9822,-0.9822,-0.9751,-0.9649,-0.9649,-0.9459,-0.9255,-0.9255,-0.9083,-0.8885,-0.8885,-0.8885,-0.8885,-0.8885,-0.8797,-0.8723,-0.857,-0.8421,-0.8831,-1.1032,-1.1736,-1.2479,-1.4854,-1.5635,-1.573,-1.5486,-1.4609,-1.3824,-1.3536,-1.2624,-1.1994,-1.2237,-1.3199,-1.4268,-1.5289,-1.5437,-1.5464,-1.5404,-1.4983,-1.4649,-1.4529,-1.4309,-1.4057,-1.3779,-1.2278,-1.0871,-0.9866,-1.0705,-1.1204,-1.1109,-1.2241,-1.2764,-1.2485,-1.2478,-1.2478,-1.2478,-1.2757,-1.2878,-1.2878,-1.3093,-1.2946,0.2994,0.1492,0.0,0.0,0.0,0.0,0.0,0.0,-0.424,-0.424,-0.5543,-0.6247,-0.4748,-0.332,-0.1921,-0.049,-0.0125,0.0,0.0,0.0,0.0,0.0,-0.1596,-0.3415,-0.5228,-0.6965,-0.8767,-1.0585,-1.0721,-1.0721,-1.0721,-1.0721,-1.0721,-1.0721,-1.0721,-1.0721,-1.0721,-1.0721,-1.0721,-1.0721,-1.0721,-1.0721,-1.0721,-1.0721,-1.0721,-1.0704,-1.0409,-1.028,-1.0256,-0.9947,-0.9822,-0.9822,-0.9822,-0.9812,-0.9798,-0.9798,-0.9608,-0.9354,-0.9354,-0.9171,-0.8885,-0.8885,-0.8885,-0.8885,-0.8885,-0.8871,-0.8824,-0.8726,-0.8574,-0.8782,-1.0078,-1.1149,-1.2285,-1.3782,-1.4997,-1.5486,-1.4364,-1.4022,-1.3542,-1.2334,-1.1994,-1.2285,-1.3488,-1.3776,-1.3974,-1.407,-1.5067,-1.5691,-1.5431,-1.5337,-1.5097,-1.4576,-1.4489,-1.3918,-1.2607,-1.0504,-0.9504,-1.0095,-1.0288,-1.0681,-1.1409,-1.2547,-1.314,-1.3106,-1.3106,-1.3106,-1.3106,-1.314,-1.316,-1.316,-1.3193,-1.3173,0.1688,0.0672,0.0,0.0,0.0,0.0,0.0,-0.1628,-0.3143,-0.3188,-0.4431,-0.5059,-0.3473,-0.2702,-0.1839,0.0,0.0,0.0,0.0,0.0,0.0,0.0,-0.2426,-0.4462,-0.5294,-0.609,-0.7632,-1.0512,-1.0721,-1.0721,-1.0721,-1.0721,-1.0721,-1.0721,-1.0721,-1.0721,-1.0721,-1.0721,-1.0721,-1.0721,-1.0721,-1.0721,-1.0721,-1.0721,-1.067,-1.0575,-1.0371,-1.0229,-1.0131,-0.991,-0.9822,-0.9822,-0.9822,-0.9822,-0.9822,-0.9822,-0.969,-0.9513,-0.9513,-0.9317,-0.9062,-0.9062,-0.9008,-0.8885,-0.8885,-0.8885,-0.8851,-0.8754,-0.8601,-0.8755,-0.9908,-1.0477,-1.1116,-1.2431,-1.3156,-1.3397,-1.2866,-1.2134,-1.1453,-1.0925,-1.0141,-1.0043,-1.1404,-1.2231,-1.3006,-1.3782,-1.4997,-1.5738,-1.5665,-1.5504,-1.493,-1.363,-1.3523,-1.2659,-1.0501,-0.9449,-0.8765,-0.8426,-0.9662,-1.0598,-1.0967,-1.274,-1.3641,-1.3427,-1.342,-1.334,-1.3213,-1.334,-1.342,-1.3427,-1.3641,-1.3721,0.0621,0.0,0.0,0.0,0.0,0.0,0.0,-0.1194,-0.2265,-0.2265,-0.3252,-0.3723,-0.2525,-0.2004,-0.1417,-0.0189,0.0,0.0,0.0,0.0,0.0,0.0,-0.2581,-0.4616,-0.5246,-0.6203,-0.7916,-1.0508,-1.0721,-1.0721,-1.0721,-1.0721,-1.0721,-1.0721,-1.0721,-1.0721,-1.0721,-1.0721,-1.0721,-1.0721,-1.0721,-1.0721,-1.0721,-1.0721,-1.066,-1.0544,-1.0358,-1.0215,-1.0097,-0.9903,-0.9822,-0.9822,-0.9822,-0.9822,-0.9822,-0.9822,-0.973,-0.9608,-0.9608,-0.9408,-0.921,-0.921,-0.9055,-0.8885,-0.8885,-0.8885,-0.8861,-0.8804,-0.8662,-0.8716,-0.9528,-0.9907,-1.0304,-1.1179,-1.1653,-1.1804,-1.1463,-1.0632,-0.9903,-0.9509,-0.897,-0.897,-1.0293,-1.1604,-1.2909,-1.422,-1.5194,-1.5784,-1.5784,-1.5238,-1.4381,-1.3102,-1.226,-1.1006,-0.9103,-0.8612,-0.8189,-0.7621,-0.9483,-1.074,-1.1042,-1.3039,-1.3988,-1.3726,-1.3726,-1.362,-1.3454,-1.362,-1.3726,-1.3733,-1.3988,-1.4088,0.0,0.0,0.0,0.0,0.0,0.0,0.0,-0.1293,-0.2462,-0.2462,-0.2524,-0.2526,-0.2526,-0.1145,-0.0061,0.0,0.0,0.0,0.0,0.0,0.0,0.0,-0.1528,-0.3274,0.0,-0.8317,-1.0424,-1.0711,-1.0721,-1.0721,-1.0721,-1.0721,-1.0721,-1.0721,-1.0721,-1.0721,-1.0721,-1.0721,-1.0721,-1.0721,-1.0721,-1.0721,-1.0721,-1.0721,-1.0717,-1.0697,-1.0405,-1.0276,-1.0249,-0.9947,-0.9822,-0.9822,-0.9822,-0.9822,-0.9822,-0.9822,-0.973,-0.9608,-0.9608,-0.9408,-0.921,-0.921,-0.9055,-0.8885,-0.8885,-0.8885,-0.8881,-0.8878,-0.8821,-0.8669,-0.8565,-0.9381,-1.0159,-1.0089,-1.1023,-1.1556,-1.0337,-1.0047,-0.9608,-0.8333,-0.9069,-1.0342,-1.1604,-1.2958,-1.4262,-1.554,-1.5784,-1.5784,-1.5784,-1.4415,-1.3432,-1.3374,-1.0873,-0.9197,-0.9099,-0.7882,-0.7621,-0.8759,-0.9966,-1.108,-1.22,-1.3428,-1.4082,-1.4075,-1.4075,-1.4068,-1.4062,-1.4068,-1.4075,-1.4075,-1.4082,-1.4088,0.0,0.0,0.0,0.0,0.0,0.0,0.0,-0.0425,-0.0854,-0.0845,-0.0837,-0.0828,-0.0819,-0.0409,0.0,0.0,0.0,0.0,0.0,0.0,-0.0393,-0.1548,-0.3201,0.0,0.0,0.0,0.0,-1.0482,-1.0568,-1.0612,-1.0714,-1.0721,-1.0721,-1.0721,-1.0721,-1.0721,-1.0721,-1.0721,-1.0721,-1.0721,-1.0721,-1.0721,-1.0721,-1.0721,-1.0721,-1.0711,-1.0507,-1.0368,-1.0263,-1.0056,-0.9852,-0.9822,-0.9822,-0.9822,-0.9822,-0.9822,-0.9791,-0.9751,-0.9751,-0.9622,-0.9439,-0.9337,-0.9205,-0.9062,-0.8967,-0.8885,-0.8885,-0.8885,-0.8828,-0.8699,-0.8648,-0.8758,-0.8907,-0.8906,-0.9103,-0.9213,-0.8775,-0.8676,-0.8531,-0.8088,-0.9069,-1.0386,-1.1702,-1.3006,-1.407,-1.4459,-1.4555,-1.4555,-1.4555,-1.3276,-1.2061,-1.11,-1.0162,-0.9153,-0.806,-0.7545,-0.7737,-0.8811,-0.9966,-1.1123,-1.2237,-1.347,-1.4088,-1.4088,-1.4088,-1.4088,-1.4088,-1.4088,-1.4088,-1.4088,-1.4088,-1.4088,0.0,0.0,0.0,0.0,0.0,0.0,0.0,0.0,0.0,0.0,0.0,0.0,0.0,0.0,0.0,0.0,0.0,0.0,0.0,-0.053,-0.1377,-0.2465,-0.4639,0.0,0.0,0.0,0.0,-1.0482,-1.0571,-1.0616,-1.0714,-1.0721,-1.0721,-1.0721,-1.0721,-1.0721,-1.0721,-1.0721,-1.0721,-1.0721,-1.0721,-1.0721,-1.0721,-1.0721,-1.0721,-1.0711,-1.0558,-1.0412,-1.0266,-1.0051,-0.9899,-0.9822,-0.9822,-0.9822,-0.9822,-0.9822,-0.9822,-0.9822,-0.9822,-0.9727,-0.9595,-0.9496,-0.932,-0.919,-0.9045,-0.8981,-0.8885,-0.8885,-0.8814,-0.8777,-0.8723,-0.853,-0.8333,-0.8333,-0.815,-0.7988,-0.7988,-0.7988,-0.7988,-0.7988,-0.9069,-1.0386,-1.1702,-1.3397,-1.4411,-1.3974,-1.3488,-1.3199,-1.3199,-1.2037,-1.0875,-0.9974,-0.942,-0.868,-0.7636,-0.7482,-0.7907,-0.8959,-0.9745,-1.0808,-1.2345,-1.3139,-1.3713,-1.4088,-1.4088,-1.4088,-1.4088,-1.4088,-1.4088,-1.4088,-1.4088,-1.4088,0.0326,0.0,0.0,0.0,0.0,0.0,0.0,0.0,0.0,0.0,0.0,0.0,0.0,0.0,0.0,0.0,0.0,0.0,0.0,-0.1579,-0.2762,0.0,0.0,0.0,0.0,0.0,0.0,-1.07,0.0,-1.0711,-1.0721,-1.0721,-1.0721,-1.0721,-1.0721,-1.0721,-1.0721,-1.0721,-1.0721,-1.0721,-1.0721,-1.0721,-1.0721,-1.0721,-1.0721,-1.0711,-1.0568,-1.0422,-1.028,-1.0124,-0.9909,-0.9832,-0.9825,-0.9822,-0.9822,-0.9822,-0.9822,-0.9822,-0.9822,-0.9734,-0.9618,-0.9612,-0.9408,-0.9221,-0.921,-0.9052,-0.8885,-0.8885,-0.8885,-0.8851,-0.876,-0.8608,-0.8459,-0.8368,-0.8163,-0.7998,-0.7992,-0.7988,-0.7988,-0.7988,-0.9118,-1.0485,-1.1799,-1.4082,-1.5289,-1.3974,-1.2668,-1.1804,-1.1804,-1.0681,-0.9903,-0.9903,-0.8635,-0.7821,-0.7811,-0.7689,-0.8114,-0.9207,-0.9296,-1.0269,-1.2447,-1.2568,-1.3076,-1.405,-1.4128,-1.4135,-1.4135,-1.4135,-1.4135,-1.4135,-1.4135,-1.4135,0.0114,0.0,0.0,0.0,0.0,0.0,0.0,0.0,0.0,0.0,0.0,0.0,0.0,0.0,0.0,0.0,0.0,0.0,0.0,-0.1527,0.0,0.0,0.0,-0.8443,-0.966,-1.0277,0.0,0.0,-1.0616,-1.0599,-1.0714,-1.0721,-1.0721,-1.0721,-1.0721,-1.0721,-1.0721,-1.0721,-1.0721,-1.0721,-1.0721,-1.0721,-1.0721,-1.0721,-1.0721,-1.0717,-1.068,-1.0575,-1.0426,-1.0283,-1.0131,-0.9916,-0.9866,-0.9822,-0.9822,-0.9822,-0.9822,-0.9822,-0.9822,-0.9798,-0.9751,-0.9642,-0.9479,-0.9303,-0.9245,-0.9052,-0.8885,-0.8885,-0.8885,-0.8875,-0.8838,-0.8767,-0.8615,-0.8465,-0.8319,-0.818,-0.8015,-0.7988,-0.7988,-0.7988,-0.985,-1.1848,-1.3151,-1.3926,-1.3926,-1.2624,-1.1312,-1.0485,-1.0485,-0.9316,-0.8528,-0.8528,-0.8149,-0.7887,-0.7821,-0.7777,-0.8178,-0.9215,-0.9296,-0.9965,-1.1414,-1.2372,-1.3025,-1.3278,-1.4281,-1.4787,-1.4787,-1.4787,-1.4787,-1.4787,-1.4787,-1.4787,0.0,0.0,0.0,0.0,0.0,0.0,0.0,0.0,0.0,0.0,0.0,0.0,0.0,0.0,0.0,0.0,0.0,0.0,0.0,-0.2246,-0.4213,0.0,-0.7595,0.0,-1.0467,-1.067,-1.0721,0.0,-1.0639,-1.0629,-1.0714,-1.0721,-1.0721,-1.0721,-1.0721,-1.0721,-1.0721,-1.0721,-1.0721,-1.0721,-1.0721,-1.0721,-1.0721,-1.0721,-1.0721,-1.0721,0.0,-1.0633,-1.0483,-1.0405,-1.0243,-0.9977,-0.9893,-0.988,-0.9822,-0.9822,-0.9822,-0.9822,-0.9822,-0.9822,-0.9808,-0.9727,-0.9557,-0.9364,-0.9337,-0.9106,-0.8885,-0.8885,-0.8885,-0.8885,-0.8885,-0.8825,-0.8689,-0.8604,-0.8421,-0.8248,-0.816,-0.8039,-0.7988,-0.7988,-0.9657,-1.1312,-1.2086,-1.2668,-1.2571,-1.1263,-1.0435,-0.9801,-0.9217,-0.8482,-0.7988,-0.7988,-0.7988,-0.7955,-0.7919,-0.7913,-0.8115,-0.8693,-0.8737,-0.9219,-1.0351,-1.1646,-1.2573,-1.2973,-1.4315,-1.5008,-1.5008,-1.5008,-1.5008,-1.5008,-1.5008,-1.5008,0.0,0.0,0.0,0.0,0.0,0.0,0.0,0.0111,0.0159,0.0049,0.0,0.0,0.0045,0.0,0.0,0.0,0.0,-0.006,-0.0314,-0.3266,-0.5485,-0.5696,-0.8706,-1.0721,-1.0721,-1.0721,-1.0721,-1.0721,-1.0721,-1.0721,-1.0721,-1.0721,-1.0721,-1.0721,-1.0721,-1.0721,-1.0721,-1.0721,-1.0721,-1.0721,-1.0721,-1.0721,-1.0721,-1.0721,-1.0721,-1.0721,-1.0721,0.0,-1.0521,-1.048,-1.031,-1.0014,-0.9974,-0.9876,-0.9822,-0.9822,-0.9822,-0.9822,-0.9822,-0.9822,-0.9822,-0.9822,-0.9622,-0.9381,-0.9381,-0.9174,-0.8885,-0.8885,-0.8885,-0.8885,-0.8885,-0.8842,-0.8733,-0.8716,-0.8516,-0.8319,-0.833,-0.815,-0.7988,-0.7988,-0.9069,-0.9998,-0.9998,-1.0925,-1.1268,-1.0145,-0.9854,-0.9312,-0.8137,-0.7988,-0.7988,-0.7988,-0.7988,-0.7988,-0.7988,-0.7988,-0.7988,-0.7988,-0.7988,-0.847,-0.9525,-1.0839,-1.2067,-1.3123,-1.4423,-1.5122,-1.5122,-1.5122,-1.5122,-1.5122,-1.5122,-1.5122,0.0,0.0,0.0,0.0,0.0,0.0,0.0,0.0697,0.0,0.0,0.0,0.1051,0.0171,0.0,0.0,0.0,0.0,0.0,0.0,0.0,-0.5952,0.0,0.0,0.0,0.0,0.0,0.0,0.0,0.0,-1.0721,-1.0721,-1.0721,-1.0721,-1.0721,-1.0721,-1.0721,-1.0721,-1.0721,-1.0721,-1.0721,-1.0721,-1.0721,-1.0721,-1.0721,-1.0721,-1.0721,-1.0721,0.0,-1.0663,-1.0419,-1.0287,-1.0215,-0.9961,-0.9842,-0.9822,-0.9822,-0.9822,-0.9822,-0.9822,-0.9822,-0.9822,-0.9822,-0.9622,-0.9381,-0.9381,-0.9174,-0.8885,-0.8885,-0.8885,-0.8885,-0.8885,-0.8865,-0.8811,-0.874,-0.8672,-0.8567,-0.8323,-0.815,-0.7988,-0.7988,-0.9069,-0.9998,-0.9998,-1.0194,-1.0243,-1.0047,-0.9069,-0.8283,-0.8038,-0.7988,-0.7988,-0.7988,-0.7988,-0.7988,-0.7988,-0.7988,-0.7988,-0.7988,-0.7988,-0.8566,-0.9853,-1.1162,-1.2443,-1.3743,-1.4999,-1.5678,-1.5678,-1.5678,-1.5678,-1.5678,-1.5678,-1.5678,0.1295,0.0682,0.0,0.0,0.0,0.0173,0.0771,0.0,0.0,0.0,0.0,0.2078,0.1018,0.0,0.0,0.0,0.0,0.0,0.0,0.0,0.0,0.0,0.0,0.0,0.0,0.0,0.0,0.0,0.0,-1.0721,-1.0721,-1.0721,-1.0721,-1.0721,-1.0721,-1.0721,-1.0721,-1.0721,-1.0721,-1.0721,-1.0721,-1.0721,-1.0721,-1.0721,-1.0721,-1.0721,-1.0721,0.0,-1.0704,-1.048,-1.0348,-1.0256,-1.0029,-0.989,-0.9822,-0.9822,-0.9822,-0.9822,-0.9822,-0.9822,-0.9822,-0.9822,-0.9622,-0.9381,-0.9381,-0.9174,-0.8885,-0.8885,-0.8885,-0.8885,-0.8885,-0.8885,-0.8865,-0.8794,-0.8767,-0.8628,-0.8333,-0.8211,-0.8136,-0.8005,-0.8531,-0.897,-0.897,-0.897,-0.897,-0.897,-0.8432,-0.7988,-0.7988,-0.7988,-0.7988,-0.7988,-0.7988,-0.7988,-0.7988,-0.7988,-0.7988,-0.7988,-0.7988,-0.8577,-0.9948,-1.1219,-1.2528,-1.3878,-1.5146,-1.5784,-1.5784,-1.5784,-1.5784,-1.5784,-1.5784,-1.5784,0.2925,0.1787,0.0617,0.0991,0.0714,0.0734,0.2042,0.2345,0.0,0.0,0.0,0.3081,0.182,0.0,0.0,0.0,0.0,0.0,0.0,0.0,0.0,0.0,0.0,0.0,0.0,0.0,0.0,0.0,0.0,0.0,-1.0721,-1.0721,-1.0721,-1.0721,-1.0721,-1.0721,-1.0721,-1.0721,-1.0721,-1.0721,-1.0721,-1.0721,-1.0721,-1.0721,-1.0721,-1.0721,-1.0721,0.0,0.0,-1.051,-1.0361,-1.0215,-1.0059,-0.9866,-0.9822,-0.9822,-0.9822,-0.9822,-0.9822,-0.9822,-0.9822,-0.9822,-0.9642,-0.9432,-0.9432,-0.9222,-0.8984,-0.8984,-0.8905,-0.8885,-0.8885,-0.8885,-0.8885,-0.8885,-0.8821,-0.8648,-0.8414,-0.8368,-0.8235,-0.8113,-0.8012,-0.7988,-0.7988,-0.7988,-0.7988,-0.7988,-0.7988,-0.7988,-0.7988,-0.7988,-0.7988,-0.7988,-0.7988,-0.7988,-0.7988,-0.7988,-0.7988,-0.7988,-0.7988,-0.8726,-1.0342,-1.1365,-1.2673,-1.4268,-1.5289,-1.5784,-1.5784,-1.5784,-1.5784,-1.5784,-1.5784,-1.5784,0.4431,0.3383,0.2593,0.4061,0.3145,0.2224,0.3639,0.0,0.0,0.0,0.3964,0.3944,0.1974,0.0,0.0,0.0,0.0,0.0,0.0,0.0,0.0,0.0,0.0,0.0,0.0,0.0,0.0,0.0,0.0,0.0,-1.0721,-1.0721,-1.0721,-1.0721,-1.0721,-1.0721,-1.0721,-1.0721,-1.0721,-1.0721,-1.0721,-1.0721,-1.0721,-1.0721,-1.0721,-1.0721,-1.0721,0.0,0.0,-1.0358,-1.0209,-0.9994,-0.99,-0.9832,-0.9822,-0.9822,-0.9822,-0.9822,-0.9822,-0.9822,-0.9822,-0.9822,-0.9717,-0.9588,-0.9588,-0.9374,-0.919,-0.919,-0.9039,-0.8885,-0.8885,-0.8885,-0.8885,-0.8885,-0.8821,-0.8703,-0.8676,-0.8459,-0.832,-0.8252,-0.8136,-0.7988,-0.7988,-0.7988,-0.7988,-0.7988,-0.7988,-0.7988,-0.7988,-0.7988,-0.7988,-0.7988,-0.7988,-0.7988,-0.7988,-0.7988,-0.7988,-0.7988,-0.7988,-0.9114,-1.1604,-1.1853,-1.306,-1.5588,-1.573,-1.5784,-1.5784,-1.5784,-1.5784,-1.5784,-1.5784,-1.5784,0.597,0.5028,0.4055,0.465,0.4153,0.3813,0.4907,0.0,0.0,0.5323,0.5531,0.5212,0.372,0.2949,0.0,0.0,0.0,0.0,0.0,0.0,0.0,0.0,0.0,0.0,0.0,0.0,0.0,0.0,0.0,0.0,-1.0721,-1.0721,-1.0721,-1.0721,-1.0721,-1.0721,-1.0721,-1.0721,-1.0721,-1.0721,-1.0721,-1.0721,-1.0721,-1.0721,-1.0721,-1.0721,-1.0721,0.0,0.0,-1.0337,-1.0188,-0.997,-0.988,-0.9204,-0.8343,-0.8343,-0.7731,-0.6877,-0.6877,-0.6877,-0.6999,-0.8036,-0.8308,-0.844,-0.9334,-0.9395,-0.921,-0.921,-0.9049,-0.8885,-0.8885,-0.8885,-0.8885,-0.8885,-0.8838,-0.8821,-0.873,-0.8547,-0.8374,-0.8337,-0.8147,-0.7988,-0.7988,-0.7988,-0.7988,-0.7988,-0.7988,-0.7988,-0.7988,-0.7988,-0.7988,-0.7988,-0.7988,-0.7988,-0.7988,-0.7988,-0.7988,-0.7988,-0.8775,-0.9657,-1.073,-1.228,-1.359,-1.4657,-1.5391,-1.5784,-1.5784,-1.5784,-1.5784,-1.5784,-1.5784,-1.5784,0.7369,0.6483,0.5528,0.5969,0.5578,0.5312,0.0,0.0,0.5865,0.655,0.6508,0.5983,0.4882,0.4077,0.3138,0.0,0.0,0.0,0.0,0.0,0.0,0.0,0.0,0.0,0.0,0.0,0.0,0.0,0.0,0.0,0.0,-1.0382,-1.0721,-1.0721,-1.0721,-1.0721,-1.0721,-1.0721,-1.0721,-1.0721,-1.0721,-1.0721,-1.0721,-1.0721,-1.0721,-1.0721,-1.0721,0.0,0.0,-1.0321,-1.0161,-0.9909,-0.9307,-0.8404,-0.736,-0.6872,-0.5894,-0.4916,-0.4916,-0.4916,-0.51,-0.6261,-0.6994,-0.7591,-0.8606,-0.9104,-0.9275,-0.9275,-0.9086,-0.8885,-0.8885,-0.8885,-0.8885,-0.8885,-0.8885,-0.8854,-0.8801,-0.8659,-0.8506,-0.836,-0.8211,-0.8092,-0.7995,-0.7988,-0.7988,-0.7988,-0.7988,-0.7988,-0.7988,-0.7988,-0.7988,-0.7988,-0.7988,-0.7988,-0.7988,-0.7988,-0.7988,-0.7988,-0.8874,-0.9608,-0.9998,-1.1794,-1.3097,-1.3872,-1.48,-1.5439,-1.5784,-1.5784,-1.5784,-1.5784,-1.5784,-1.5784,0.8726,0.78,0.7119,0.8878,0.7797,0.6634,0.0,0.7634,0.7014,0.6763,0.6508,0.5983,0.4882,0.4688,0.4,0.1928,0.0,0.0,0.0,0.0,0.0,0.0,0.0,0.0,0.0,0.0,0.0,0.0,0.0,0.0,0.0,-0.9709,-1.0721,-1.0721,-1.0721,-1.0721,-1.0721,-1.0721,-1.0721,-1.0721,-1.0721,-1.0721,-1.0721,-1.0721,-1.0721,0.0,0.0,0.0,0.0,-1.028,-1.01,-0.964,-0.8036,-0.7421,-0.7177,-0.5527,-0.4916,-0.4916,-0.4916,-0.4916,-0.4916,-0.4916,-0.6077,-0.7421,-0.7421,-0.8346,-0.9381,-0.9381,-0.9167,-0.8885,-0.8885,-0.8885,-0.8885,-0.8885,-0.8885,-0.8885,-0.8881,-0.8815,-0.8662,-0.8509,-0.8367,-0.8218,-0.8015,-0.7988,-0.7988,-0.7988,-0.7988,-0.7988,-0.7988,-0.7988,-0.7988,-0.7988,-0.7988,-0.7988,-0.7988,-0.7988,-0.7988,-0.7988,-0.7988,-0.8627,-0.9948,-1.0047,-1.1263,-1.3872,-1.3926,-1.4555,-1.5784,-1.5784,-1.5784,-1.5784,-1.5784,-1.5784,0.8116,0.8128,0.8125,0.8368,0.7936,0.7481,0.765,0.7316,0.6866,0.6607,0.6433,0.6183,0.5867,0.5196,0.4581,0.4233,0.2743,0.0,0.0,0.0,0.0,0.0,0.0,0.0,0.0,0.0,0.0,0.0,0.0,0.0,0.0,-1.0382,-1.0721,-1.0721,-1.0721,-1.0721,-1.0721,-1.0721,-1.0721,-1.0721,-1.0721,-1.0721,-1.0721,-1.0721,-1.0721,0.0,0.0,0.0,0.0,-1.0168,-1.0005,-0.9636,-0.8036,-0.6689,-0.5466,-0.3873,-0.2524,-0.154,-0.154,-0.154,-0.1725,-0.2893,-0.4364,-0.5894,-0.7055,-0.8411,-0.9493,-0.9344,-0.9086,-0.8885,-0.8885,-0.8885,-0.8885,-0.8885,-0.8885,-0.8885,-0.8885,-0.8818,-0.8665,-0.8513,-0.8367,-0.8221,-0.8015,-0.7988,-0.7988,-0.7988,-0.7988,-0.7988,-0.7988,-0.7988,-0.7988,-0.7988,-0.7988,-0.7988,-0.7988,-0.7988,-0.7988,-0.7988,-0.8871,-0.9167,-0.8676,-1.0337,-1.1702,-1.2522,-1.344,-1.4513,-1.5784,-1.5784,-1.5784,-1.5784,-1.5784,-1.5784,0.0,0.8004,0.8252,0.8032,0.7904,0.7787,0.7448,0.7099,0.6644,0.6034,0.5801,0.5589,0.5157,0.453,0.4084,0.3966,0.2635,0.0,0.0,0.0,0.0,0.0,0.0,0.0,0.0,0.0,0.0,0.0,0.0,0.0,0.0,-1.0721,-1.0721,-1.0721,-1.0721,-1.0721,-1.0721,-1.0721,-1.0721,-1.0721,-1.0721,-1.0721,-1.0721,-1.0721,-1.0687,0.0,0.0,0.0,0.0,-0.9393,-0.902,-0.865,-0.6444,-0.4914,-0.3813,-0.2155,-0.0925,0.0,0.0,0.0,-0.0185,-0.1233,-0.3076,-0.5339,-0.7559,-0.885,-0.9459,-0.9157,-0.9008,-0.8885,-0.8885,-0.8885,-0.8885,-0.8885,-0.8885,-0.8885,-0.8885,-0.8807,-0.875,-0.8598,-0.8452,-0.8303,-0.8153,-0.8029,-0.7988,-0.7988,-0.7988,-0.7988,-0.7988,-0.7988,-0.7988,-0.7988,-0.7988,-0.7988,-0.7988,-0.7988,-0.7988,-0.7988,-0.8775,-0.8871,-0.8038,-0.9554,-1.0681,-1.1165,-1.2474,-1.3782,-1.5092,-1.5581,-1.5784,-1.5784,-1.5784,-1.5784,0.0,0.7512,0.76,0.7813,0.7729,0.7495,0.7388,0.6983,0.0,0.5235,0.4881,0.4496,0.3411,0.3214,0.291,0.1934,0.168,0.0,0.0,0.0,0.0,0.0,0.0,0.0,0.0,0.0,0.0,0.0,0.0,0.0,0.0,-1.0654,-1.0721,-1.0721,-1.0721,-1.0721,-1.0721,-1.0721,-1.0721,-1.0721,-1.0721,-1.0721,-1.0721,-1.0711,-1.0626,0.0,0.0,0.0,0.0,-0.8089,-0.7333,-0.693,-0.3749,-0.2524,-0.2278,-0.0617,0.0,0.0,0.0,0.0,0.0,-0.0123,-0.234,-0.5452,-0.8492,-0.9375,-0.932,-0.9035,-0.8892,-0.8885,-0.8885,-0.8885,-0.8885,-0.8885,-0.8885,-0.8885,-0.8885,-0.8885,-0.8838,-0.874,-0.8598,-0.8452,-0.8347,-0.815,-0.8002,-0.7992,-0.7988,-0.7988,-0.7988,-0.7988,-0.7988,-0.7988,-0.7988,-0.7988,-0.7988,-0.7988,-0.7988,-0.7988,-0.7988,-0.7988,-0.7988,-0.7988,-0.8627,-0.9948,-1.1361,-1.2668,-1.3926,-1.5194,-1.5784,-1.5784,-1.5784,-1.5784,0.6312,0.0,0.6898,0.6851,0.6878,0.6871,0.0,0.6644,0.6445,0.6064,0.0,0.0,0.4503,0.4306,0.4085,0.0,0.0,0.0,0.0,0.0,0.0,0.0,0.0,0.0,0.0,0.0,0.0,0.0,0.0,0.0,0.0,-0.9978,-1.0721,-1.0721,-1.0721,-1.0721,-1.0721,-1.0721,-1.0721,-1.0721,-1.0721,-1.0721,-1.0717,-1.0599,-1.0524,0.0,0.0,0.0,-0.8027,-0.6264,-0.5546,-0.5284,-0.326,-0.2524,-0.2278,-0.0617,0.0,0.0,0.0,0.0,-0.0185,-0.1479,-0.326,-0.5258,-0.7012,-0.8405,-0.9344,-0.9157,-0.9022,-0.8885,-0.8885,-0.8885,-0.8885,-0.8885,-0.8885,-0.8885,-0.8885,-0.8885,-0.8838,-0.874,-0.8679,-0.8574,-0.8368,-0.8241,-0.8177,-0.8008,-0.7988,-0.7988,-0.7988,-0.7988,-0.7988,-0.7988,-0.7988,-0.7988,-0.7988,-0.7988,-0.7988,-0.7988,-0.7988,-0.7988,-0.7988,-0.7988,-0.8627,-0.9948,-1.228,-1.3584,-1.3926,-1.5194,-1.5784,-1.5784,-1.5784,-1.5784,0.5786,0.6254,0.6698,0.6685,0.6746,0.6783,0.6702,0.0,0.0,0.0,0.0,0.0,0.0,0.0,0.0,0.0,0.0,0.0,0.0,0.0,0.0,0.0,0.0,0.0,0.0,0.0,0.0,0.0,0.0,0.0,0.0,-0.9709,-1.0721,-1.0721,-1.0721,-1.0721,-1.0721,-1.0721,-1.0683,-1.0616,-1.0616,-1.0582,-1.0517,-1.0432,-0.9963,0.0,0.0,0.0,-0.6213,-0.4502,-0.3813,-0.3629,-0.1971,-0.1356,-0.1233,-0.0308,0.0,0.0,0.0,0.0,-0.0247,-0.1971,-0.3076,-0.4218,-0.6271,-0.7558,-0.8338,-0.8888,-0.8998,-0.8885,-0.8885,-0.8885,-0.8885,-0.8885,-0.8885,-0.8885,-0.8885,-0.8885,-0.8858,-0.8832,-0.8757,-0.8659,-0.8499,-0.8414,-0.8319,-0.8167,-0.8147,-0.8119,-0.7998,-0.7988,-0.7988,-0.7988,-0.7988,-0.7988,-0.7988,-0.7988,-0.7988,-0.7988,-0.7988,-0.7988,-0.7988,-0.7988,-0.892,-1.0828,-1.228,-1.359,-1.4752,-1.5439,-1.5784,-1.5784,-1.5784,-1.5784,0.5603,0.6169,0.6677,0.6548,0.6577,0.6616,0.6596,0.0,0.0,0.0,0.0,0.0,0.0,0.0,0.0,0.0,0.0,0.0,0.0,0.0,0.0,0.0,0.0,0.0,0.0,0.0,0.0,0.0,0.0,0.0,0.0,-0.9172,-1.0316,-1.0316,-1.0561,-1.0683,-1.0683,-1.0683,-1.0619,-1.049,-1.047,-1.0395,-1.028,-0.9999,-0.9025,-0.7593,0.0,0.0,-0.4426,-0.277,-0.2094,-0.1971,-0.0555,0.0,0.0,0.0,0.0,0.0,0.0,0.0,-0.0247,-0.1664,-0.2278,-0.2998,-0.5739,-0.6679,-0.7156,-0.8512,-0.8885,-0.8885,-0.8885,-0.8885,-0.8885,-0.8885,-0.8885,-0.8885,-0.8885,-0.8885,-0.8885,-0.8885,-0.8832,-0.8737,-0.8713,-0.8604,-0.8469,-0.8378,-0.8354,-0.8255,-0.8073,-0.8039,-0.8025,-0.8025,-0.8005,-0.7988,-0.7988,-0.7988,-0.7988,-0.7988,-0.7988,-0.7988,-0.7988,-0.7988,-0.9019,-1.1263,-1.1507,-1.2818,-1.5201,-1.5391,-1.5635,-1.5784,-1.5784,-1.5784,0.585,0.6322,0.6394,0.5166,0.5144,0.5336,0.5241,0.0,0.0,0.0,0.0,0.0,0.0,0.0,0.0,0.0,0.0,0.0,0.0,0.0,0.0,0.0,0.0,0.0,0.0,0.0,0.0,0.0,0.0,0.0,0.0,-0.6627,-0.8432,-0.8432,-0.9795,-1.0527,-1.0527,-1.0527,-1.0514,-1.049,-1.0371,-1.03,-1.0276,-0.8743,-0.7864,-0.7463,0.0,-0.3144,-0.277,-0.1048,-0.037,-0.037,-0.0123,0.0,0.0,0.0,0.0,0.0,0.0,0.0,-0.0062,-0.0309,-0.1356,-0.2814,-0.438,-0.58,-0.7156,-0.8512,-0.8885,-0.8885,-0.8885,-0.8885,-0.8885,-0.8885,-0.8885,-0.8885,-0.8885,-0.8885,-0.8885,-0.8885,-0.8865,-0.8807,-0.8733,-0.8693,-0.8625,-0.8472,-0.8452,-0.8442,-0.8418,-0.8309,-0.8235,-0.8235,-0.8116,-0.7988,-0.7988,-0.7988,-0.7988,-0.7988,-0.7988,-0.7988,-0.7988,-0.7988,-0.8187,-0.8577,-0.9706,-1.1023,-1.2479,-1.3638,-1.4752,-1.5784,-1.5784,-1.5784,0.5613,0.6057,0.6165,0.4909,0.4992,0.5172,0.4363,0.0,0.0,0.0,0.0,0.0,0.0,0.0,0.0,0.0,0.0,0.0,0.0,0.0,0.0,0.0,0.0,0.0,0.0,0.0,0.0,0.0,0.0,0.0,0.0,0.0,-0.7918,-0.792,-0.9497,-1.0378,-1.0378,-1.0293,-1.0253,-1.0249,-1.0185,-0.9669,-0.8709,-0.7897,-0.6511,-0.4778,0.0,-0.1971,-0.111,-0.0308,-0.0555,-0.1233,-0.037,-0.0555,-0.1233,-0.0308,0.0,0.0,0.0,-0.0617,-0.1356,-0.1356,-0.2387,-0.393,-0.5369,-0.6288,-0.7075,-0.849,-0.8885,-0.8885,-0.8885,-0.8885,-0.8885,-0.8885,-0.8885,-0.8885,-0.8885,-0.8885,-0.8885,-0.8885,-0.8885,-0.8861,-0.8845,-0.8832,-0.8781,-0.8628,-0.8604,-0.8574,-0.8492,-0.8425,-0.8357,-0.833,-0.8208,-0.813,-0.7995,-0.7988,-0.7988,-0.7988,-0.7988,-0.7988,-0.7988,-0.7988,-0.8333,-0.9069,-0.9706,-1.0632,-1.1896,-1.3253,-1.4214,-1.4806,-1.5486,-1.5784,0.5576,0.5948,0.6035,0.5014,0.0,0.5271,0.4375,0.0,0.0,0.0,0.0,0.0,0.0,0.0,0.0,0.0,0.0,0.0,0.0,0.0,0.0,0.0,0.0,0.0,0.0,0.0,0.0,0.0,0.0,0.0,0.0,0.0,-0.7013,-0.6613,-0.8574,-0.9456,-0.907,-0.8875,-0.9199,-0.9987,-0.9572,-0.8688,-0.736,-0.6625,-0.4851,-0.2462,-0.2094,-0.1171,0.0,0.0,-0.074,-0.1848,-0.0925,-0.1356,-0.234,-0.1048,-0.0308,-0.0062,-0.0432,-0.1417,-0.2585,-0.2954,-0.3842,-0.4992,-0.6483,-0.6849,-0.7041,-0.848,-0.8885,-0.8885,-0.8885,-0.8885,-0.8885,-0.8885,-0.8885,-0.8885,-0.8885,-0.8885,-0.8885,-0.8885,-0.8885,-0.8885,-0.8885,-0.8885,-0.8844,-0.8781,-0.8764,-0.872,-0.8604,-0.8557,-0.8492,-0.8384,-0.8364,-0.8208,-0.8002,-0.7988,-0.7988,-0.7988,-0.7988,-0.7988,-0.7988,-0.7988,-0.8482,-0.9509,-0.9509,-1.0194,-1.1463,-1.2474,-1.3151,-1.344,-1.4418,-1.5051,0.6119,0.6265,0.608,0.5125,0.5018,0.0,0.5706,0.4538,0.0,0.0,0.0,0.0,0.0,0.0,0.0,0.0,0.0,0.0,0.0,0.0,0.0,0.0,0.0,0.0,0.0,0.0,0.0,0.0,0.0,0.0,0.0,0.0,0.0,-0.3085,-0.6143,-0.7041,-0.5469,-0.5331,-0.6877,-0.9984,-0.8354,-0.749,-0.7299,-0.424,-0.2708,-0.2401,-0.0863,-0.0123,0.0,0.0,-0.0062,-0.0308,-0.1787,-0.2401,-0.2462,-0.234,-0.1356,-0.0247,-0.1787,-0.2401,-0.277,-0.4242,-0.479,-0.5126,-0.6504,-0.6907,-0.7146,-0.8509,-0.8885,-0.8885,-0.8885,-0.8885,-0.8885,-0.8885,-0.8885,-0.8885,-0.8885,-0.8885,-0.8885,-0.8885,-0.8885,-0.8885,-0.8885,-0.8885,-0.8878,-0.8868,-0.8868,-0.8861,-0.8851,-0.8781,-0.8689,-0.8679,-0.8435,-0.8208,-0.8002,-0.7988,-0.7988,-0.7988,-0.7988,-0.7988,-0.7988,-0.7988,-0.8038,-0.8137,-0.8137,-0.8825,-1.0145,-1.0239,-1.0877,-1.2042,-1.2139,-1.2866,0.5947,0.5979,0.6108,0.6042,0.6181,0.0,0.0,0.0,0.0,0.0,0.0,0.0,0.0,0.0,0.0,0.0,0.0,0.0,0.0,0.0,0.0,0.0,0.0,0.0,0.0,0.0,0.0,0.0,0.0,0.0,0.0,0.0,0.0,-0.2567,-0.4724,-0.5636,-0.4957,-0.493,-0.5546,-0.6813,-0.6158,-0.5343,-0.4301,-0.3076,-0.191,-0.0925,-0.0247,0.0,0.0,0.0,-0.1233,-0.3199,-0.4913,-0.4914,-0.3997,-0.3997,-0.2954,-0.1787,-0.3445,-0.3997,-0.4242,-0.5894,-0.7076,-0.7899,-0.8318,-0.8378,-0.8388,-0.8768,-0.8885,-0.8885,-0.8885,-0.8885,-0.8885,-0.8885,-0.8885,-0.8885,-0.8885,-0.8885,-0.8885,-0.8885,-0.8885,-0.8885,-0.8885,-0.8885,-0.8885,-0.8885,-0.8885,-0.8885,-0.8885,-0.8834,-0.8815,-0.872,-0.8445,-0.8248,-0.8187,-0.8096,-0.7988,-0.7988,-0.7988,-0.7988,-0.7988,-0.7988,-0.7988,-0.7988,-0.7988,-0.8237,-0.8775,-0.9608,-1.0243,-1.073,-1.1512,-1.2188,0.5846,0.5874,0.62,0.0,0.0,0.0,0.0,0.0,0.0,0.0,0.0,0.0,0.0,0.0,0.0,0.0,0.0,0.0,0.0,0.0,0.0,0.0,0.0,0.0,0.0,0.0,0.0,0.0,0.0,0.0,0.0,0.0,0.0,0.0,-0.3322,-0.3873,-0.3383,-0.3383,-0.3383,-0.3383,-0.3383,-0.3076,-0.2462,-0.1971,-0.111,0.0,0.0,0.0,0.0,0.0,-0.1909,-0.5039,-0.675,-0.6689,-0.5712,-0.5712,-0.4364,-0.2708,-0.4366,-0.4916,-0.5161,-0.6872,-0.8383,-0.9581,-0.9429,-0.933,-0.918,-0.8981,-0.8885,-0.8885,-0.8885,-0.8885,-0.8885,-0.8885,-0.8885,-0.8885,-0.8885,-0.8885,-0.8885,-0.8885,-0.8885,-0.8885,-0.8885,-0.8885,-0.8885,-0.8885,-0.8885,-0.8885,-0.8885,-0.8885,-0.8824,-0.8726,-0.853,-0.8374,-0.833,-0.8174,-0.8092,-0.7992,-0.7988,-0.7988,-0.7988,-0.7988,-0.7988,-0.7988,-0.7988,-0.7988,-0.7988,-0.892,-0.9361,-0.941,-1.0239,-1.0925,0.584,0.6027,0.0,0.0,0.0,0.0,0.0,0.0,0.0,0.0,0.0,0.0,0.0,0.0,0.0,0.0,0.0,0.0,0.0,0.0,0.0,0.0,0.0,0.0,0.0,0.0,0.0,0.0,0.0,0.0,0.0,0.0,0.0,0.0,-0.1602,-0.1664,0.0,0.0,0.0,0.0,0.0,-0.0863,-0.2401,-0.074,0.0,0.0,0.0,0.0,0.0,-0.0062,-0.1971,-0.5039,-0.675,-0.7421,-0.7421,-0.7421,-0.5341,-0.277,-0.4366,-0.4916,-0.5161,-0.6872,-0.8383,-0.9581,-0.9429,-0.933,-0.918,-0.8981,-0.8885,-0.8885,-0.8885,-0.8885,-0.8885,-0.8885,-0.8885,-0.8885,-0.8885,-0.8885,-0.8885,-0.8885,-0.8885,-0.8885,-0.8885,-0.8885,-0.8885,-0.8885,-0.8885,-0.8885,-0.8885,-0.8885,-0.8824,-0.8726,-0.871,-0.8591,-0.8299,-0.8323,-0.8204,-0.8002,-0.7988,-0.7988,-0.7988,-0.7988,-0.7988,-0.7988,-0.7988,-0.7988,-0.7988,-0.7988,-0.7988,-0.7988,-0.7988,-0.8726,0.587,0.5986,0.0,0.0,0.0,0.0,0.0,0.0,0.0,0.0,0.0,0.0,0.0,0.0,0.0,0.0,0.0,0.0,0.0,0.0,0.0,0.0,0.0,0.0,0.0,0.0,0.0,0.0,0.0,0.0,0.0,0.0,0.0,0.0,-0.0494,-0.0494,0.0,0.0,0.0,0.0,0.0,-0.0247,-0.074,-0.0247,0.0,0.0,0.0,0.0,-0.0185,-0.2524,-0.3996,-0.5161,-0.7978,-0.9083,-0.8958,-0.7789,-0.6014,-0.4242,-0.4732,-0.4916,-0.5161,-0.6872,-0.8383,-0.9581,-0.9429,-0.933,-0.918,-0.8981,-0.8885,-0.8885,-0.8885,-0.8885,-0.8885,-0.8885,-0.8885,-0.8885,-0.8885,-0.8885,-0.8885,-0.8885,-0.8885,-0.8885,-0.8885,-0.8885,-0.8885,-0.8885,-0.8885,-0.8885,-0.8885,-0.8885,-0.8865,-0.8821,-0.8774,-0.8676,-0.8587,-0.8391,-0.8252,-0.8204,-0.8099,-0.7988,-0.7988,-0.7988,-0.7988,-0.7988,-0.7988,-0.7988,-0.7988,-0.7988,-0.7988,-0.7988,-0.7988,-0.8237,0.6643,0.0,0.0,0.0,0.0,0.0,0.0,0.0,0.0,0.0,0.0,0.0,0.0,0.0,0.0,0.0,0.0,0.0,0.0,0.0,0.0,0.0,0.0,0.0,0.0,0.0,0.0,0.0,0.0,0.0,0.0,0.0,0.0,0.0,0.0,0.0,0.0,0.0,0.0,0.0,0.0,0.0,0.0,0.0,0.0,0.0,0.0,0.0,-0.0247,-0.3568,-0.4916,-0.5223,-0.8532,-0.9822,-0.9576,-0.7975,-0.6322,-0.4916,-0.4916,-0.4835,-0.5113,-0.6749,-0.8272,-0.9412,-0.9317,-0.9184,-0.9049,-0.8908,-0.8885,-0.8885,-0.8885,-0.8885,-0.8885,-0.8885,-0.8885,-0.8885,-0.8885,-0.8885,-0.8885,-0.8885,-0.8885,-0.8885,-0.8885,-0.8885,-0.8885,-0.8885,-0.8885,-0.8885,-0.8885,-0.8885,-0.8885,-0.8885,-0.8801,-0.8754,-0.8628,-0.8459,-0.8303,-0.8187,-0.8092,-0.7988,-0.7988,-0.7988,-0.7988,-0.7988,-0.7988,-0.7988,-0.7988,-0.7988,-0.7988,-0.7988,-0.7988,-0.7988,0.0,0.0,0.0,0.0,0.0,0.0,0.0,0.0,0.0,0.0,0.0,0.0,0.0,0.0,0.0,0.0,0.0,0.0,0.0,0.0,0.0,0.0,0.0,0.0,0.0,0.0,0.0,0.0,0.0,0.0,0.0,0.0,0.0,0.0,0.0,0.0,0.0,0.0,0.0,0.0,0.0,0.0,0.0,0.0,0.0,0.0,0.0,0.0,-0.0246,-0.3552,-0.4896,-0.5203,-0.8508,-0.9802,-0.9559,-0.7847,-0.6193,-0.4906,-0.4722,-0.4675,-0.4971,-0.6586,-0.8035,-0.921,-0.921,-0.9052,-0.8885,-0.8885,-0.8885,-0.8885,-0.8885,-0.8885,-0.8885,-0.8885,-0.8885,-0.8885,-0.8885,-0.8885,-0.8885,-0.8885,-0.8885,-0.8885,-0.8885,-0.8885,-0.8885,-0.8885,-0.8885,-0.8885,-0.8885,-0.8885,-0.8885,-0.8885,-0.8885,-0.8821,-0.8526,-0.8489,-0.836,-0.8029,-0.7995,-0.7988,-0.7988,-0.7988,-0.7988,-0.7988,-0.7988,-0.7988,-0.7988,-0.7988,-0.7988,-0.7988,-0.7988,-0.7988,0.0,0.0,0.0,0.0,0.0,0.0,0.0,0.0,0.0,0.0,0.0,0.0,0.0,0.0,0.0,0.0,0.0,0.0,0.0,0.0,0.0,0.0,0.0,0.0,0.0,0.0,0.0,0.0,0.0,0.0,0.0,0.0,0.0,0.0,0.0,0.0,0.0,0.0,0.0,0.0,0.0,0.0,0.0,0.0,0.0,0.0,0.0,0.0,-0.0238,-0.3438,-0.4739,-0.504,-0.8343,-0.9656,-0.9304,-0.6481,-0.5183,-0.4707,-0.3261,-0.3645,-0.4949,-0.6476,-0.7962,-0.921,-0.921,-0.9052,-0.8885,-0.8885,-0.8885,-0.8885,-0.8885,-0.8885,-0.8885,-0.8885,-0.8885,-0.8885,-0.8885,-0.8885,-0.8885,-0.8885,-0.8885,-0.8885,-0.8885,-0.8885,-0.8885,-0.8885,-0.8885,-0.8885,-0.8885,-0.8885,-0.8885,-0.8885,-0.8885,-0.8807,-0.8676,-0.855,-0.8408,-0.8231,-0.8106,-0.7988,-0.7988,-0.7988,-0.7988,-0.7988,-0.7988,-0.7988,-0.7988,-0.7988,-0.7988,-0.7988,-0.7988,-0.7988,0.0,0.0,0.0,0.0,0.0,0.0,0.0,0.0,0.0,0.0,0.0,0.0,0.0,0.0,0.0,0.0,0.0,0.0,0.0,0.0,0.0,0.0,0.0,0.0,0.0,0.0,0.0,0.0,0.0,0.0,0.0,0.0,0.0,0.0,0.0,0.0,0.0,0.0,0.0,0.0,0.0,0.0,0.0,0.0,0.0,0.0,0.0,0.0,-0.0236,-0.3402,-0.469,-0.5044,-0.8222,-0.95,-0.9091,-0.599,-0.4783,-0.469,-0.3742,-0.3936,-0.498,-0.7237,-0.848,-0.9052,-0.9052,-0.8998,-0.8885,-0.8885,-0.8885,-0.8885,-0.8885,-0.8885,-0.8885,-0.8885,-0.8885,-0.8885,-0.8885,-0.8885,-0.8885,-0.8885,-0.8885,-0.8885,-0.8885,-0.8885,-0.8885,-0.8885,-0.8885,-0.8885,-0.8885,-0.8885,-0.8885,-0.8885,-0.8885,-0.8849,-0.8621,-0.8526,-0.8391,-0.8174,-0.8032,-0.7988,-0.7988,-0.7988,-0.7988,-0.7988,-0.7988,-0.7988,-0.7988,-0.7988,-0.7988,-0.7988,-0.7988,-0.7988,0.0,0.0,0.0,0.0,0.0,0.0,0.0,0.0,0.0,0.0,0.0,0.0,0.0,0.0,0.0,0.0,0.0,0.0,0.0,0.0,0.0,0.0,0.0,0.0,0.0,0.0,0.0,0.0,0.0,0.0,0.0,0.0,0.0,0.0,0.0,0.0,0.0,0.0,0.0,0.0,0.0,0.0,0.0,0.0,0.0,0.0,0.0,-0.0117,-0.0584,-0.3491,-0.4824,-0.5348,-0.822,-0.9344,-0.8993,-0.6145,-0.509,-0.5077,-0.5077,-0.4965,-0.5352,-0.8201,-0.9035,-0.8885,-0.8885,-0.8885,-0.8885,-0.8885,-0.8885,-0.8885,-0.8885,-0.8885,-0.8885,-0.8885,-0.8885,-0.8885,-0.8885,-0.8885,-0.8885,-0.8885,-0.8885,-0.8885,-0.8885,-0.8885,-0.8885,-0.8885,-0.8885,-0.8885,-0.8885,-0.8885,-0.8885,-0.8885,-0.8885,-0.8815,-0.8509,-0.8482,-0.8353,-0.8008,-0.7988,-0.7988,-0.7988,-0.7988,-0.7988,-0.7988,-0.7988,-0.7988,-0.7988,-0.7988,-0.7988,-0.7988,-0.7988,-0.7988,0.0,0.0,0.0,0.0,0.0,0.0,0.0,0.0,0.0,0.0,0.0,0.0,0.0,0.0,0.0,0.0,0.0,0.0,0.0,0.0,0.0,0.0,0.0,0.0,0.0,0.0,0.0,0.0,0.0,0.0,0.0,0.0,0.0,0.0,0.0,0.0,0.0,0.0,0.0,0.0,0.0,0.0,0.0,0.0,0.0,0.0,0.0,-0.0733,-0.2026,-0.3824,-0.5286,-0.6641,-0.8505,-0.9241,-0.9024,-0.7225,-0.6618,-0.6595,-0.6479,-0.6414,-0.6667,-0.8406,-0.8898,-0.8885,-0.8885,-0.8885,-0.8885,-0.8885,-0.8885,-0.8885,-0.8885,-0.8885,-0.8885,-0.8885,-0.8885,-0.8885,-0.8885,-0.8885,-0.8885,-0.8885,-0.8885,-0.8885,-0.8885,-0.8885,-0.8885,-0.8885,-0.8885,-0.8885,-0.8885,-0.8885,-0.8885,-0.8885,-0.8885,-0.8815,-0.8509,-0.8482,-0.8353,-0.8008,-0.7988,-0.7988,-0.7988,-0.7988,-0.7988,-0.7988,-0.7988,-0.7988,-0.7988,-0.7988,-0.7988,-0.7988,-0.7988,-0.7988,0.0,0.0,0.0,0.0,0.0,0.0,0.0,0.0,0.0,0.0,0.0,0.0,0.0,0.0,0.0,0.0,0.0,0.0,0.0,0.0,0.0,0.0,0.0,0.0,0.0,0.0,0.0,0.0,0.0,0.0,0.0,0.0,0.0,0.0,0.0,0.0,0.0,0.0,0.0,0.0,0.0,0.0,0.0,0.0,0.0,0.0,0.0,-0.084,-0.2347,-0.3855,-0.5363,-0.6874,-0.8444,-0.9032,-0.8871,-0.7339,-0.6814,-0.6771,-0.6715,-0.6685,-0.6924,-0.8432,-0.8885,-0.8885,-0.8885,-0.8885,-0.8885,-0.8885,-0.8885,-0.8716,-0.7875,-0.7651,-0.7482,-0.6647,-0.7093,-0.7651,-0.7651,-0.8322,-0.8885,-0.8885,-0.8885,-0.8885,-0.8885,-0.8885,-0.8885,-0.8885,-0.8885,-0.8885,-0.8885,-0.8885,-0.8885,-0.8885,-0.8885,-0.8815,-0.8509,-0.8482,-0.8353,-0.8008,-0.7988,-0.7988,-0.7988,-0.7988,-0.7988,-0.7988,-0.7988,-0.7988,-0.7988,-0.7988,-0.7988,-0.7988,-0.7988,-0.7988,0.0,0.0,0.0,0.0,0.0,0.0,0.0,0.0,0.0,0.0,0.0,0.0,0.0,0.0,0.0,0.0,0.0,0.0,0.0,0.0,0.0,0.0,0.0,0.0,0.0,0.0,0.0,0.0,0.0,0.0,0.0,0.0,0.0,0.0,0.0,0.0,0.0,0.0,0.0,0.0,0.0,0.0,0.0,0.0,0.0,0.0,0.0,-0.1064,-0.285,-0.4023,-0.5586,-0.7371,-0.8491,-0.8885,-0.8771,-0.7651,-0.726,-0.726,-0.726,-0.726,-0.7426,-0.8546,-0.8885,-0.8885,-0.8885,-0.8657,-0.8322,-0.8322,-0.8045,-0.7537,-0.6422,-0.6144,-0.5864,-0.4751,-0.5361,-0.6366,-0.7091,-0.8097,-0.8885,-0.8885,-0.8885,-0.8885,-0.8885,-0.8885,-0.8885,-0.8885,-0.8885,-0.8885,-0.8885,-0.8885,-0.8885,-0.8885,-0.8885,-0.8828,-0.8564,-0.8506,-0.8374,-0.8113,-0.8012,-0.7988,-0.7988,-0.7988,-0.7988,-0.7988,-0.7988,-0.7988,-0.7988,-0.7988,-0.7988,-0.7988,-0.7988,-0.7988,0.0,0.0,0.0,0.0,0.0,0.0,0.0,0.0,0.0,0.0,0.0,0.0,0.0,0.0,0.0,0.0,0.0,0.0,0.0,0.0,0.0,0.0,0.0,0.0,0.0,0.0,0.0,0.0,0.0,0.0,0.0,0.0,0.0,0.0,0.0,0.0,0.0,0.0,0.0,0.0,0.0,0.0,0.0,0.0,0.0,0.0,0.0,-0.1679,-0.4414,-0.447,-0.62,-0.8771,-0.8881,-0.8885,-0.8881,-0.8826,-0.8771,-0.8771,-0.8771,-0.8771,-0.8771,-0.8881,-0.8885,-0.8885,-0.8885,-0.7931,-0.6813,-0.6813,-0.5808,-0.4693,-0.4639,-0.4637,-0.4582,-0.4528,-0.4582,-0.5363,-0.8156,-0.8826,-0.8885,-0.8885,-0.8885,-0.8885,-0.8885,-0.8885,-0.8885,-0.8885,-0.8885,-0.8885,-0.8885,-0.8885,-0.8885,-0.8885,-0.8885,-0.8817,-0.8713,-0.8567,-0.8418,-0.8269,-0.8123,-0.7988,-0.7988,-0.7988,-0.7988,-0.7988,-0.7988,-0.7988,-0.7988,-0.7988,-0.7988,-0.7988,-0.7988,-0.7988,0.0,0.0,0.0,0.0,0.0,0.0,0.0,0.0,0.0,0.0,0.0,0.0,0.0,0.0,0.0,0.0,0.0,0.0,0.0,0.0,0.0,0.0,0.0,0.0,0.0,0.0,0.0,0.0,0.0,0.0,0.0,0.0,0.0,0.0,0.0,0.0,0.0,0.0,0.0,0.0,0.0,0.0,0.0,0.0,0.0,0.0,0.0,-0.1176,-0.3017,-0.3017,-0.4244,-0.6089,-0.6089,-0.6644,-0.7485,-0.7485,-0.8097,-0.8885,-0.8885,-0.8885,-0.8885,-0.8885,-0.8266,-0.7485,-0.7485,-0.6478,-0.5308,-0.5308,-0.4916,-0.4247,-0.3296,-0.3017,-0.3017,-0.3017,-0.3017,-0.3575,-0.5641,-0.754,-0.8885,-0.8885,-0.8885,-0.8885,-0.8885,-0.8885,-0.8885,-0.8885,-0.8885,-0.8885,-0.8885,-0.8885,-0.8885,-0.8885,-0.8885,-0.8835,-0.8584,-0.8513,-0.8381,-0.8136,-0.8019,-0.7988,-0.7988,-0.7988,-0.7988,-0.7988,-0.7988,-0.7988,-0.7988,-0.7988,-0.7988,-0.7988,-0.7988,-0.7988,0.8573,0.0,0.0,0.0,0.0,0.0,0.0,0.0,0.0,0.0,0.0,0.0,0.0,0.0,0.0,0.0,0.0,0.0,0.0,0.0,0.0,0.0,0.0,0.0,0.0,0.0,0.0,0.0,0.0,0.0,0.0,0.0,0.0,0.0,0.0,0.0,0.0,0.0,0.0,0.0,0.0,0.0,0.0,0.0,0.0,0.0,0.0,-0.0836,-0.218,-0.218,-0.3129,-0.4526,-0.4526,-0.5085,-0.5975,-0.5975,-0.6869,-0.8156,-0.8156,-0.8491,-0.8826,-0.8322,-0.7485,-0.6589,-0.6086,-0.4916,-0.3744,-0.3744,-0.3354,-0.274,-0.1734,-0.1454,-0.1454,-0.1454,-0.1845,-0.2459,-0.3521,-0.5695,-0.7426,-0.7426,-0.782,-0.8156,-0.8156,-0.8546,-0.8885,-0.8885,-0.8885,-0.8885,-0.8885,-0.8885,-0.8885,-0.8885,-0.8885,-0.8835,-0.8581,-0.8513,-0.8377,-0.8133,-0.8019,-0.7988,-0.7988,-0.7988,-0.7988,-0.7988,-0.7988,-0.7988,-0.7988,-0.7988,-0.7988,-0.7988,-0.7988,-0.7988,0.0,0.0,0.0,0.0,0.0,0.0,0.0,0.0,0.0,0.0,0.0,0.0,0.0,0.0,0.0,0.0,0.0,0.0,0.0,0.0,0.0,0.0,0.0,0.0,0.0,0.0,0.0,0.0,0.0,0.0,0.0,0.0,0.0,0.0,0.0,0.0,0.0,0.0,0.0,0.0,0.0,0.0,0.0,0.0,0.0,0.0,0.0,-0.0828,-0.2122,-0.2124,-0.3017,-0.4359,-0.4359,-0.4414,-0.4414,-0.4414,-0.5363,-0.6647,-0.6647,-0.7595,-0.8546,-0.7091,-0.6589,-0.6308,-0.486,-0.3353,-0.2124,-0.2124,-0.1119,0.0,0.0,0.0,0.0,0.0,-0.1119,-0.2124,-0.2124,-0.3296,-0.4414,-0.447,-0.5697,-0.6702,-0.6702,-0.7931,-0.8885,-0.8885,-0.8885,-0.8885,-0.8885,-0.8885,-0.8885,-0.8885,-0.8878,-0.8814,-0.8716,-0.8564,-0.8414,-0.8323,-0.8123,-0.7988,-0.7988,-0.7988,-0.7988,-0.7988,-0.7988,-0.7988,-0.7988,-0.7988,-0.7988,-0.7988,-0.7988,-0.7988,0.7904,0.0,0.0,0.0,0.0,0.0,0.0,0.0,0.0,0.0,0.0,0.0,0.0,0.0,0.0,0.0,0.0,0.0,0.0,0.0,0.0,0.0,0.0,0.0,0.0,0.0,0.0,0.0,0.0,0.0,0.0,0.0,0.0,0.0,0.0,0.0,0.0,0.0,0.0,0.0,0.0,0.0,0.0,0.0,0.0,0.0,0.0,-0.022,-0.0606,-0.0613,-0.084,-0.1232,-0.1232,-0.1902,-0.285,-0.285,-0.3799,-0.5083,-0.5083,-0.5363,-0.5641,-0.525,-0.4357,-0.3351,-0.2961,-0.179,-0.0616,-0.0616,-0.0336,0.0,0.0,0.0,0.0,0.0,-0.0336,-0.0616,-0.0616,-0.0952,-0.1903,-0.408,-0.5697,-0.6702,-0.6702,-0.7931,-0.8885,-0.8885,-0.8885,-0.8885,-0.8885,-0.8885,-0.8885,-0.8885,-0.8842,-0.8713,-0.8557,-0.8414,-0.8265,-0.8113,-0.8012,-0.7988,-0.7988,-0.7988,-0.7988,-0.7988,-0.7988,-0.7988,-0.7988,-0.7988,-0.7988,-0.7988,-0.7988,-0.7988,0.0,0.0,0.0,0.0,0.0,0.0,0.0,0.0,0.0,0.0,0.0,0.0,0.0,0.0,0.0,0.0,0.0,0.0,0.0,0.0,0.0,0.0,0.0,0.0,0.0,0.0,0.0,0.0051,0.0,0.0,0.0,0.0,0.0,0.0,0.0,0.0,0.0,0.0,0.0,0.0,0.0,0.0,0.0,0.0,0.0,0.0,0.0,0.0,0.0,0.0,0.0,0.0,0.0,-0.0504,-0.1287,-0.1287,-0.2236,-0.3521,-0.3521,-0.3967,-0.4414,-0.3744,-0.2905,-0.2068,-0.1454,-0.0672,0.0,0.0,0.0,0.0,0.0,0.0,0.0,0.0,0.0,0.0,0.0,0.0,-0.0504,-0.2294,-0.4357,-0.5808,-0.5808,-0.754,-0.8885,-0.8885,-0.8885,-0.8885,-0.8885,-0.8885,-0.8858,-0.8797,-0.8764,-0.8625,-0.8411,-0.8371,-0.8204,-0.8002,-0.7988,-0.7988,-0.7988,-0.7988,-0.7988,-0.7988,-0.7988,-0.7988,-0.7988,-0.7988,-0.7988,-0.7988,-0.7988,-0.7988,0.0,0.0,0.0,0.0,0.0,0.0,1.1263,1.0198,0.0,0.0,0.0,0.0,0.0,0.0,0.0,0.0,0.0,0.0,0.0,0.0,0.0,0.0,0.0,0.0,0.0,0.2063,0.1511,0.0303,0.0101,0.0,0.0,0.0,0.0,0.0,0.0,0.0,0.0,0.0,0.0,0.0,0.0,0.0,0.0,0.0,0.0,0.0,0.0,0.0,0.0,0.0,0.0,0.0,0.0,0.0,0.0,0.0,-0.084,-0.1956,-0.1956,-0.285,-0.3799,-0.2403,-0.1956,-0.1733,-0.0392,0.0,0.0,0.0,0.0,0.0,0.0,0.0,0.0,0.0,0.0,0.0,0.0,0.0,0.0,0.0,-0.2461,-0.4528,-0.4693,-0.6924,-0.8716,-0.8881,-0.8605,-0.8491,-0.8657,-0.8533,-0.8362,-0.8234,-0.8353,-0.8338,-0.8084,-0.8204,-0.8187,-0.7998,-0.7988,-0.7988,-0.7988,-0.7988,-0.7988,-0.7988,-0.7988,-0.7988,-0.7988,-0.7988,-0.7988,-0.7988,-0.7988,-0.7988,0.0,0.0,0.0,0.0,0.0,0.0,0.0,0.9543,0.0,0.0,0.0,0.0,0.0,0.0,0.0,0.0,0.0,0.0,0.0,0.0,0.0,0.0,0.0,0.0,0.0,0.2614,0.1913,0.1611,0.0605,0.0,0.0,0.0,0.0,0.0,0.0,0.0,0.0,0.0,0.0,0.0,0.0,0.0,0.0,0.0,0.0,0.0,0.0,0.0,0.0,0.0,0.0,0.0,0.0,0.0,0.0,0.0,-0.0168,-0.0448,-0.0448,-0.0616,-0.084,-0.0504,-0.0448,-0.0392,-0.0112,0.0,0.0,0.0,0.0,0.0,0.0,0.0,0.0,0.0,0.0,0.0,0.0,0.0,0.0,0.0,-0.2461,-0.4862,-0.6089,-0.6758,-0.7537,-0.8716,-0.6869,-0.5808,-0.698,-0.6069,-0.5356,-0.5337,-0.6207,-0.6757,-0.6711,-0.7538,-0.8022,-0.7992,-0.7988,-0.7988,-0.7988,-0.7988,-0.7988,-0.7988,-0.7988,-0.7988,-0.7988,-0.7988,-0.7988,-0.7988,-0.7988,-0.7988,0.0,0.0,0.0,0.9014,0.0,0.0,0.0,0.0,0.0,0.0,0.0,0.0,0.0,0.0,0.0,0.0,0.0,0.0,0.0,0.0,0.0,0.0,0.0,0.0,0.0,0.3646,0.2391,0.1108,0.0404,0.0,0.0,0.0,0.0,0.0,0.0,0.0,0.0,0.0,0.0,0.0,0.0,0.0,0.0,0.0,0.0,0.0,0.0,0.0,0.0,0.0,0.0,0.0,0.0,0.0,0.0,0.0,0.0,0.0,0.0,0.0,0.0,0.0,0.0,0.0,0.0,0.0,0.0,0.0,0.0,0.0,0.0,0.0,0.0,0.0,0.0,0.0,0.0,0.0,-0.0224,-0.0952,-0.2292,-0.3575,-0.4355,-0.5081,-0.5864,-0.6589,-0.5475,-0.4792,-0.5522,-0.4982,-0.4437,-0.4358,-0.4904,-0.55,-0.6113,-0.6665,-0.7285,-0.7939,-0.7988,-0.7988,-0.7988,-0.7335,-0.6681,-0.6024,-0.6022,-0.6022,-0.6022,-0.6022,-0.6678,-0.7988,-0.7988,-0.7988,0.0,0.0,0.0,0.0,0.0,0.9621,0.0,0.0,0.0,0.0,0.0,0.0,0.0,0.0,0.0,0.0,0.0,0.0,0.0,0.0,0.0,0.0,0.0,0.0,0.0,0.4742,0.2998,0.0548,0.0248,0.0248,0.0351,0.0151,0.0,0.0,0.0,0.0,0.0,0.0,0.0,0.0,0.0,0.0,0.0,0.0,0.0,0.0,0.0,0.0,0.0,0.0,0.0,0.0,0.0,0.0,0.0,0.0,0.0,0.0,0.0,0.0,0.0,0.0,0.0,0.0,0.0,0.0,0.0,0.0,0.0,0.0,0.0,0.0,0.0,0.0,0.0,0.0,0.0,0.0,-0.0336,-0.1566,-0.1789,-0.1957,-0.2571,-0.3409,-0.4134,-0.447,-0.4013,-0.3709,-0.404,-0.3792,-0.3575,-0.3421,-0.3604,-0.4187,-0.5131,-0.5475,-0.6077,-0.7179,-0.7232,-0.7232,-0.7232,-0.6176,-0.5122,-0.4016,-0.4016,-0.4016,-0.4016,-0.4016,-0.512,-0.7232,-0.7232,-0.7385,0.0,0.0,0.0,0.0,0.9146,0.0,0.0,0.0,0.0,0.0,0.0,0.0,0.0,0.0,0.0,0.0,0.0,0.0,0.0,0.0,0.0,0.0,0.0,0.0,0.0,0.0,0.3911,0.1765,0.1206,0.1164,0.1569,0.06,0.0,0.0,0.0,0.0,0.0,0.0,0.0,0.0,0.0,0.0,0.0,0.0,0.0,0.0,0.0,0.0,0.0,0.0,0.0,0.0,0.0,0.0,0.0,0.0,0.0,0.0,0.0,0.0,0.0,0.0,0.0,0.0,0.0,0.0,0.0,0.0,0.0,0.0,0.0,0.0,0.0,0.0,0.0,0.0,0.0,0.0,-0.0056,-0.0224,-0.0224,-0.112,-0.3801,-0.324,-0.2905,-0.4303,-0.2211,-0.0986,-0.2293,-0.1329,-0.0521,-0.0467,-0.1531,-0.2319,-0.2465,-0.3566,-0.4316,-0.4468,-0.4468,-0.4468,-0.4468,-0.4316,-0.4166,-0.4016,-0.4016,-0.4016,-0.4016,-0.4016,-0.4166,-0.4468,-0.4468,-0.507,0.0,0.0,0.0,0.0,0.0,0.0,0.0,0.0,0.7496,0.0,0.0,0.0,0.0,0.0,0.0,0.0,0.0,0.0,0.0,0.0,0.0,0.0,0.0,0.0,0.0,0.0,0.0,0.0,0.0,0.1267,0.1681,0.059,0.0,0.0,0.0,0.0,0.0,0.0,0.0,0.0,0.0,0.0,0.0,0.0,0.0,0.0,0.0,0.0,0.0,0.0,0.0,0.0,0.0,0.0,0.0,0.0,0.0,0.0,0.0,0.0,0.0,0.0,0.0,0.0,0.0,0.0,0.0,0.0,0.0,0.0,0.0,0.0,0.0,0.0,0.0,0.0,0.0,0.0,0.0,0.0,0.0,-0.0392,-0.1679,-0.1343,-0.112,-0.1791,-0.0829,-0.0218,-0.0863,-0.0369,0.0,0.0,-0.0507,-0.1159,-0.1913,-0.2514,-0.3165,-0.3966,-0.4016,-0.3665,-0.2864,-0.2815,-0.2464,-0.1711,-0.1661,-0.1661,-0.1661,-0.1661,-0.1661,-0.1711,-0.3265,-0.4316,0.7842,0.0,0.0,0.0,0.0,0.0,0.0,0.0,0.0,0.0,0.0,0.0,0.0,0.0,0.0,0.0,0.0,0.0,0.0,0.0,0.0,0.0,0.0,0.0,0.0,0.0,0.0,0.0,0.0,0.0,0.2097,0.1055,0.0295,0.0,0.0,0.0,0.0,0.0,0.0,0.0,0.0,0.0,0.0,0.0,0.0,0.0,0.0,0.0,0.0,0.0,0.0,0.0,0.0,0.0,0.0,0.0,0.0,0.0,0.0,0.0,0.0,0.0,0.0,0.0,0.0,0.0,0.0,0.0,0.0,0.0,0.0,0.0,0.0,0.0,0.0,0.0,0.0,0.0,0.0,0.0,0.0,0.0,0.0,0.0,0.0,0.0,0.0,0.0,0.0,0.0,0.0,0.0,0.0,-0.0404,-0.136,-0.146,-0.1862,-0.2865,-0.2914,-0.2464,-0.1511,-0.146,-0.1008,0.0,0.0,0.0,0.0,0.0,0.0,-0.0051,-0.2013,-0.3115,0.0,0.0,0.0,0.8653,0.0,0.0,0.0,0.0,0.5965,0.0,0.0,0.0,0.0,0.0,0.0,0.0,0.0,0.0,0.0,0.0,0.0,0.0,0.0,0.0,0.0,0.0,0.0,0.0,0.0,0.0,0.3337,0.219,0.1058,0.0049,0.0,0.0,0.0,0.0,0.0,0.0,0.0,0.0,0.0,0.0,0.0,0.0,0.0,0.0,0.0,0.0,0.0,0.0,0.0,0.0,0.0,0.0,0.0,0.0,0.0,0.0,0.0,0.0,0.0,0.0,0.0,0.0,0.0,0.0,0.0,0.0,0.0,0.0,0.0,0.0,0.0,0.0,0.0,0.0,0.0,0.0,0.0,0.0,0.0,0.0,0.0,0.0,0.0,0.0,0.0,0.0,0.0,0.0,0.0,0.0,-0.005,-0.005,-0.0101,-0.0101,-0.0151,-0.0101,-0.005,-0.005,-0.0051,0.0,0.0,0.0,0.0,0.0,0.0,0.0,-0.0101,-0.0807,0.0,0.0,1.2727,1.0701,0.0,0.0,0.0,0.0,0.0,0.0,0.0,0.0,0.0,0.0,0.0,0.0,0.0,0.0,0.0,0.0,0.0,0.0,0.0,0.0,0.0,0.0,0.0,0.0,0.0,0.0,0.0,0.2579,0.1412,0.1057,0.0348,0.0,0.0,0.0,0.0,0.0,0.0,0.0,0.0,0.0,0.0,0.0,0.0,0.0,0.0,0.0,0.0,0.0,0.0,0.0,0.0,0.0,0.0,0.0,0.0,0.0,0.0,0.0,0.0,0.0,0.0,0.0,0.0,0.0,0.0,0.0,0.0,0.0,0.0,0.0,0.0,0.0,0.0,0.0,0.0,0.0,0.0,0.0,0.0,0.0,0.0,0.0,0.0,0.0,0.0,0.0,0.0,0.0,0.0,0.0,0.0,0.0,0.0,0.0,0.0,0.0,0.0,0.0,0.0,0.0,0.0,0.0,0.0,0.0,0.0,0.0,0.0,-0.0252,0.941,1.1546,0.0,1.1161,1.1488,0.0,0.9185,0.0,0.0,0.0,0.0,0.0,0.0,0.0,0.0,0.0,0.0,0.0,0.0,0.0,0.0,0.0,0.0,0.0,0.0,0.0,0.5324,0.5694,0.0,0.0,0.0,0.0,0.1966,0.1599,0.0539,0.0,0.0,0.0,0.0,0.0,0.0,0.0,0.0,0.0,0.0252,0.0706,0.0706,0.0706,0.0706,0.0706,0.0454,0.0,0.0,0.0,0.0,0.0,0.0,0.0,0.0,0.0,0.0,0.0,0.0,0.0,0.0,0.0,0.0,0.0,0.0,0.0,0.0,0.0,0.0,0.0,0.0,0.0,0.0,0.0,0.0,0.0,0.0,0.0,0.0,0.0,0.0,0.0,0.0,0.0,0.0,0.0,0.0,0.0,0.0,0.0,0.0,0.0,0.0,0.0,0.0,0.0,0.0,0.0,0.0,0.0,0.0,0.0,0.0,0.0,0.0,0.0,0.0,0.0]}]]